<?xml version="1.0" encoding="UTF-8" standalone="no" ?>
<gpx xmlns="http://www.topografix.com/GPX/1/1" xmlns:xsi="http://www.w3.org/2001/XMLSchema-instance" xsi:schemaLocation="http://www.topografix.com/GPX/1/1 http://www.topografix.com/GPX/1/1/gpx.xsd" version="1.1" creator="VisuGPX - https://www.visugpx.com">
  <metadata>
    <name>Rambouillet-Chevreuse</name>
    <desc><![CDATA[rando VTT entre Rambouillet et Chevreuse via Auffargis et Les Vaux de Cernay.]]></desc>
  </metadata>
  <trk>
    <name><![CDATA[2022-09-18 10:15]]></name>
    <desc><![CDATA[<p>Heure de départ: 10:15 18 sept. 2022<br/>Heure d'arrivée: 12:18 18 sept. 2022<br/>Distance: 31,4 km (02:03)<br/>Temps déplacement: 01:56<br/>Vitesse moyenne: 15,32 km/h<br/>Vitesse moyenne mouv.: 16,13 km/h<br/>Vitesse Max.: 35,55 km/h<br/>Altitude minimale: 79 m<br/>Altitude maximale: 175 m<br/>Vitesse de montée: 310,8 m/h<br/>Vitesse de descente: -355,5 m/h<br/>Gain d'altitude: 284 m<br/>Perte d'altitude: -349 m<br/>Temps de montée: 00:54<br/>Temps de descente: 00:59<br/></p><hr align="center" width="480" style="height: 2px; width: 517px"/>]]></desc>
    <trkseg>
      <trkpt lat="48.64364" lon="1.83137">
        <ele>159.8</ele>
        <time>2022-09-18T08:15:49Z</time>
      </trkpt>
      <trkpt lat="48.64357" lon="1.83124">
        <ele>160</ele>
        <time>2022-09-18T08:16:23Z</time>
      </trkpt>
      <trkpt lat="48.64349" lon="1.83113">
        <ele>160</ele>
        <time>2022-09-18T08:16:27Z</time>
      </trkpt>
      <trkpt lat="48.64343" lon="1.83103">
        <ele>159.5</ele>
        <time>2022-09-18T08:16:30Z</time>
      </trkpt>
      <trkpt lat="48.64336" lon="1.8309">
        <ele>158.6</ele>
        <time>2022-09-18T08:16:33Z</time>
      </trkpt>
      <trkpt lat="48.64327" lon="1.83076">
        <ele>158.1</ele>
        <time>2022-09-18T08:16:36Z</time>
      </trkpt>
      <trkpt lat="48.64319" lon="1.83063">
        <ele>157.9</ele>
        <time>2022-09-18T08:16:39Z</time>
      </trkpt>
      <trkpt lat="48.64311" lon="1.8305">
        <ele>157.1</ele>
        <time>2022-09-18T08:16:42Z</time>
      </trkpt>
      <trkpt lat="48.64302" lon="1.83037">
        <ele>155.4</ele>
        <time>2022-09-18T08:16:45Z</time>
      </trkpt>
      <trkpt lat="48.64294" lon="1.83027">
        <ele>154.8</ele>
        <time>2022-09-18T08:16:48Z</time>
      </trkpt>
      <trkpt lat="48.64285" lon="1.83019">
        <ele>154.7</ele>
        <time>2022-09-18T08:16:53Z</time>
      </trkpt>
      <trkpt lat="48.64276" lon="1.83017">
        <ele>154.8</ele>
        <time>2022-09-18T08:17:01Z</time>
      </trkpt>
      <trkpt lat="48.6427" lon="1.83028">
        <ele>155.2</ele>
        <time>2022-09-18T08:17:51Z</time>
      </trkpt>
      <trkpt lat="48.64266" lon="1.83041">
        <ele>154.9</ele>
        <time>2022-09-18T08:17:56Z</time>
      </trkpt>
      <trkpt lat="48.64268" lon="1.83058">
        <ele>155.3</ele>
        <time>2022-09-18T08:18:00Z</time>
      </trkpt>
      <trkpt lat="48.64272" lon="1.83074">
        <ele>155.2</ele>
        <time>2022-09-18T08:18:04Z</time>
      </trkpt>
      <trkpt lat="48.64275" lon="1.83087">
        <ele>155</ele>
        <time>2022-09-18T08:18:07Z</time>
      </trkpt>
      <trkpt lat="48.64278" lon="1.83103">
        <ele>155.1</ele>
        <time>2022-09-18T08:18:11Z</time>
      </trkpt>
      <trkpt lat="48.64281" lon="1.83117">
        <ele>155.7</ele>
        <time>2022-09-18T08:18:17Z</time>
      </trkpt>
      <trkpt lat="48.64275" lon="1.83106">
        <ele>155</ele>
        <time>2022-09-18T08:19:01Z</time>
      </trkpt>
      <trkpt lat="48.64272" lon="1.83088">
        <ele>155</ele>
        <time>2022-09-18T08:19:05Z</time>
      </trkpt>
      <trkpt lat="48.6427" lon="1.83075">
        <ele>155.1</ele>
        <time>2022-09-18T08:19:10Z</time>
      </trkpt>
      <trkpt lat="48.64261" lon="1.83066">
        <ele>154.9</ele>
        <time>2022-09-18T08:19:16Z</time>
      </trkpt>
      <trkpt lat="48.64252" lon="1.83063">
        <ele>154.4</ele>
        <time>2022-09-18T08:19:33Z</time>
      </trkpt>
      <trkpt lat="48.64243" lon="1.83075">
        <ele>154.6</ele>
        <time>2022-09-18T08:19:37Z</time>
      </trkpt>
      <trkpt lat="48.64236" lon="1.83085">
        <ele>155</ele>
        <time>2022-09-18T08:19:40Z</time>
      </trkpt>
      <trkpt lat="48.64229" lon="1.83094">
        <ele>155.3</ele>
        <time>2022-09-18T08:19:43Z</time>
      </trkpt>
      <trkpt lat="48.6422" lon="1.83105">
        <ele>155.9</ele>
        <time>2022-09-18T08:19:47Z</time>
      </trkpt>
      <trkpt lat="48.64211" lon="1.83113">
        <ele>156.9</ele>
        <time>2022-09-18T08:19:51Z</time>
      </trkpt>
      <trkpt lat="48.64203" lon="1.83124">
        <ele>157.7</ele>
        <time>2022-09-18T08:19:55Z</time>
      </trkpt>
      <trkpt lat="48.64197" lon="1.83136">
        <ele>158</ele>
        <time>2022-09-18T08:19:59Z</time>
      </trkpt>
      <trkpt lat="48.6419" lon="1.83147">
        <ele>158.8</ele>
        <time>2022-09-18T08:20:03Z</time>
      </trkpt>
      <trkpt lat="48.64183" lon="1.83157">
        <ele>159.6</ele>
        <time>2022-09-18T08:20:07Z</time>
      </trkpt>
      <trkpt lat="48.64177" lon="1.83167">
        <ele>160</ele>
        <time>2022-09-18T08:20:11Z</time>
      </trkpt>
      <trkpt lat="48.6417" lon="1.83177">
        <ele>160.7</ele>
        <time>2022-09-18T08:20:15Z</time>
      </trkpt>
      <trkpt lat="48.64164" lon="1.83188">
        <ele>161.5</ele>
        <time>2022-09-18T08:20:19Z</time>
      </trkpt>
      <trkpt lat="48.64157" lon="1.83196">
        <ele>162</ele>
        <time>2022-09-18T08:20:23Z</time>
      </trkpt>
      <trkpt lat="48.6415" lon="1.83206">
        <ele>162.3</ele>
        <time>2022-09-18T08:20:26Z</time>
      </trkpt>
      <trkpt lat="48.64143" lon="1.8322">
        <ele>162.8</ele>
        <time>2022-09-18T08:20:30Z</time>
      </trkpt>
      <trkpt lat="48.64137" lon="1.83233">
        <ele>163</ele>
        <time>2022-09-18T08:20:34Z</time>
      </trkpt>
      <trkpt lat="48.64129" lon="1.83247">
        <ele>163</ele>
        <time>2022-09-18T08:20:38Z</time>
      </trkpt>
      <trkpt lat="48.64123" lon="1.83257">
        <ele>162.9</ele>
        <time>2022-09-18T08:20:41Z</time>
      </trkpt>
      <trkpt lat="48.64116" lon="1.83269">
        <ele>162.9</ele>
        <time>2022-09-18T08:20:44Z</time>
      </trkpt>
      <trkpt lat="48.6411" lon="1.83282">
        <ele>163</ele>
        <time>2022-09-18T08:20:47Z</time>
      </trkpt>
      <trkpt lat="48.64104" lon="1.83294">
        <ele>162.9</ele>
        <time>2022-09-18T08:20:50Z</time>
      </trkpt>
      <trkpt lat="48.64097" lon="1.83306">
        <ele>163</ele>
        <time>2022-09-18T08:20:53Z</time>
      </trkpt>
      <trkpt lat="48.64089" lon="1.83318">
        <ele>163</ele>
        <time>2022-09-18T08:20:56Z</time>
      </trkpt>
      <trkpt lat="48.64082" lon="1.83331">
        <ele>163</ele>
        <time>2022-09-18T08:20:59Z</time>
      </trkpt>
      <trkpt lat="48.64075" lon="1.83343">
        <ele>163</ele>
        <time>2022-09-18T08:21:02Z</time>
      </trkpt>
      <trkpt lat="48.64067" lon="1.83356">
        <ele>163</ele>
        <time>2022-09-18T08:21:05Z</time>
      </trkpt>
      <trkpt lat="48.64059" lon="1.83369">
        <ele>163</ele>
        <time>2022-09-18T08:21:08Z</time>
      </trkpt>
      <trkpt lat="48.64051" lon="1.83381">
        <ele>162.8</ele>
        <time>2022-09-18T08:21:11Z</time>
      </trkpt>
      <trkpt lat="48.64043" lon="1.83394">
        <ele>162.6</ele>
        <time>2022-09-18T08:21:14Z</time>
      </trkpt>
      <trkpt lat="48.64034" lon="1.83406">
        <ele>162.7</ele>
        <time>2022-09-18T08:21:17Z</time>
      </trkpt>
      <trkpt lat="48.64025" lon="1.8342">
        <ele>163</ele>
        <time>2022-09-18T08:21:20Z</time>
      </trkpt>
      <trkpt lat="48.64016" lon="1.83433">
        <ele>163.2</ele>
        <time>2022-09-18T08:21:23Z</time>
      </trkpt>
      <trkpt lat="48.64007" lon="1.83446">
        <ele>163.3</ele>
        <time>2022-09-18T08:21:26Z</time>
      </trkpt>
      <trkpt lat="48.63998" lon="1.83459">
        <ele>163.5</ele>
        <time>2022-09-18T08:21:29Z</time>
      </trkpt>
      <trkpt lat="48.63989" lon="1.83472">
        <ele>164</ele>
        <time>2022-09-18T08:21:32Z</time>
      </trkpt>
      <trkpt lat="48.63979" lon="1.83485">
        <ele>164</ele>
        <time>2022-09-18T08:21:35Z</time>
      </trkpt>
      <trkpt lat="48.6397" lon="1.83497">
        <ele>164</ele>
        <time>2022-09-18T08:21:38Z</time>
      </trkpt>
      <trkpt lat="48.63961" lon="1.8351">
        <ele>164.3</ele>
        <time>2022-09-18T08:21:41Z</time>
      </trkpt>
      <trkpt lat="48.63954" lon="1.83519">
        <ele>164.7</ele>
        <time>2022-09-18T08:21:43Z</time>
      </trkpt>
      <trkpt lat="48.63945" lon="1.83533">
        <ele>165</ele>
        <time>2022-09-18T08:21:46Z</time>
      </trkpt>
      <trkpt lat="48.63935" lon="1.83546">
        <ele>165</ele>
        <time>2022-09-18T08:21:49Z</time>
      </trkpt>
      <trkpt lat="48.63928" lon="1.83556">
        <ele>165</ele>
        <time>2022-09-18T08:21:51Z</time>
      </trkpt>
      <trkpt lat="48.63922" lon="1.83566">
        <ele>165</ele>
        <time>2022-09-18T08:21:53Z</time>
      </trkpt>
      <trkpt lat="48.63916" lon="1.83576">
        <ele>165</ele>
        <time>2022-09-18T08:21:55Z</time>
      </trkpt>
      <trkpt lat="48.63906" lon="1.8359">
        <ele>165.4</ele>
        <time>2022-09-18T08:21:58Z</time>
      </trkpt>
      <trkpt lat="48.63896" lon="1.83604">
        <ele>165.8</ele>
        <time>2022-09-18T08:22:01Z</time>
      </trkpt>
      <trkpt lat="48.63887" lon="1.8362">
        <ele>166</ele>
        <time>2022-09-18T08:22:04Z</time>
      </trkpt>
      <trkpt lat="48.63879" lon="1.83636">
        <ele>166</ele>
        <time>2022-09-18T08:22:07Z</time>
      </trkpt>
      <trkpt lat="48.63871" lon="1.83652">
        <ele>165.7</ele>
        <time>2022-09-18T08:22:10Z</time>
      </trkpt>
      <trkpt lat="48.63865" lon="1.83663">
        <ele>165.3</ele>
        <time>2022-09-18T08:22:12Z</time>
      </trkpt>
      <trkpt lat="48.6386" lon="1.83675">
        <ele>165</ele>
        <time>2022-09-18T08:22:14Z</time>
      </trkpt>
      <trkpt lat="48.63855" lon="1.83687">
        <ele>165</ele>
        <time>2022-09-18T08:22:16Z</time>
      </trkpt>
      <trkpt lat="48.63849" lon="1.83704">
        <ele>165</ele>
        <time>2022-09-18T08:22:19Z</time>
      </trkpt>
      <trkpt lat="48.63842" lon="1.83713">
        <ele>165</ele>
        <time>2022-09-18T08:22:21Z</time>
      </trkpt>
      <trkpt lat="48.63834" lon="1.83725">
        <ele>165</ele>
        <time>2022-09-18T08:22:23Z</time>
      </trkpt>
      <trkpt lat="48.63828" lon="1.83737">
        <ele>165</ele>
        <time>2022-09-18T08:22:25Z</time>
      </trkpt>
      <trkpt lat="48.63821" lon="1.83751">
        <ele>165</ele>
        <time>2022-09-18T08:22:27Z</time>
      </trkpt>
      <trkpt lat="48.63814" lon="1.83766">
        <ele>164.2</ele>
        <time>2022-09-18T08:22:29Z</time>
      </trkpt>
      <trkpt lat="48.63805" lon="1.83777">
        <ele>163.1</ele>
        <time>2022-09-18T08:22:31Z</time>
      </trkpt>
      <trkpt lat="48.63798" lon="1.83797">
        <ele>164.6</ele>
        <time>2022-09-18T08:22:33Z</time>
      </trkpt>
      <trkpt lat="48.6379" lon="1.83813">
        <ele>165.2</ele>
        <time>2022-09-18T08:22:35Z</time>
      </trkpt>
      <trkpt lat="48.63783" lon="1.83826">
        <ele>164.7</ele>
        <time>2022-09-18T08:22:37Z</time>
      </trkpt>
      <trkpt lat="48.63776" lon="1.83834">
        <ele>164</ele>
        <time>2022-09-18T08:22:39Z</time>
      </trkpt>
      <trkpt lat="48.63767" lon="1.83838">
        <ele>164</ele>
        <time>2022-09-18T08:22:41Z</time>
      </trkpt>
      <trkpt lat="48.63757" lon="1.83839">
        <ele>164</ele>
        <time>2022-09-18T08:22:43Z</time>
      </trkpt>
      <trkpt lat="48.63747" lon="1.83838">
        <ele>164</ele>
        <time>2022-09-18T08:22:45Z</time>
      </trkpt>
      <trkpt lat="48.63737" lon="1.83838">
        <ele>163.9</ele>
        <time>2022-09-18T08:22:47Z</time>
      </trkpt>
      <trkpt lat="48.63725" lon="1.83831">
        <ele>164</ele>
        <time>2022-09-18T08:22:50Z</time>
      </trkpt>
      <trkpt lat="48.63716" lon="1.83824">
        <ele>163.8</ele>
        <time>2022-09-18T08:22:52Z</time>
      </trkpt>
      <trkpt lat="48.63708" lon="1.83814">
        <ele>163.8</ele>
        <time>2022-09-18T08:22:54Z</time>
      </trkpt>
      <trkpt lat="48.637" lon="1.83804">
        <ele>164</ele>
        <time>2022-09-18T08:22:56Z</time>
      </trkpt>
      <trkpt lat="48.63692" lon="1.83795">
        <ele>164</ele>
        <time>2022-09-18T08:22:58Z</time>
      </trkpt>
      <trkpt lat="48.63685" lon="1.83785">
        <ele>164</ele>
        <time>2022-09-18T08:23:00Z</time>
      </trkpt>
      <trkpt lat="48.63679" lon="1.83774">
        <ele>164</ele>
        <time>2022-09-18T08:23:02Z</time>
      </trkpt>
      <trkpt lat="48.63672" lon="1.83765">
        <ele>164</ele>
        <time>2022-09-18T08:23:04Z</time>
      </trkpt>
      <trkpt lat="48.63663" lon="1.83751">
        <ele>164.1</ele>
        <time>2022-09-18T08:23:07Z</time>
      </trkpt>
      <trkpt lat="48.63655" lon="1.83739">
        <ele>164.9</ele>
        <time>2022-09-18T08:23:10Z</time>
      </trkpt>
      <trkpt lat="48.63646" lon="1.83726">
        <ele>165.2</ele>
        <time>2022-09-18T08:23:13Z</time>
      </trkpt>
      <trkpt lat="48.63637" lon="1.83713">
        <ele>165.3</ele>
        <time>2022-09-18T08:23:16Z</time>
      </trkpt>
      <trkpt lat="48.63629" lon="1.837">
        <ele>165.5</ele>
        <time>2022-09-18T08:23:19Z</time>
      </trkpt>
      <trkpt lat="48.6362" lon="1.83687">
        <ele>165.5</ele>
        <time>2022-09-18T08:23:22Z</time>
      </trkpt>
      <trkpt lat="48.63609" lon="1.83677">
        <ele>165.6</ele>
        <time>2022-09-18T08:23:25Z</time>
      </trkpt>
      <trkpt lat="48.63597" lon="1.83667">
        <ele>165.5</ele>
        <time>2022-09-18T08:23:28Z</time>
      </trkpt>
      <trkpt lat="48.63588" lon="1.83661">
        <ele>165.4</ele>
        <time>2022-09-18T08:23:30Z</time>
      </trkpt>
      <trkpt lat="48.6358" lon="1.83655">
        <ele>165.4</ele>
        <time>2022-09-18T08:23:32Z</time>
      </trkpt>
      <trkpt lat="48.63568" lon="1.83647">
        <ele>165.3</ele>
        <time>2022-09-18T08:23:35Z</time>
      </trkpt>
      <trkpt lat="48.63556" lon="1.83642">
        <ele>165</ele>
        <time>2022-09-18T08:23:38Z</time>
      </trkpt>
      <trkpt lat="48.63545" lon="1.83638">
        <ele>165</ele>
        <time>2022-09-18T08:23:41Z</time>
      </trkpt>
      <trkpt lat="48.63539" lon="1.83649">
        <ele>165</ele>
        <time>2022-09-18T08:23:46Z</time>
      </trkpt>
      <trkpt lat="48.63539" lon="1.83663">
        <ele>165</ele>
        <time>2022-09-18T08:23:49Z</time>
      </trkpt>
      <trkpt lat="48.63538" lon="1.83679">
        <ele>164.7</ele>
        <time>2022-09-18T08:23:52Z</time>
      </trkpt>
      <trkpt lat="48.63537" lon="1.83698">
        <ele>164.3</ele>
        <time>2022-09-18T08:23:55Z</time>
      </trkpt>
      <trkpt lat="48.63538" lon="1.83713">
        <ele>164.1</ele>
        <time>2022-09-18T08:23:57Z</time>
      </trkpt>
      <trkpt lat="48.63537" lon="1.83727">
        <ele>164</ele>
        <time>2022-09-18T08:23:59Z</time>
      </trkpt>
      <trkpt lat="48.63534" lon="1.83745">
        <ele>164</ele>
        <time>2022-09-18T08:24:02Z</time>
      </trkpt>
      <trkpt lat="48.63525" lon="1.83758">
        <ele>163.7</ele>
        <time>2022-09-18T08:24:05Z</time>
      </trkpt>
      <trkpt lat="48.63515" lon="1.8377">
        <ele>163.3</ele>
        <time>2022-09-18T08:24:08Z</time>
      </trkpt>
      <trkpt lat="48.63503" lon="1.83779">
        <ele>163</ele>
        <time>2022-09-18T08:24:11Z</time>
      </trkpt>
      <trkpt lat="48.63492" lon="1.8379">
        <ele>163.2</ele>
        <time>2022-09-18T08:24:14Z</time>
      </trkpt>
      <trkpt lat="48.63488" lon="1.83803">
        <ele>163</ele>
        <time>2022-09-18T08:24:16Z</time>
      </trkpt>
      <trkpt lat="48.63485" lon="1.83817">
        <ele>163</ele>
        <time>2022-09-18T08:24:19Z</time>
      </trkpt>
      <trkpt lat="48.63482" lon="1.83833">
        <ele>163</ele>
        <time>2022-09-18T08:24:22Z</time>
      </trkpt>
      <trkpt lat="48.63477" lon="1.83848">
        <ele>163</ele>
        <time>2022-09-18T08:24:24Z</time>
      </trkpt>
      <trkpt lat="48.63471" lon="1.8386">
        <ele>163</ele>
        <time>2022-09-18T08:24:28Z</time>
      </trkpt>
      <trkpt lat="48.63463" lon="1.83867">
        <ele>162.8</ele>
        <time>2022-09-18T08:24:33Z</time>
      </trkpt>
      <trkpt lat="48.63455" lon="1.83879">
        <ele>162.3</ele>
        <time>2022-09-18T08:24:36Z</time>
      </trkpt>
      <trkpt lat="48.63446" lon="1.83888">
        <ele>162</ele>
        <time>2022-09-18T08:24:39Z</time>
      </trkpt>
      <trkpt lat="48.63437" lon="1.83895">
        <ele>162.2</ele>
        <time>2022-09-18T08:24:41Z</time>
      </trkpt>
      <trkpt lat="48.63426" lon="1.83904">
        <ele>162.3</ele>
        <time>2022-09-18T08:24:44Z</time>
      </trkpt>
      <trkpt lat="48.63417" lon="1.83915">
        <ele>162</ele>
        <time>2022-09-18T08:24:47Z</time>
      </trkpt>
      <trkpt lat="48.6341" lon="1.83927">
        <ele>162</ele>
        <time>2022-09-18T08:24:49Z</time>
      </trkpt>
      <trkpt lat="48.63404" lon="1.83938">
        <ele>162</ele>
        <time>2022-09-18T08:24:51Z</time>
      </trkpt>
      <trkpt lat="48.63396" lon="1.83947">
        <ele>161.9</ele>
        <time>2022-09-18T08:24:53Z</time>
      </trkpt>
      <trkpt lat="48.63387" lon="1.83952">
        <ele>161.8</ele>
        <time>2022-09-18T08:24:55Z</time>
      </trkpt>
      <trkpt lat="48.63378" lon="1.83955">
        <ele>161.8</ele>
        <time>2022-09-18T08:24:57Z</time>
      </trkpt>
      <trkpt lat="48.63365" lon="1.83957">
        <ele>161.9</ele>
        <time>2022-09-18T08:25:00Z</time>
      </trkpt>
      <trkpt lat="48.63353" lon="1.83962">
        <ele>162</ele>
        <time>2022-09-18T08:25:03Z</time>
      </trkpt>
      <trkpt lat="48.63341" lon="1.83971">
        <ele>162</ele>
        <time>2022-09-18T08:25:05Z</time>
      </trkpt>
      <trkpt lat="48.63328" lon="1.83978">
        <ele>161.8</ele>
        <time>2022-09-18T08:25:08Z</time>
      </trkpt>
      <trkpt lat="48.63315" lon="1.83978">
        <ele>161.8</ele>
        <time>2022-09-18T08:25:11Z</time>
      </trkpt>
      <trkpt lat="48.63306" lon="1.83978">
        <ele>161.8</ele>
        <time>2022-09-18T08:25:13Z</time>
      </trkpt>
      <trkpt lat="48.63297" lon="1.83982">
        <ele>161.7</ele>
        <time>2022-09-18T08:25:15Z</time>
      </trkpt>
      <trkpt lat="48.63287" lon="1.83989">
        <ele>161.4</ele>
        <time>2022-09-18T08:25:17Z</time>
      </trkpt>
      <trkpt lat="48.63277" lon="1.83996">
        <ele>161.2</ele>
        <time>2022-09-18T08:25:19Z</time>
      </trkpt>
      <trkpt lat="48.63265" lon="1.84005">
        <ele>161</ele>
        <time>2022-09-18T08:25:21Z</time>
      </trkpt>
      <trkpt lat="48.63252" lon="1.84005">
        <ele>161</ele>
        <time>2022-09-18T08:25:24Z</time>
      </trkpt>
      <trkpt lat="48.63243" lon="1.84012">
        <ele>160.7</ele>
        <time>2022-09-18T08:25:26Z</time>
      </trkpt>
      <trkpt lat="48.63234" lon="1.84021">
        <ele>160.4</ele>
        <time>2022-09-18T08:25:28Z</time>
      </trkpt>
      <trkpt lat="48.63226" lon="1.84029">
        <ele>160.1</ele>
        <time>2022-09-18T08:25:30Z</time>
      </trkpt>
      <trkpt lat="48.63217" lon="1.84037">
        <ele>160</ele>
        <time>2022-09-18T08:25:32Z</time>
      </trkpt>
      <trkpt lat="48.63205" lon="1.8404">
        <ele>160</ele>
        <time>2022-09-18T08:25:34Z</time>
      </trkpt>
      <trkpt lat="48.63195" lon="1.84043">
        <ele>160</ele>
        <time>2022-09-18T08:25:36Z</time>
      </trkpt>
      <trkpt lat="48.63185" lon="1.84046">
        <ele>159.8</ele>
        <time>2022-09-18T08:25:38Z</time>
      </trkpt>
      <trkpt lat="48.63176" lon="1.84051">
        <ele>159.5</ele>
        <time>2022-09-18T08:25:40Z</time>
      </trkpt>
      <trkpt lat="48.63168" lon="1.84056">
        <ele>159</ele>
        <time>2022-09-18T08:25:42Z</time>
      </trkpt>
      <trkpt lat="48.63159" lon="1.84061">
        <ele>159</ele>
        <time>2022-09-18T08:25:44Z</time>
      </trkpt>
      <trkpt lat="48.63149" lon="1.84066">
        <ele>159</ele>
        <time>2022-09-18T08:25:45Z</time>
      </trkpt>
      <trkpt lat="48.63137" lon="1.84069">
        <ele>159</ele>
        <time>2022-09-18T08:25:47Z</time>
      </trkpt>
      <trkpt lat="48.63127" lon="1.84072">
        <ele>159</ele>
        <time>2022-09-18T08:25:49Z</time>
      </trkpt>
      <trkpt lat="48.63117" lon="1.84075">
        <ele>159</ele>
        <time>2022-09-18T08:25:51Z</time>
      </trkpt>
      <trkpt lat="48.63107" lon="1.84088">
        <ele>158.9</ele>
        <time>2022-09-18T08:25:54Z</time>
      </trkpt>
      <trkpt lat="48.63105" lon="1.84102">
        <ele>158.8</ele>
        <time>2022-09-18T08:25:56Z</time>
      </trkpt>
      <trkpt lat="48.631" lon="1.84121">
        <ele>158.6</ele>
        <time>2022-09-18T08:25:59Z</time>
      </trkpt>
      <trkpt lat="48.63104" lon="1.84138">
        <ele>158.8</ele>
        <time>2022-09-18T08:26:03Z</time>
      </trkpt>
      <trkpt lat="48.63112" lon="1.84154">
        <ele>159</ele>
        <time>2022-09-18T08:26:06Z</time>
      </trkpt>
      <trkpt lat="48.63119" lon="1.84163">
        <ele>159</ele>
        <time>2022-09-18T08:26:08Z</time>
      </trkpt>
      <trkpt lat="48.63125" lon="1.84182">
        <ele>159</ele>
        <time>2022-09-18T08:26:11Z</time>
      </trkpt>
      <trkpt lat="48.63127" lon="1.84196">
        <ele>159</ele>
        <time>2022-09-18T08:26:13Z</time>
      </trkpt>
      <trkpt lat="48.63126" lon="1.84214">
        <ele>158.7</ele>
        <time>2022-09-18T08:26:16Z</time>
      </trkpt>
      <trkpt lat="48.63127" lon="1.84232">
        <ele>158.4</ele>
        <time>2022-09-18T08:26:19Z</time>
      </trkpt>
      <trkpt lat="48.63129" lon="1.84246">
        <ele>158.1</ele>
        <time>2022-09-18T08:26:22Z</time>
      </trkpt>
      <trkpt lat="48.63134" lon="1.84259">
        <ele>157.6</ele>
        <time>2022-09-18T08:26:48Z</time>
      </trkpt>
      <trkpt lat="48.63139" lon="1.84273">
        <ele>157.2</ele>
        <time>2022-09-18T08:26:53Z</time>
      </trkpt>
      <trkpt lat="48.63143" lon="1.84286">
        <ele>156.9</ele>
        <time>2022-09-18T08:27:08Z</time>
      </trkpt>
      <trkpt lat="48.63141" lon="1.84271">
        <ele>157.3</ele>
        <time>2022-09-18T08:28:51Z</time>
      </trkpt>
      <trkpt lat="48.63136" lon="1.8426">
        <ele>157.6</ele>
        <time>2022-09-18T08:28:55Z</time>
      </trkpt>
      <trkpt lat="48.63133" lon="1.84245">
        <ele>158.1</ele>
        <time>2022-09-18T08:28:58Z</time>
      </trkpt>
      <trkpt lat="48.63132" lon="1.8423">
        <ele>158.5</ele>
        <time>2022-09-18T08:29:01Z</time>
      </trkpt>
      <trkpt lat="48.63131" lon="1.84215">
        <ele>158.8</ele>
        <time>2022-09-18T08:29:04Z</time>
      </trkpt>
      <trkpt lat="48.63129" lon="1.84201">
        <ele>158.9</ele>
        <time>2022-09-18T08:29:08Z</time>
      </trkpt>
      <trkpt lat="48.63127" lon="1.84185">
        <ele>159</ele>
        <time>2022-09-18T08:29:11Z</time>
      </trkpt>
      <trkpt lat="48.63121" lon="1.84171">
        <ele>159</ele>
        <time>2022-09-18T08:29:14Z</time>
      </trkpt>
      <trkpt lat="48.63114" lon="1.84158">
        <ele>159</ele>
        <time>2022-09-18T08:29:17Z</time>
      </trkpt>
      <trkpt lat="48.63111" lon="1.84145">
        <ele>159</ele>
        <time>2022-09-18T08:29:20Z</time>
      </trkpt>
      <trkpt lat="48.63101" lon="1.84149">
        <ele>158.7</ele>
        <time>2022-09-18T08:29:29Z</time>
      </trkpt>
      <trkpt lat="48.63091" lon="1.84154">
        <ele>158.3</ele>
        <time>2022-09-18T08:29:33Z</time>
      </trkpt>
      <trkpt lat="48.63082" lon="1.84163">
        <ele>158</ele>
        <time>2022-09-18T08:29:37Z</time>
      </trkpt>
      <trkpt lat="48.63075" lon="1.84171">
        <ele>157.7</ele>
        <time>2022-09-18T08:29:40Z</time>
      </trkpt>
      <trkpt lat="48.63068" lon="1.84183">
        <ele>157.1</ele>
        <time>2022-09-18T08:29:44Z</time>
      </trkpt>
      <trkpt lat="48.63064" lon="1.84197">
        <ele>156.6</ele>
        <time>2022-09-18T08:29:47Z</time>
      </trkpt>
      <trkpt lat="48.63061" lon="1.84211">
        <ele>156.4</ele>
        <time>2022-09-18T08:29:50Z</time>
      </trkpt>
      <trkpt lat="48.63063" lon="1.84225">
        <ele>156.4</ele>
        <time>2022-09-18T08:30:05Z</time>
      </trkpt>
      <trkpt lat="48.63069" lon="1.8424">
        <ele>156.3</ele>
        <time>2022-09-18T08:30:09Z</time>
      </trkpt>
      <trkpt lat="48.6307" lon="1.84256">
        <ele>156.1</ele>
        <time>2022-09-18T08:30:13Z</time>
      </trkpt>
      <trkpt lat="48.63065" lon="1.84269">
        <ele>156.5</ele>
        <time>2022-09-18T08:30:18Z</time>
      </trkpt>
      <trkpt lat="48.63055" lon="1.84273">
        <ele>156.8</ele>
        <time>2022-09-18T08:30:23Z</time>
      </trkpt>
      <trkpt lat="48.63044" lon="1.84275">
        <ele>156.5</ele>
        <time>2022-09-18T08:30:27Z</time>
      </trkpt>
      <trkpt lat="48.63031" lon="1.84281">
        <ele>156.2</ele>
        <time>2022-09-18T08:30:30Z</time>
      </trkpt>
      <trkpt lat="48.6302" lon="1.84282">
        <ele>156.5</ele>
        <time>2022-09-18T08:30:33Z</time>
      </trkpt>
      <trkpt lat="48.6301" lon="1.8428">
        <ele>156.7</ele>
        <time>2022-09-18T08:30:36Z</time>
      </trkpt>
      <trkpt lat="48.63" lon="1.84277">
        <ele>156.9</ele>
        <time>2022-09-18T08:30:40Z</time>
      </trkpt>
      <trkpt lat="48.6299" lon="1.84274">
        <ele>156.4</ele>
        <time>2022-09-18T08:30:43Z</time>
      </trkpt>
      <trkpt lat="48.62979" lon="1.84273">
        <ele>156</ele>
        <time>2022-09-18T08:30:45Z</time>
      </trkpt>
      <trkpt lat="48.62969" lon="1.84279">
        <ele>155.9</ele>
        <time>2022-09-18T08:30:47Z</time>
      </trkpt>
      <trkpt lat="48.62959" lon="1.84286">
        <ele>156</ele>
        <time>2022-09-18T08:30:49Z</time>
      </trkpt>
      <trkpt lat="48.62951" lon="1.84292">
        <ele>155.9</ele>
        <time>2022-09-18T08:30:51Z</time>
      </trkpt>
      <trkpt lat="48.62942" lon="1.84304">
        <ele>155.9</ele>
        <time>2022-09-18T08:30:53Z</time>
      </trkpt>
      <trkpt lat="48.62934" lon="1.84316">
        <ele>156.2</ele>
        <time>2022-09-18T08:30:56Z</time>
      </trkpt>
      <trkpt lat="48.62925" lon="1.84323">
        <ele>156.1</ele>
        <time>2022-09-18T08:30:59Z</time>
      </trkpt>
      <trkpt lat="48.62916" lon="1.84332">
        <ele>155.9</ele>
        <time>2022-09-18T08:31:02Z</time>
      </trkpt>
      <trkpt lat="48.62906" lon="1.84344">
        <ele>155.9</ele>
        <time>2022-09-18T08:31:05Z</time>
      </trkpt>
      <trkpt lat="48.62897" lon="1.8436">
        <ele>155.6</ele>
        <time>2022-09-18T08:31:08Z</time>
      </trkpt>
      <trkpt lat="48.62888" lon="1.84372">
        <ele>155.7</ele>
        <time>2022-09-18T08:31:11Z</time>
      </trkpt>
      <trkpt lat="48.6288" lon="1.84385">
        <ele>156.2</ele>
        <time>2022-09-18T08:31:14Z</time>
      </trkpt>
      <trkpt lat="48.62873" lon="1.84399">
        <ele>155.9</ele>
        <time>2022-09-18T08:31:17Z</time>
      </trkpt>
      <trkpt lat="48.62867" lon="1.84415">
        <ele>155.4</ele>
        <time>2022-09-18T08:31:20Z</time>
      </trkpt>
      <trkpt lat="48.62864" lon="1.84429">
        <ele>155.2</ele>
        <time>2022-09-18T08:31:22Z</time>
      </trkpt>
      <trkpt lat="48.62866" lon="1.84443">
        <ele>155.3</ele>
        <time>2022-09-18T08:31:24Z</time>
      </trkpt>
      <trkpt lat="48.62865" lon="1.84462">
        <ele>155.3</ele>
        <time>2022-09-18T08:31:27Z</time>
      </trkpt>
      <trkpt lat="48.62867" lon="1.84482">
        <ele>155.4</ele>
        <time>2022-09-18T08:31:30Z</time>
      </trkpt>
      <trkpt lat="48.62869" lon="1.845">
        <ele>155.5</ele>
        <time>2022-09-18T08:31:33Z</time>
      </trkpt>
      <trkpt lat="48.6287" lon="1.84521">
        <ele>155.6</ele>
        <time>2022-09-18T08:31:36Z</time>
      </trkpt>
      <trkpt lat="48.62872" lon="1.84538">
        <ele>155.8</ele>
        <time>2022-09-18T08:31:39Z</time>
      </trkpt>
      <trkpt lat="48.62876" lon="1.84556">
        <ele>156</ele>
        <time>2022-09-18T08:31:42Z</time>
      </trkpt>
      <trkpt lat="48.62879" lon="1.84572">
        <ele>155.9</ele>
        <time>2022-09-18T08:31:45Z</time>
      </trkpt>
      <trkpt lat="48.62882" lon="1.84591">
        <ele>155.5</ele>
        <time>2022-09-18T08:31:48Z</time>
      </trkpt>
      <trkpt lat="48.62891" lon="1.84602">
        <ele>155.4</ele>
        <time>2022-09-18T08:31:50Z</time>
      </trkpt>
      <trkpt lat="48.62897" lon="1.84615">
        <ele>155.5</ele>
        <time>2022-09-18T08:31:52Z</time>
      </trkpt>
      <trkpt lat="48.62903" lon="1.84625">
        <ele>155.8</ele>
        <time>2022-09-18T08:31:54Z</time>
      </trkpt>
      <trkpt lat="48.62909" lon="1.84635">
        <ele>155.8</ele>
        <time>2022-09-18T08:31:56Z</time>
      </trkpt>
      <trkpt lat="48.6292" lon="1.84643">
        <ele>156</ele>
        <time>2022-09-18T08:31:59Z</time>
      </trkpt>
      <trkpt lat="48.6293" lon="1.84649">
        <ele>156.1</ele>
        <time>2022-09-18T08:32:01Z</time>
      </trkpt>
      <trkpt lat="48.62938" lon="1.84657">
        <ele>156.1</ele>
        <time>2022-09-18T08:32:03Z</time>
      </trkpt>
      <trkpt lat="48.62947" lon="1.84664">
        <ele>156.2</ele>
        <time>2022-09-18T08:32:06Z</time>
      </trkpt>
      <trkpt lat="48.62956" lon="1.84668">
        <ele>156.4</ele>
        <time>2022-09-18T08:32:10Z</time>
      </trkpt>
      <trkpt lat="48.62954" lon="1.84681">
        <ele>156</ele>
        <time>2022-09-18T08:32:15Z</time>
      </trkpt>
      <trkpt lat="48.62955" lon="1.84699">
        <ele>155.7</ele>
        <time>2022-09-18T08:32:19Z</time>
      </trkpt>
      <trkpt lat="48.62959" lon="1.84715">
        <ele>155.7</ele>
        <time>2022-09-18T08:32:22Z</time>
      </trkpt>
      <trkpt lat="48.62966" lon="1.84728">
        <ele>155.6</ele>
        <time>2022-09-18T08:32:25Z</time>
      </trkpt>
      <trkpt lat="48.62972" lon="1.84745">
        <ele>155.2</ele>
        <time>2022-09-18T08:32:28Z</time>
      </trkpt>
      <trkpt lat="48.62976" lon="1.84758">
        <ele>155.2</ele>
        <time>2022-09-18T08:32:30Z</time>
      </trkpt>
      <trkpt lat="48.62981" lon="1.84774">
        <ele>155.4</ele>
        <time>2022-09-18T08:32:32Z</time>
      </trkpt>
      <trkpt lat="48.62984" lon="1.84791">
        <ele>155.4</ele>
        <time>2022-09-18T08:32:35Z</time>
      </trkpt>
      <trkpt lat="48.62987" lon="1.84804">
        <ele>155.5</ele>
        <time>2022-09-18T08:32:37Z</time>
      </trkpt>
      <trkpt lat="48.6299" lon="1.84817">
        <ele>155.6</ele>
        <time>2022-09-18T08:32:39Z</time>
      </trkpt>
      <trkpt lat="48.62995" lon="1.8483">
        <ele>155.8</ele>
        <time>2022-09-18T08:32:41Z</time>
      </trkpt>
      <trkpt lat="48.62999" lon="1.84846">
        <ele>155.5</ele>
        <time>2022-09-18T08:32:44Z</time>
      </trkpt>
      <trkpt lat="48.63004" lon="1.84863">
        <ele>155.3</ele>
        <time>2022-09-18T08:32:47Z</time>
      </trkpt>
      <trkpt lat="48.63011" lon="1.84876">
        <ele>155.6</ele>
        <time>2022-09-18T08:32:49Z</time>
      </trkpt>
      <trkpt lat="48.63018" lon="1.84886">
        <ele>155.7</ele>
        <time>2022-09-18T08:32:50Z</time>
      </trkpt>
      <trkpt lat="48.63025" lon="1.84901">
        <ele>155.9</ele>
        <time>2022-09-18T08:32:52Z</time>
      </trkpt>
      <trkpt lat="48.63032" lon="1.84913">
        <ele>156.2</ele>
        <time>2022-09-18T08:32:54Z</time>
      </trkpt>
      <trkpt lat="48.63038" lon="1.84926">
        <ele>156.1</ele>
        <time>2022-09-18T08:32:56Z</time>
      </trkpt>
      <trkpt lat="48.63043" lon="1.84938">
        <ele>156.2</ele>
        <time>2022-09-18T08:32:58Z</time>
      </trkpt>
      <trkpt lat="48.63047" lon="1.84955">
        <ele>156.1</ele>
        <time>2022-09-18T08:33:01Z</time>
      </trkpt>
      <trkpt lat="48.63053" lon="1.8497">
        <ele>156</ele>
        <time>2022-09-18T08:33:03Z</time>
      </trkpt>
      <trkpt lat="48.63059" lon="1.84988">
        <ele>155.7</ele>
        <time>2022-09-18T08:33:06Z</time>
      </trkpt>
      <trkpt lat="48.63066" lon="1.84998">
        <ele>155.8</ele>
        <time>2022-09-18T08:33:08Z</time>
      </trkpt>
      <trkpt lat="48.63074" lon="1.85006">
        <ele>156.2</ele>
        <time>2022-09-18T08:33:11Z</time>
      </trkpt>
      <trkpt lat="48.63082" lon="1.85014">
        <ele>156.4</ele>
        <time>2022-09-18T08:33:16Z</time>
      </trkpt>
      <trkpt lat="48.63091" lon="1.8502">
        <ele>156.3</ele>
        <time>2022-09-18T08:33:22Z</time>
      </trkpt>
      <trkpt lat="48.63085" lon="1.85031">
        <ele>155.9</ele>
        <time>2022-09-18T08:33:36Z</time>
      </trkpt>
      <trkpt lat="48.63079" lon="1.85041">
        <ele>155.5</ele>
        <time>2022-09-18T08:33:39Z</time>
      </trkpt>
      <trkpt lat="48.63073" lon="1.85053">
        <ele>155.4</ele>
        <time>2022-09-18T08:33:41Z</time>
      </trkpt>
      <trkpt lat="48.63065" lon="1.85065">
        <ele>155.9</ele>
        <time>2022-09-18T08:33:44Z</time>
      </trkpt>
      <trkpt lat="48.63057" lon="1.85076">
        <ele>156.6</ele>
        <time>2022-09-18T08:33:47Z</time>
      </trkpt>
      <trkpt lat="48.63056" lon="1.85091">
        <ele>157.3</ele>
        <time>2022-09-18T08:33:50Z</time>
      </trkpt>
      <trkpt lat="48.63061" lon="1.85102">
        <ele>157.4</ele>
        <time>2022-09-18T08:33:52Z</time>
      </trkpt>
      <trkpt lat="48.63061" lon="1.85116">
        <ele>157.9</ele>
        <time>2022-09-18T08:33:55Z</time>
      </trkpt>
      <trkpt lat="48.63066" lon="1.85129">
        <ele>158</ele>
        <time>2022-09-18T08:33:58Z</time>
      </trkpt>
      <trkpt lat="48.6307" lon="1.85142">
        <ele>158</ele>
        <time>2022-09-18T08:34:01Z</time>
      </trkpt>
      <trkpt lat="48.63077" lon="1.85156">
        <ele>157.9</ele>
        <time>2022-09-18T08:34:04Z</time>
      </trkpt>
      <trkpt lat="48.63083" lon="1.85168">
        <ele>158</ele>
        <time>2022-09-18T08:34:08Z</time>
      </trkpt>
      <trkpt lat="48.63089" lon="1.85181">
        <ele>157.7</ele>
        <time>2022-09-18T08:34:12Z</time>
      </trkpt>
      <trkpt lat="48.63095" lon="1.85194">
        <ele>157.6</ele>
        <time>2022-09-18T08:34:15Z</time>
      </trkpt>
      <trkpt lat="48.631" lon="1.8521">
        <ele>157.9</ele>
        <time>2022-09-18T08:34:18Z</time>
      </trkpt>
      <trkpt lat="48.63106" lon="1.8522">
        <ele>158.1</ele>
        <time>2022-09-18T08:34:20Z</time>
      </trkpt>
      <trkpt lat="48.63113" lon="1.85232">
        <ele>157.9</ele>
        <time>2022-09-18T08:34:22Z</time>
      </trkpt>
      <trkpt lat="48.63119" lon="1.85249">
        <ele>157.4</ele>
        <time>2022-09-18T08:34:25Z</time>
      </trkpt>
      <trkpt lat="48.63126" lon="1.85261">
        <ele>157.4</ele>
        <time>2022-09-18T08:34:27Z</time>
      </trkpt>
      <trkpt lat="48.63129" lon="1.85274">
        <ele>157.6</ele>
        <time>2022-09-18T08:34:29Z</time>
      </trkpt>
      <trkpt lat="48.63134" lon="1.85289">
        <ele>157.7</ele>
        <time>2022-09-18T08:34:31Z</time>
      </trkpt>
      <trkpt lat="48.63138" lon="1.85302">
        <ele>157.9</ele>
        <time>2022-09-18T08:34:33Z</time>
      </trkpt>
      <trkpt lat="48.63143" lon="1.85315">
        <ele>157.4</ele>
        <time>2022-09-18T08:34:35Z</time>
      </trkpt>
      <trkpt lat="48.63147" lon="1.8533">
        <ele>156.8</ele>
        <time>2022-09-18T08:34:37Z</time>
      </trkpt>
      <trkpt lat="48.63152" lon="1.85343">
        <ele>156.3</ele>
        <time>2022-09-18T08:34:39Z</time>
      </trkpt>
      <trkpt lat="48.63157" lon="1.85358">
        <ele>156</ele>
        <time>2022-09-18T08:34:41Z</time>
      </trkpt>
      <trkpt lat="48.63162" lon="1.85372">
        <ele>156.5</ele>
        <time>2022-09-18T08:34:43Z</time>
      </trkpt>
      <trkpt lat="48.63167" lon="1.85386">
        <ele>156.9</ele>
        <time>2022-09-18T08:34:45Z</time>
      </trkpt>
      <trkpt lat="48.63173" lon="1.854">
        <ele>157.1</ele>
        <time>2022-09-18T08:34:48Z</time>
      </trkpt>
      <trkpt lat="48.63181" lon="1.85417">
        <ele>157</ele>
        <time>2022-09-18T08:34:51Z</time>
      </trkpt>
      <trkpt lat="48.63189" lon="1.85429">
        <ele>156.9</ele>
        <time>2022-09-18T08:34:53Z</time>
      </trkpt>
      <trkpt lat="48.63196" lon="1.85442">
        <ele>156.9</ele>
        <time>2022-09-18T08:34:55Z</time>
      </trkpt>
      <trkpt lat="48.63201" lon="1.85456">
        <ele>157.1</ele>
        <time>2022-09-18T08:34:57Z</time>
      </trkpt>
      <trkpt lat="48.63207" lon="1.85471">
        <ele>157.1</ele>
        <time>2022-09-18T08:34:59Z</time>
      </trkpt>
      <trkpt lat="48.63212" lon="1.85485">
        <ele>157.2</ele>
        <time>2022-09-18T08:35:01Z</time>
      </trkpt>
      <trkpt lat="48.63218" lon="1.85498">
        <ele>157.2</ele>
        <time>2022-09-18T08:35:03Z</time>
      </trkpt>
      <trkpt lat="48.63224" lon="1.85509">
        <ele>157.2</ele>
        <time>2022-09-18T08:35:05Z</time>
      </trkpt>
      <trkpt lat="48.6323" lon="1.8552">
        <ele>157.2</ele>
        <time>2022-09-18T08:35:07Z</time>
      </trkpt>
      <trkpt lat="48.63236" lon="1.85531">
        <ele>157.2</ele>
        <time>2022-09-18T08:35:09Z</time>
      </trkpt>
      <trkpt lat="48.63242" lon="1.85542">
        <ele>157.2</ele>
        <time>2022-09-18T08:35:11Z</time>
      </trkpt>
      <trkpt lat="48.6325" lon="1.85552">
        <ele>156.9</ele>
        <time>2022-09-18T08:35:13Z</time>
      </trkpt>
      <trkpt lat="48.63257" lon="1.85561">
        <ele>157</ele>
        <time>2022-09-18T08:35:15Z</time>
      </trkpt>
      <trkpt lat="48.63265" lon="1.85574">
        <ele>157.1</ele>
        <time>2022-09-18T08:35:17Z</time>
      </trkpt>
      <trkpt lat="48.63272" lon="1.85585">
        <ele>156.8</ele>
        <time>2022-09-18T08:35:19Z</time>
      </trkpt>
      <trkpt lat="48.63285" lon="1.85593">
        <ele>156.5</ele>
        <time>2022-09-18T08:35:21Z</time>
      </trkpt>
      <trkpt lat="48.63295" lon="1.85605">
        <ele>156.6</ele>
        <time>2022-09-18T08:35:23Z</time>
      </trkpt>
      <trkpt lat="48.63303" lon="1.85617">
        <ele>156.3</ele>
        <time>2022-09-18T08:35:25Z</time>
      </trkpt>
      <trkpt lat="48.63306" lon="1.85631">
        <ele>156.7</ele>
        <time>2022-09-18T08:35:27Z</time>
      </trkpt>
      <trkpt lat="48.6331" lon="1.85644">
        <ele>156.9</ele>
        <time>2022-09-18T08:35:29Z</time>
      </trkpt>
      <trkpt lat="48.63319" lon="1.85658">
        <ele>156.8</ele>
        <time>2022-09-18T08:35:32Z</time>
      </trkpt>
      <trkpt lat="48.63328" lon="1.8567">
        <ele>157.1</ele>
        <time>2022-09-18T08:35:35Z</time>
      </trkpt>
      <trkpt lat="48.6334" lon="1.85674">
        <ele>157.3</ele>
        <time>2022-09-18T08:35:39Z</time>
      </trkpt>
      <trkpt lat="48.63351" lon="1.85668">
        <ele>157.1</ele>
        <time>2022-09-18T08:35:42Z</time>
      </trkpt>
      <trkpt lat="48.63366" lon="1.85661">
        <ele>157</ele>
        <time>2022-09-18T08:35:44Z</time>
      </trkpt>
      <trkpt lat="48.63378" lon="1.85661">
        <ele>156.9</ele>
        <time>2022-09-18T08:35:46Z</time>
      </trkpt>
      <trkpt lat="48.63387" lon="1.8566">
        <ele>156.8</ele>
        <time>2022-09-18T08:35:48Z</time>
      </trkpt>
      <trkpt lat="48.63396" lon="1.85662">
        <ele>156.8</ele>
        <time>2022-09-18T08:35:50Z</time>
      </trkpt>
      <trkpt lat="48.63408" lon="1.85666">
        <ele>157</ele>
        <time>2022-09-18T08:35:53Z</time>
      </trkpt>
      <trkpt lat="48.63417" lon="1.85667">
        <ele>157</ele>
        <time>2022-09-18T08:35:55Z</time>
      </trkpt>
      <trkpt lat="48.63429" lon="1.85669">
        <ele>156.7</ele>
        <time>2022-09-18T08:35:58Z</time>
      </trkpt>
      <trkpt lat="48.63439" lon="1.85676">
        <ele>156.8</ele>
        <time>2022-09-18T08:36:01Z</time>
      </trkpt>
      <trkpt lat="48.63451" lon="1.85678">
        <ele>156.9</ele>
        <time>2022-09-18T08:36:04Z</time>
      </trkpt>
      <trkpt lat="48.63462" lon="1.85681">
        <ele>157</ele>
        <time>2022-09-18T08:36:06Z</time>
      </trkpt>
      <trkpt lat="48.63474" lon="1.85691">
        <ele>157</ele>
        <time>2022-09-18T08:36:09Z</time>
      </trkpt>
      <trkpt lat="48.63484" lon="1.85689">
        <ele>157</ele>
        <time>2022-09-18T08:36:10Z</time>
      </trkpt>
      <trkpt lat="48.63491" lon="1.85697">
        <ele>157</ele>
        <time>2022-09-18T08:36:12Z</time>
      </trkpt>
      <trkpt lat="48.63501" lon="1.85707">
        <ele>157</ele>
        <time>2022-09-18T08:36:15Z</time>
      </trkpt>
      <trkpt lat="48.6351" lon="1.8571">
        <ele>157</ele>
        <time>2022-09-18T08:36:18Z</time>
      </trkpt>
      <trkpt lat="48.63519" lon="1.85712">
        <ele>157</ele>
        <time>2022-09-18T08:36:21Z</time>
      </trkpt>
      <trkpt lat="48.63531" lon="1.85714">
        <ele>157.1</ele>
        <time>2022-09-18T08:36:23Z</time>
      </trkpt>
      <trkpt lat="48.63544" lon="1.85712">
        <ele>157.4</ele>
        <time>2022-09-18T08:36:26Z</time>
      </trkpt>
      <trkpt lat="48.63554" lon="1.85708">
        <ele>157.5</ele>
        <time>2022-09-18T08:36:29Z</time>
      </trkpt>
      <trkpt lat="48.63567" lon="1.85706">
        <ele>157.4</ele>
        <time>2022-09-18T08:36:32Z</time>
      </trkpt>
      <trkpt lat="48.63576" lon="1.85709">
        <ele>157.5</ele>
        <time>2022-09-18T08:36:34Z</time>
      </trkpt>
      <trkpt lat="48.63585" lon="1.85718">
        <ele>157.9</ele>
        <time>2022-09-18T08:36:36Z</time>
      </trkpt>
      <trkpt lat="48.63589" lon="1.85735">
        <ele>158</ele>
        <time>2022-09-18T08:36:39Z</time>
      </trkpt>
      <trkpt lat="48.63599" lon="1.8574">
        <ele>158</ele>
        <time>2022-09-18T08:36:42Z</time>
      </trkpt>
      <trkpt lat="48.63611" lon="1.85737">
        <ele>158</ele>
        <time>2022-09-18T08:36:45Z</time>
      </trkpt>
      <trkpt lat="48.63621" lon="1.85737">
        <ele>157.7</ele>
        <time>2022-09-18T08:36:47Z</time>
      </trkpt>
      <trkpt lat="48.63632" lon="1.85742">
        <ele>157.3</ele>
        <time>2022-09-18T08:36:50Z</time>
      </trkpt>
      <trkpt lat="48.63643" lon="1.85748">
        <ele>157</ele>
        <time>2022-09-18T08:36:53Z</time>
      </trkpt>
      <trkpt lat="48.63655" lon="1.85755">
        <ele>157</ele>
        <time>2022-09-18T08:36:56Z</time>
      </trkpt>
      <trkpt lat="48.63665" lon="1.8576">
        <ele>157</ele>
        <time>2022-09-18T08:36:58Z</time>
      </trkpt>
      <trkpt lat="48.63676" lon="1.85763">
        <ele>157.2</ele>
        <time>2022-09-18T08:37:00Z</time>
      </trkpt>
      <trkpt lat="48.63691" lon="1.85772">
        <ele>157.7</ele>
        <time>2022-09-18T08:37:03Z</time>
      </trkpt>
      <trkpt lat="48.63701" lon="1.85773">
        <ele>157.8</ele>
        <time>2022-09-18T08:37:04Z</time>
      </trkpt>
      <trkpt lat="48.63715" lon="1.85773">
        <ele>157.8</ele>
        <time>2022-09-18T08:37:07Z</time>
      </trkpt>
      <trkpt lat="48.63727" lon="1.85775">
        <ele>157.9</ele>
        <time>2022-09-18T08:37:10Z</time>
      </trkpt>
      <trkpt lat="48.63739" lon="1.85777">
        <ele>158</ele>
        <time>2022-09-18T08:37:13Z</time>
      </trkpt>
      <trkpt lat="48.6375" lon="1.85779">
        <ele>158.1</ele>
        <time>2022-09-18T08:37:16Z</time>
      </trkpt>
      <trkpt lat="48.63759" lon="1.85783">
        <ele>158.1</ele>
        <time>2022-09-18T08:37:19Z</time>
      </trkpt>
      <trkpt lat="48.63769" lon="1.85786">
        <ele>158.1</ele>
        <time>2022-09-18T08:37:22Z</time>
      </trkpt>
      <trkpt lat="48.63782" lon="1.85787">
        <ele>157.9</ele>
        <time>2022-09-18T08:37:25Z</time>
      </trkpt>
      <trkpt lat="48.63792" lon="1.85785">
        <ele>157.7</ele>
        <time>2022-09-18T08:37:27Z</time>
      </trkpt>
      <trkpt lat="48.63804" lon="1.85785">
        <ele>157.5</ele>
        <time>2022-09-18T08:37:30Z</time>
      </trkpt>
      <trkpt lat="48.63815" lon="1.85786">
        <ele>157.5</ele>
        <time>2022-09-18T08:37:34Z</time>
      </trkpt>
      <trkpt lat="48.63846" lon="1.85802">
        <ele>157.9</ele>
        <time>2022-09-18T08:37:37Z</time>
      </trkpt>
      <trkpt lat="48.63855" lon="1.85809">
        <ele>158.2</ele>
        <time>2022-09-18T08:37:39Z</time>
      </trkpt>
      <trkpt lat="48.63868" lon="1.85809">
        <ele>158.2</ele>
        <time>2022-09-18T08:37:41Z</time>
      </trkpt>
      <trkpt lat="48.63878" lon="1.85811">
        <ele>158.3</ele>
        <time>2022-09-18T08:37:43Z</time>
      </trkpt>
      <trkpt lat="48.63891" lon="1.85811">
        <ele>158.2</ele>
        <time>2022-09-18T08:37:46Z</time>
      </trkpt>
      <trkpt lat="48.63905" lon="1.85812">
        <ele>158.2</ele>
        <time>2022-09-18T08:37:48Z</time>
      </trkpt>
      <trkpt lat="48.63916" lon="1.85813">
        <ele>158.3</ele>
        <time>2022-09-18T08:37:50Z</time>
      </trkpt>
      <trkpt lat="48.63927" lon="1.85815">
        <ele>158.2</ele>
        <time>2022-09-18T08:37:52Z</time>
      </trkpt>
      <trkpt lat="48.63936" lon="1.85817">
        <ele>158.1</ele>
        <time>2022-09-18T08:37:54Z</time>
      </trkpt>
      <trkpt lat="48.63949" lon="1.85819">
        <ele>158</ele>
        <time>2022-09-18T08:37:57Z</time>
      </trkpt>
      <trkpt lat="48.63958" lon="1.8582">
        <ele>158</ele>
        <time>2022-09-18T08:37:59Z</time>
      </trkpt>
      <trkpt lat="48.63967" lon="1.85824">
        <ele>158</ele>
        <time>2022-09-18T08:38:01Z</time>
      </trkpt>
      <trkpt lat="48.63978" lon="1.85826">
        <ele>158</ele>
        <time>2022-09-18T08:38:03Z</time>
      </trkpt>
      <trkpt lat="48.63989" lon="1.85829">
        <ele>158</ele>
        <time>2022-09-18T08:38:05Z</time>
      </trkpt>
      <trkpt lat="48.64002" lon="1.85831">
        <ele>158</ele>
        <time>2022-09-18T08:38:08Z</time>
      </trkpt>
      <trkpt lat="48.64016" lon="1.85836">
        <ele>158.1</ele>
        <time>2022-09-18T08:38:11Z</time>
      </trkpt>
      <trkpt lat="48.64027" lon="1.85842">
        <ele>158.3</ele>
        <time>2022-09-18T08:38:13Z</time>
      </trkpt>
      <trkpt lat="48.64037" lon="1.85845">
        <ele>158.3</ele>
        <time>2022-09-18T08:38:15Z</time>
      </trkpt>
      <trkpt lat="48.64047" lon="1.85852">
        <ele>158.2</ele>
        <time>2022-09-18T08:38:18Z</time>
      </trkpt>
      <trkpt lat="48.64058" lon="1.85855">
        <ele>158</ele>
        <time>2022-09-18T08:38:20Z</time>
      </trkpt>
      <trkpt lat="48.64069" lon="1.8586">
        <ele>158</ele>
        <time>2022-09-18T08:38:22Z</time>
      </trkpt>
      <trkpt lat="48.6408" lon="1.85864">
        <ele>158.1</ele>
        <time>2022-09-18T08:38:24Z</time>
      </trkpt>
      <trkpt lat="48.64092" lon="1.8587">
        <ele>158.5</ele>
        <time>2022-09-18T08:38:27Z</time>
      </trkpt>
      <trkpt lat="48.64103" lon="1.85878">
        <ele>158.9</ele>
        <time>2022-09-18T08:38:30Z</time>
      </trkpt>
      <trkpt lat="48.64113" lon="1.85887">
        <ele>159</ele>
        <time>2022-09-18T08:38:34Z</time>
      </trkpt>
      <trkpt lat="48.64123" lon="1.85897">
        <ele>159.2</ele>
        <time>2022-09-18T08:38:38Z</time>
      </trkpt>
      <trkpt lat="48.64133" lon="1.85904">
        <ele>159.1</ele>
        <time>2022-09-18T08:38:40Z</time>
      </trkpt>
      <trkpt lat="48.64143" lon="1.85908">
        <ele>159</ele>
        <time>2022-09-18T08:38:42Z</time>
      </trkpt>
      <trkpt lat="48.64153" lon="1.85912">
        <ele>159</ele>
        <time>2022-09-18T08:38:44Z</time>
      </trkpt>
      <trkpt lat="48.64163" lon="1.85918">
        <ele>159</ele>
        <time>2022-09-18T08:38:46Z</time>
      </trkpt>
      <trkpt lat="48.64171" lon="1.85924">
        <ele>159.2</ele>
        <time>2022-09-18T08:38:49Z</time>
      </trkpt>
      <trkpt lat="48.64179" lon="1.85934">
        <ele>160</ele>
        <time>2022-09-18T08:38:52Z</time>
      </trkpt>
      <trkpt lat="48.64187" lon="1.85947">
        <ele>161.3</ele>
        <time>2022-09-18T08:38:55Z</time>
      </trkpt>
      <trkpt lat="48.64192" lon="1.8596">
        <ele>160.4</ele>
        <time>2022-09-18T08:38:57Z</time>
      </trkpt>
      <trkpt lat="48.64196" lon="1.85977">
        <ele>159.5</ele>
        <time>2022-09-18T08:39:00Z</time>
      </trkpt>
      <trkpt lat="48.64202" lon="1.8599">
        <ele>160.8</ele>
        <time>2022-09-18T08:39:06Z</time>
      </trkpt>
      <trkpt lat="48.64208" lon="1.86002">
        <ele>161.5</ele>
        <time>2022-09-18T08:39:13Z</time>
      </trkpt>
      <trkpt lat="48.6421" lon="1.86017">
        <ele>161.7</ele>
        <time>2022-09-18T08:39:17Z</time>
      </trkpt>
      <trkpt lat="48.64212" lon="1.86031">
        <ele>161.7</ele>
        <time>2022-09-18T08:39:19Z</time>
      </trkpt>
      <trkpt lat="48.64214" lon="1.86047">
        <ele>161.3</ele>
        <time>2022-09-18T08:39:21Z</time>
      </trkpt>
      <trkpt lat="48.64219" lon="1.86064">
        <ele>161.3</ele>
        <time>2022-09-18T08:39:23Z</time>
      </trkpt>
      <trkpt lat="48.64225" lon="1.8608">
        <ele>162.3</ele>
        <time>2022-09-18T08:39:25Z</time>
      </trkpt>
      <trkpt lat="48.64228" lon="1.86096">
        <ele>162.8</ele>
        <time>2022-09-18T08:39:27Z</time>
      </trkpt>
      <trkpt lat="48.64232" lon="1.8611">
        <ele>162.9</ele>
        <time>2022-09-18T08:39:29Z</time>
      </trkpt>
      <trkpt lat="48.64237" lon="1.86128">
        <ele>162.1</ele>
        <time>2022-09-18T08:39:32Z</time>
      </trkpt>
      <trkpt lat="48.64243" lon="1.86143">
        <ele>161</ele>
        <time>2022-09-18T08:39:35Z</time>
      </trkpt>
      <trkpt lat="48.64248" lon="1.86155">
        <ele>160.7</ele>
        <time>2022-09-18T08:39:37Z</time>
      </trkpt>
      <trkpt lat="48.64253" lon="1.86167">
        <ele>160.8</ele>
        <time>2022-09-18T08:39:39Z</time>
      </trkpt>
      <trkpt lat="48.6426" lon="1.86179">
        <ele>161.1</ele>
        <time>2022-09-18T08:39:41Z</time>
      </trkpt>
      <trkpt lat="48.64267" lon="1.86192">
        <ele>160.9</ele>
        <time>2022-09-18T08:39:44Z</time>
      </trkpt>
      <trkpt lat="48.64275" lon="1.86204">
        <ele>160.6</ele>
        <time>2022-09-18T08:39:47Z</time>
      </trkpt>
      <trkpt lat="48.64284" lon="1.86213">
        <ele>160.6</ele>
        <time>2022-09-18T08:39:50Z</time>
      </trkpt>
      <trkpt lat="48.64294" lon="1.8622">
        <ele>160.2</ele>
        <time>2022-09-18T08:39:52Z</time>
      </trkpt>
      <trkpt lat="48.643" lon="1.86235">
        <ele>160.3</ele>
        <time>2022-09-18T08:39:55Z</time>
      </trkpt>
      <trkpt lat="48.64306" lon="1.86251">
        <ele>160</ele>
        <time>2022-09-18T08:39:58Z</time>
      </trkpt>
      <trkpt lat="48.64314" lon="1.86263">
        <ele>160.3</ele>
        <time>2022-09-18T08:40:01Z</time>
      </trkpt>
      <trkpt lat="48.6432" lon="1.86273">
        <ele>160.3</ele>
        <time>2022-09-18T08:40:04Z</time>
      </trkpt>
      <trkpt lat="48.64327" lon="1.86287">
        <ele>160.1</ele>
        <time>2022-09-18T08:40:07Z</time>
      </trkpt>
      <trkpt lat="48.64332" lon="1.86301">
        <ele>160.1</ele>
        <time>2022-09-18T08:40:10Z</time>
      </trkpt>
      <trkpt lat="48.64337" lon="1.86318">
        <ele>160.7</ele>
        <time>2022-09-18T08:40:13Z</time>
      </trkpt>
      <trkpt lat="48.64343" lon="1.86334">
        <ele>161</ele>
        <time>2022-09-18T08:40:16Z</time>
      </trkpt>
      <trkpt lat="48.64351" lon="1.8635">
        <ele>160.6</ele>
        <time>2022-09-18T08:40:19Z</time>
      </trkpt>
      <trkpt lat="48.64357" lon="1.86361">
        <ele>159.7</ele>
        <time>2022-09-18T08:40:21Z</time>
      </trkpt>
      <trkpt lat="48.64365" lon="1.86372">
        <ele>159.4</ele>
        <time>2022-09-18T08:40:24Z</time>
      </trkpt>
      <trkpt lat="48.64369" lon="1.86386">
        <ele>159.7</ele>
        <time>2022-09-18T08:40:27Z</time>
      </trkpt>
      <trkpt lat="48.64374" lon="1.86405">
        <ele>160.2</ele>
        <time>2022-09-18T08:40:30Z</time>
      </trkpt>
      <trkpt lat="48.64377" lon="1.8642">
        <ele>160.3</ele>
        <time>2022-09-18T08:40:33Z</time>
      </trkpt>
      <trkpt lat="48.64378" lon="1.86434">
        <ele>160.4</ele>
        <time>2022-09-18T08:40:39Z</time>
      </trkpt>
      <trkpt lat="48.64379" lon="1.86453">
        <ele>160.3</ele>
        <time>2022-09-18T08:40:43Z</time>
      </trkpt>
      <trkpt lat="48.6438" lon="1.86475">
        <ele>159.7</ele>
        <time>2022-09-18T08:40:46Z</time>
      </trkpt>
      <trkpt lat="48.64382" lon="1.86496">
        <ele>160.1</ele>
        <time>2022-09-18T08:40:49Z</time>
      </trkpt>
      <trkpt lat="48.64388" lon="1.86512">
        <ele>160.4</ele>
        <time>2022-09-18T08:40:51Z</time>
      </trkpt>
      <trkpt lat="48.64395" lon="1.86525">
        <ele>161.2</ele>
        <time>2022-09-18T08:40:53Z</time>
      </trkpt>
      <trkpt lat="48.64403" lon="1.86541">
        <ele>160.8</ele>
        <time>2022-09-18T08:40:56Z</time>
      </trkpt>
      <trkpt lat="48.64412" lon="1.86547">
        <ele>160.1</ele>
        <time>2022-09-18T08:40:59Z</time>
      </trkpt>
      <trkpt lat="48.64422" lon="1.86548">
        <ele>159.7</ele>
        <time>2022-09-18T08:41:01Z</time>
      </trkpt>
      <trkpt lat="48.64437" lon="1.86545">
        <ele>159.6</ele>
        <time>2022-09-18T08:41:04Z</time>
      </trkpt>
      <trkpt lat="48.64449" lon="1.86541">
        <ele>159.5</ele>
        <time>2022-09-18T08:41:06Z</time>
      </trkpt>
      <trkpt lat="48.64459" lon="1.86545">
        <ele>159.6</ele>
        <time>2022-09-18T08:41:08Z</time>
      </trkpt>
      <trkpt lat="48.64469" lon="1.86546">
        <ele>159.6</ele>
        <time>2022-09-18T08:41:10Z</time>
      </trkpt>
      <trkpt lat="48.6448" lon="1.86545">
        <ele>159.8</ele>
        <time>2022-09-18T08:41:12Z</time>
      </trkpt>
      <trkpt lat="48.6449" lon="1.86546">
        <ele>160.1</ele>
        <time>2022-09-18T08:41:14Z</time>
      </trkpt>
      <trkpt lat="48.645" lon="1.86548">
        <ele>160.4</ele>
        <time>2022-09-18T08:41:16Z</time>
      </trkpt>
      <trkpt lat="48.64509" lon="1.86546">
        <ele>160.3</ele>
        <time>2022-09-18T08:41:18Z</time>
      </trkpt>
      <trkpt lat="48.64522" lon="1.86549">
        <ele>160.5</ele>
        <time>2022-09-18T08:41:21Z</time>
      </trkpt>
      <trkpt lat="48.64533" lon="1.86551">
        <ele>160.5</ele>
        <time>2022-09-18T08:41:23Z</time>
      </trkpt>
      <trkpt lat="48.64544" lon="1.86557">
        <ele>160.5</ele>
        <time>2022-09-18T08:41:26Z</time>
      </trkpt>
      <trkpt lat="48.64555" lon="1.86558">
        <ele>160.2</ele>
        <time>2022-09-18T08:41:28Z</time>
      </trkpt>
      <trkpt lat="48.64567" lon="1.86566">
        <ele>160</ele>
        <time>2022-09-18T08:41:31Z</time>
      </trkpt>
      <trkpt lat="48.64576" lon="1.86582">
        <ele>159.8</ele>
        <time>2022-09-18T08:41:34Z</time>
      </trkpt>
      <trkpt lat="48.64585" lon="1.86596">
        <ele>160.3</ele>
        <time>2022-09-18T08:41:36Z</time>
      </trkpt>
      <trkpt lat="48.64593" lon="1.8661">
        <ele>160.9</ele>
        <time>2022-09-18T08:41:39Z</time>
      </trkpt>
      <trkpt lat="48.64596" lon="1.86622">
        <ele>161</ele>
        <time>2022-09-18T08:41:41Z</time>
      </trkpt>
      <trkpt lat="48.646" lon="1.86642">
        <ele>161.2</ele>
        <time>2022-09-18T08:41:44Z</time>
      </trkpt>
      <trkpt lat="48.64605" lon="1.86656">
        <ele>161.2</ele>
        <time>2022-09-18T08:41:46Z</time>
      </trkpt>
      <trkpt lat="48.64611" lon="1.86669">
        <ele>161.1</ele>
        <time>2022-09-18T08:41:48Z</time>
      </trkpt>
      <trkpt lat="48.64613" lon="1.86685">
        <ele>161.5</ele>
        <time>2022-09-18T08:41:51Z</time>
      </trkpt>
      <trkpt lat="48.64619" lon="1.86696">
        <ele>161.5</ele>
        <time>2022-09-18T08:41:53Z</time>
      </trkpt>
      <trkpt lat="48.64626" lon="1.86707">
        <ele>161.2</ele>
        <time>2022-09-18T08:41:55Z</time>
      </trkpt>
      <trkpt lat="48.64634" lon="1.86716">
        <ele>161</ele>
        <time>2022-09-18T08:41:57Z</time>
      </trkpt>
      <trkpt lat="48.64642" lon="1.86731">
        <ele>162.1</ele>
        <time>2022-09-18T08:42:00Z</time>
      </trkpt>
      <trkpt lat="48.64653" lon="1.86738">
        <ele>162</ele>
        <time>2022-09-18T08:42:03Z</time>
      </trkpt>
      <trkpt lat="48.64664" lon="1.86752">
        <ele>161.7</ele>
        <time>2022-09-18T08:42:06Z</time>
      </trkpt>
      <trkpt lat="48.64672" lon="1.8676">
        <ele>162</ele>
        <time>2022-09-18T08:42:08Z</time>
      </trkpt>
      <trkpt lat="48.64681" lon="1.86771">
        <ele>161.8</ele>
        <time>2022-09-18T08:42:11Z</time>
      </trkpt>
      <trkpt lat="48.64689" lon="1.86781">
        <ele>161.2</ele>
        <time>2022-09-18T08:42:13Z</time>
      </trkpt>
      <trkpt lat="48.64697" lon="1.86791">
        <ele>161.3</ele>
        <time>2022-09-18T08:42:15Z</time>
      </trkpt>
      <trkpt lat="48.64708" lon="1.86798">
        <ele>161.5</ele>
        <time>2022-09-18T08:42:17Z</time>
      </trkpt>
      <trkpt lat="48.64717" lon="1.86803">
        <ele>161.3</ele>
        <time>2022-09-18T08:42:19Z</time>
      </trkpt>
      <trkpt lat="48.64726" lon="1.86811">
        <ele>161.4</ele>
        <time>2022-09-18T08:42:21Z</time>
      </trkpt>
      <trkpt lat="48.64737" lon="1.86822">
        <ele>161.2</ele>
        <time>2022-09-18T08:42:24Z</time>
      </trkpt>
      <trkpt lat="48.64747" lon="1.86835">
        <ele>160.7</ele>
        <time>2022-09-18T08:42:27Z</time>
      </trkpt>
      <trkpt lat="48.64755" lon="1.86843">
        <ele>161.2</ele>
        <time>2022-09-18T08:42:29Z</time>
      </trkpt>
      <trkpt lat="48.64767" lon="1.86853">
        <ele>161.3</ele>
        <time>2022-09-18T08:42:32Z</time>
      </trkpt>
      <trkpt lat="48.64776" lon="1.86863">
        <ele>160.4</ele>
        <time>2022-09-18T08:42:35Z</time>
      </trkpt>
      <trkpt lat="48.64783" lon="1.86877">
        <ele>161</ele>
        <time>2022-09-18T08:42:39Z</time>
      </trkpt>
      <trkpt lat="48.64783" lon="1.86896">
        <ele>162.2</ele>
        <time>2022-09-18T08:42:42Z</time>
      </trkpt>
      <trkpt lat="48.6478" lon="1.8691">
        <ele>163.3</ele>
        <time>2022-09-18T08:42:45Z</time>
      </trkpt>
      <trkpt lat="48.64778" lon="1.86927">
        <ele>164.7</ele>
        <time>2022-09-18T08:42:49Z</time>
      </trkpt>
      <trkpt lat="48.64781" lon="1.86941">
        <ele>165.4</ele>
        <time>2022-09-18T08:42:53Z</time>
      </trkpt>
      <trkpt lat="48.64779" lon="1.86955">
        <ele>166.3</ele>
        <time>2022-09-18T08:42:57Z</time>
      </trkpt>
      <trkpt lat="48.64773" lon="1.86967">
        <ele>167</ele>
        <time>2022-09-18T08:43:02Z</time>
      </trkpt>
      <trkpt lat="48.64771" lon="1.86981">
        <ele>167.5</ele>
        <time>2022-09-18T08:43:07Z</time>
      </trkpt>
      <trkpt lat="48.64766" lon="1.86995">
        <ele>167.9</ele>
        <time>2022-09-18T08:43:11Z</time>
      </trkpt>
      <trkpt lat="48.6476" lon="1.87011">
        <ele>168.4</ele>
        <time>2022-09-18T08:43:15Z</time>
      </trkpt>
      <trkpt lat="48.64755" lon="1.87023">
        <ele>168.8</ele>
        <time>2022-09-18T08:43:18Z</time>
      </trkpt>
      <trkpt lat="48.6475" lon="1.8704">
        <ele>169</ele>
        <time>2022-09-18T08:43:21Z</time>
      </trkpt>
      <trkpt lat="48.64745" lon="1.87054">
        <ele>169</ele>
        <time>2022-09-18T08:43:24Z</time>
      </trkpt>
      <trkpt lat="48.64739" lon="1.87068">
        <ele>169</ele>
        <time>2022-09-18T08:43:27Z</time>
      </trkpt>
      <trkpt lat="48.64733" lon="1.87085">
        <ele>169</ele>
        <time>2022-09-18T08:43:31Z</time>
      </trkpt>
      <trkpt lat="48.64727" lon="1.87097">
        <ele>169</ele>
        <time>2022-09-18T08:43:34Z</time>
      </trkpt>
      <trkpt lat="48.64721" lon="1.8711">
        <ele>169</ele>
        <time>2022-09-18T08:43:36Z</time>
      </trkpt>
      <trkpt lat="48.64715" lon="1.87124">
        <ele>169.6</ele>
        <time>2022-09-18T08:43:39Z</time>
      </trkpt>
      <trkpt lat="48.64709" lon="1.87139">
        <ele>170</ele>
        <time>2022-09-18T08:43:42Z</time>
      </trkpt>
      <trkpt lat="48.64703" lon="1.87154">
        <ele>170</ele>
        <time>2022-09-18T08:43:45Z</time>
      </trkpt>
      <trkpt lat="48.64696" lon="1.87167">
        <ele>170</ele>
        <time>2022-09-18T08:43:48Z</time>
      </trkpt>
      <trkpt lat="48.64691" lon="1.87181">
        <ele>170</ele>
        <time>2022-09-18T08:43:51Z</time>
      </trkpt>
      <trkpt lat="48.64685" lon="1.87195">
        <ele>170</ele>
        <time>2022-09-18T08:43:54Z</time>
      </trkpt>
      <trkpt lat="48.64677" lon="1.87207">
        <ele>170</ele>
        <time>2022-09-18T08:43:57Z</time>
      </trkpt>
      <trkpt lat="48.64671" lon="1.87219">
        <ele>170</ele>
        <time>2022-09-18T08:44:00Z</time>
      </trkpt>
      <trkpt lat="48.64666" lon="1.87234">
        <ele>170</ele>
        <time>2022-09-18T08:44:03Z</time>
      </trkpt>
      <trkpt lat="48.64663" lon="1.87249">
        <ele>170.1</ele>
        <time>2022-09-18T08:44:06Z</time>
      </trkpt>
      <trkpt lat="48.64669" lon="1.87265">
        <ele>170</ele>
        <time>2022-09-18T08:44:09Z</time>
      </trkpt>
      <trkpt lat="48.64677" lon="1.87273">
        <ele>170</ele>
        <time>2022-09-18T08:44:11Z</time>
      </trkpt>
      <trkpt lat="48.64688" lon="1.87284">
        <ele>170.1</ele>
        <time>2022-09-18T08:44:14Z</time>
      </trkpt>
      <trkpt lat="48.64697" lon="1.87296">
        <ele>170</ele>
        <time>2022-09-18T08:44:17Z</time>
      </trkpt>
      <trkpt lat="48.64708" lon="1.87309">
        <ele>170.1</ele>
        <time>2022-09-18T08:44:20Z</time>
      </trkpt>
      <trkpt lat="48.64716" lon="1.87317">
        <ele>170.4</ele>
        <time>2022-09-18T08:44:22Z</time>
      </trkpt>
      <trkpt lat="48.64725" lon="1.87327">
        <ele>170.7</ele>
        <time>2022-09-18T08:44:25Z</time>
      </trkpt>
      <trkpt lat="48.64735" lon="1.87338">
        <ele>170.4</ele>
        <time>2022-09-18T08:44:28Z</time>
      </trkpt>
      <trkpt lat="48.64745" lon="1.8735">
        <ele>170.1</ele>
        <time>2022-09-18T08:44:31Z</time>
      </trkpt>
      <trkpt lat="48.64756" lon="1.87363">
        <ele>170</ele>
        <time>2022-09-18T08:44:34Z</time>
      </trkpt>
      <trkpt lat="48.64763" lon="1.87372">
        <ele>170</ele>
        <time>2022-09-18T08:44:36Z</time>
      </trkpt>
      <trkpt lat="48.64769" lon="1.87381">
        <ele>170</ele>
        <time>2022-09-18T08:44:38Z</time>
      </trkpt>
      <trkpt lat="48.64777" lon="1.8739">
        <ele>170</ele>
        <time>2022-09-18T08:44:40Z</time>
      </trkpt>
      <trkpt lat="48.64788" lon="1.87402">
        <ele>170</ele>
        <time>2022-09-18T08:44:43Z</time>
      </trkpt>
      <trkpt lat="48.64798" lon="1.87412">
        <ele>170</ele>
        <time>2022-09-18T08:44:45Z</time>
      </trkpt>
      <trkpt lat="48.64805" lon="1.8742">
        <ele>170</ele>
        <time>2022-09-18T08:44:47Z</time>
      </trkpt>
      <trkpt lat="48.64816" lon="1.87432">
        <ele>170</ele>
        <time>2022-09-18T08:44:50Z</time>
      </trkpt>
      <trkpt lat="48.64824" lon="1.87442">
        <ele>170</ele>
        <time>2022-09-18T08:44:52Z</time>
      </trkpt>
      <trkpt lat="48.64832" lon="1.87451">
        <ele>170</ele>
        <time>2022-09-18T08:44:54Z</time>
      </trkpt>
      <trkpt lat="48.64842" lon="1.87462">
        <ele>170</ele>
        <time>2022-09-18T08:44:56Z</time>
      </trkpt>
      <trkpt lat="48.64851" lon="1.8747">
        <ele>170</ele>
        <time>2022-09-18T08:44:58Z</time>
      </trkpt>
      <trkpt lat="48.6486" lon="1.87481">
        <ele>170</ele>
        <time>2022-09-18T08:45:01Z</time>
      </trkpt>
      <trkpt lat="48.64871" lon="1.87492">
        <ele>170</ele>
        <time>2022-09-18T08:45:05Z</time>
      </trkpt>
      <trkpt lat="48.64882" lon="1.87505">
        <ele>170</ele>
        <time>2022-09-18T08:45:07Z</time>
      </trkpt>
      <trkpt lat="48.6489" lon="1.87513">
        <ele>170</ele>
        <time>2022-09-18T08:45:09Z</time>
      </trkpt>
      <trkpt lat="48.64898" lon="1.87519">
        <ele>169.7</ele>
        <time>2022-09-18T08:45:11Z</time>
      </trkpt>
      <trkpt lat="48.64908" lon="1.87527">
        <ele>169.3</ele>
        <time>2022-09-18T08:45:13Z</time>
      </trkpt>
      <trkpt lat="48.64915" lon="1.87536">
        <ele>169</ele>
        <time>2022-09-18T08:45:15Z</time>
      </trkpt>
      <trkpt lat="48.64923" lon="1.87547">
        <ele>169</ele>
        <time>2022-09-18T08:45:17Z</time>
      </trkpt>
      <trkpt lat="48.64934" lon="1.87559">
        <ele>169</ele>
        <time>2022-09-18T08:45:19Z</time>
      </trkpt>
      <trkpt lat="48.64943" lon="1.87569">
        <ele>169</ele>
        <time>2022-09-18T08:45:21Z</time>
      </trkpt>
      <trkpt lat="48.64951" lon="1.87579">
        <ele>168.8</ele>
        <time>2022-09-18T08:45:23Z</time>
      </trkpt>
      <trkpt lat="48.64956" lon="1.87593">
        <ele>168.4</ele>
        <time>2022-09-18T08:45:25Z</time>
      </trkpt>
      <trkpt lat="48.64957" lon="1.87607">
        <ele>168.2</ele>
        <time>2022-09-18T08:45:27Z</time>
      </trkpt>
      <trkpt lat="48.64954" lon="1.87622">
        <ele>168.4</ele>
        <time>2022-09-18T08:45:29Z</time>
      </trkpt>
      <trkpt lat="48.64952" lon="1.87637">
        <ele>168.7</ele>
        <time>2022-09-18T08:45:31Z</time>
      </trkpt>
      <trkpt lat="48.64946" lon="1.87657">
        <ele>168.9</ele>
        <time>2022-09-18T08:45:34Z</time>
      </trkpt>
      <trkpt lat="48.64944" lon="1.87671">
        <ele>169</ele>
        <time>2022-09-18T08:45:36Z</time>
      </trkpt>
      <trkpt lat="48.6494" lon="1.87685">
        <ele>169</ele>
        <time>2022-09-18T08:45:38Z</time>
      </trkpt>
      <trkpt lat="48.64936" lon="1.87698">
        <ele>169</ele>
        <time>2022-09-18T08:45:40Z</time>
      </trkpt>
      <trkpt lat="48.64932" lon="1.87718">
        <ele>169</ele>
        <time>2022-09-18T08:45:43Z</time>
      </trkpt>
      <trkpt lat="48.64929" lon="1.87736">
        <ele>168.8</ele>
        <time>2022-09-18T08:45:45Z</time>
      </trkpt>
      <trkpt lat="48.64929" lon="1.87751">
        <ele>168.6</ele>
        <time>2022-09-18T08:45:47Z</time>
      </trkpt>
      <trkpt lat="48.6493" lon="1.87767">
        <ele>168.8</ele>
        <time>2022-09-18T08:45:49Z</time>
      </trkpt>
      <trkpt lat="48.6494" lon="1.87774">
        <ele>168.9</ele>
        <time>2022-09-18T08:45:51Z</time>
      </trkpt>
      <trkpt lat="48.64951" lon="1.87781">
        <ele>168.5</ele>
        <time>2022-09-18T08:45:53Z</time>
      </trkpt>
      <trkpt lat="48.64961" lon="1.87787">
        <ele>167.8</ele>
        <time>2022-09-18T08:45:55Z</time>
      </trkpt>
      <trkpt lat="48.64972" lon="1.87794">
        <ele>167</ele>
        <time>2022-09-18T08:45:57Z</time>
      </trkpt>
      <trkpt lat="48.64983" lon="1.87802">
        <ele>166.6</ele>
        <time>2022-09-18T08:45:59Z</time>
      </trkpt>
      <trkpt lat="48.64992" lon="1.8781">
        <ele>166.3</ele>
        <time>2022-09-18T08:46:01Z</time>
      </trkpt>
      <trkpt lat="48.65002" lon="1.87818">
        <ele>165.9</ele>
        <time>2022-09-18T08:46:03Z</time>
      </trkpt>
      <trkpt lat="48.65015" lon="1.87825">
        <ele>165.5</ele>
        <time>2022-09-18T08:46:05Z</time>
      </trkpt>
      <trkpt lat="48.65026" lon="1.87832">
        <ele>165.1</ele>
        <time>2022-09-18T08:46:07Z</time>
      </trkpt>
      <trkpt lat="48.65035" lon="1.8784">
        <ele>164.7</ele>
        <time>2022-09-18T08:46:09Z</time>
      </trkpt>
      <trkpt lat="48.65046" lon="1.87849">
        <ele>164.3</ele>
        <time>2022-09-18T08:46:11Z</time>
      </trkpt>
      <trkpt lat="48.65056" lon="1.87857">
        <ele>164</ele>
        <time>2022-09-18T08:46:13Z</time>
      </trkpt>
      <trkpt lat="48.65065" lon="1.87864">
        <ele>164.1</ele>
        <time>2022-09-18T08:46:15Z</time>
      </trkpt>
      <trkpt lat="48.65075" lon="1.87866">
        <ele>164.1</ele>
        <time>2022-09-18T08:46:17Z</time>
      </trkpt>
      <trkpt lat="48.65085" lon="1.8787">
        <ele>163.9</ele>
        <time>2022-09-18T08:46:19Z</time>
      </trkpt>
      <trkpt lat="48.65094" lon="1.87874">
        <ele>163.8</ele>
        <time>2022-09-18T08:46:21Z</time>
      </trkpt>
      <trkpt lat="48.65106" lon="1.87879">
        <ele>163.7</ele>
        <time>2022-09-18T08:46:24Z</time>
      </trkpt>
      <trkpt lat="48.65118" lon="1.87884">
        <ele>163.6</ele>
        <time>2022-09-18T08:46:27Z</time>
      </trkpt>
      <trkpt lat="48.65131" lon="1.87887">
        <ele>163.3</ele>
        <time>2022-09-18T08:46:29Z</time>
      </trkpt>
      <trkpt lat="48.65143" lon="1.87891">
        <ele>162.9</ele>
        <time>2022-09-18T08:46:31Z</time>
      </trkpt>
      <trkpt lat="48.65155" lon="1.87897">
        <ele>162.4</ele>
        <time>2022-09-18T08:46:33Z</time>
      </trkpt>
      <trkpt lat="48.65169" lon="1.87902">
        <ele>161.9</ele>
        <time>2022-09-18T08:46:35Z</time>
      </trkpt>
      <trkpt lat="48.65182" lon="1.87906">
        <ele>161.4</ele>
        <time>2022-09-18T08:46:37Z</time>
      </trkpt>
      <trkpt lat="48.65194" lon="1.8791">
        <ele>161</ele>
        <time>2022-09-18T08:46:39Z</time>
      </trkpt>
      <trkpt lat="48.65209" lon="1.87911">
        <ele>161.9</ele>
        <time>2022-09-18T08:46:41Z</time>
      </trkpt>
      <trkpt lat="48.6522" lon="1.87913">
        <ele>162.7</ele>
        <time>2022-09-18T08:46:44Z</time>
      </trkpt>
      <trkpt lat="48.65229" lon="1.87919">
        <ele>164.1</ele>
        <time>2022-09-18T08:46:48Z</time>
      </trkpt>
      <trkpt lat="48.65241" lon="1.87923">
        <ele>165.9</ele>
        <time>2022-09-18T08:46:53Z</time>
      </trkpt>
      <trkpt lat="48.65251" lon="1.87924">
        <ele>167.3</ele>
        <time>2022-09-18T08:46:57Z</time>
      </trkpt>
      <trkpt lat="48.65261" lon="1.87924">
        <ele>167.6</ele>
        <time>2022-09-18T08:47:02Z</time>
      </trkpt>
      <trkpt lat="48.65268" lon="1.87934">
        <ele>167.9</ele>
        <time>2022-09-18T08:47:07Z</time>
      </trkpt>
      <trkpt lat="48.65277" lon="1.87945">
        <ele>168</ele>
        <time>2022-09-18T08:47:11Z</time>
      </trkpt>
      <trkpt lat="48.65286" lon="1.87952">
        <ele>168.2</ele>
        <time>2022-09-18T08:47:14Z</time>
      </trkpt>
      <trkpt lat="48.65294" lon="1.87961">
        <ele>168.2</ele>
        <time>2022-09-18T08:47:17Z</time>
      </trkpt>
      <trkpt lat="48.65301" lon="1.87971">
        <ele>168</ele>
        <time>2022-09-18T08:47:20Z</time>
      </trkpt>
      <trkpt lat="48.65307" lon="1.87982">
        <ele>168.1</ele>
        <time>2022-09-18T08:47:23Z</time>
      </trkpt>
      <trkpt lat="48.65313" lon="1.87993">
        <ele>168.3</ele>
        <time>2022-09-18T08:47:26Z</time>
      </trkpt>
      <trkpt lat="48.65319" lon="1.88004">
        <ele>168.4</ele>
        <time>2022-09-18T08:47:31Z</time>
      </trkpt>
      <trkpt lat="48.65329" lon="1.88012">
        <ele>168.5</ele>
        <time>2022-09-18T08:47:34Z</time>
      </trkpt>
      <trkpt lat="48.65339" lon="1.88016">
        <ele>168.4</ele>
        <time>2022-09-18T08:47:37Z</time>
      </trkpt>
      <trkpt lat="48.65348" lon="1.88026">
        <ele>168.1</ele>
        <time>2022-09-18T08:47:40Z</time>
      </trkpt>
      <trkpt lat="48.65358" lon="1.88037">
        <ele>168</ele>
        <time>2022-09-18T08:47:43Z</time>
      </trkpt>
      <trkpt lat="48.65366" lon="1.88052">
        <ele>168</ele>
        <time>2022-09-18T08:47:46Z</time>
      </trkpt>
      <trkpt lat="48.65379" lon="1.88064">
        <ele>168</ele>
        <time>2022-09-18T08:47:48Z</time>
      </trkpt>
      <trkpt lat="48.65389" lon="1.88074">
        <ele>168</ele>
        <time>2022-09-18T08:47:51Z</time>
      </trkpt>
      <trkpt lat="48.65397" lon="1.88082">
        <ele>168.3</ele>
        <time>2022-09-18T08:47:53Z</time>
      </trkpt>
      <trkpt lat="48.65407" lon="1.88096">
        <ele>168.3</ele>
        <time>2022-09-18T08:47:56Z</time>
      </trkpt>
      <trkpt lat="48.65415" lon="1.88113">
        <ele>168</ele>
        <time>2022-09-18T08:47:59Z</time>
      </trkpt>
      <trkpt lat="48.65419" lon="1.88127">
        <ele>168</ele>
        <time>2022-09-18T08:48:01Z</time>
      </trkpt>
      <trkpt lat="48.65419" lon="1.88141">
        <ele>168</ele>
        <time>2022-09-18T08:48:03Z</time>
      </trkpt>
      <trkpt lat="48.6542" lon="1.88164">
        <ele>168</ele>
        <time>2022-09-18T08:48:06Z</time>
      </trkpt>
      <trkpt lat="48.65421" lon="1.88179">
        <ele>168</ele>
        <time>2022-09-18T08:48:08Z</time>
      </trkpt>
      <trkpt lat="48.65421" lon="1.88199">
        <ele>167.9</ele>
        <time>2022-09-18T08:48:11Z</time>
      </trkpt>
      <trkpt lat="48.65425" lon="1.88212">
        <ele>167.6</ele>
        <time>2022-09-18T08:48:13Z</time>
      </trkpt>
      <trkpt lat="48.65432" lon="1.88222">
        <ele>167.5</ele>
        <time>2022-09-18T08:48:17Z</time>
      </trkpt>
      <trkpt lat="48.65438" lon="1.88213">
        <ele>167.9</ele>
        <time>2022-09-18T08:48:20Z</time>
      </trkpt>
      <trkpt lat="48.65443" lon="1.88201">
        <ele>168</ele>
        <time>2022-09-18T08:48:31Z</time>
      </trkpt>
      <trkpt lat="48.65451" lon="1.88189">
        <ele>168</ele>
        <time>2022-09-18T08:48:35Z</time>
      </trkpt>
      <trkpt lat="48.6546" lon="1.88175">
        <ele>168</ele>
        <time>2022-09-18T08:48:38Z</time>
      </trkpt>
      <trkpt lat="48.6547" lon="1.88164">
        <ele>168</ele>
        <time>2022-09-18T08:48:41Z</time>
      </trkpt>
      <trkpt lat="48.65481" lon="1.88166">
        <ele>168</ele>
        <time>2022-09-18T08:48:44Z</time>
      </trkpt>
      <trkpt lat="48.65489" lon="1.88174">
        <ele>168</ele>
        <time>2022-09-18T08:48:49Z</time>
      </trkpt>
      <trkpt lat="48.65494" lon="1.8819">
        <ele>168</ele>
        <time>2022-09-18T08:48:53Z</time>
      </trkpt>
      <trkpt lat="48.65491" lon="1.88206">
        <ele>168</ele>
        <time>2022-09-18T08:48:57Z</time>
      </trkpt>
      <trkpt lat="48.65492" lon="1.88221">
        <ele>168</ele>
        <time>2022-09-18T08:49:00Z</time>
      </trkpt>
      <trkpt lat="48.65491" lon="1.88236">
        <ele>167.5</ele>
        <time>2022-09-18T08:49:04Z</time>
      </trkpt>
      <trkpt lat="48.655" lon="1.88239">
        <ele>167.4</ele>
        <time>2022-09-18T08:49:08Z</time>
      </trkpt>
      <trkpt lat="48.6551" lon="1.88236">
        <ele>167.3</ele>
        <time>2022-09-18T08:49:11Z</time>
      </trkpt>
      <trkpt lat="48.65521" lon="1.88238">
        <ele>167.1</ele>
        <time>2022-09-18T08:49:14Z</time>
      </trkpt>
      <trkpt lat="48.65532" lon="1.88231">
        <ele>167</ele>
        <time>2022-09-18T08:49:17Z</time>
      </trkpt>
      <trkpt lat="48.65542" lon="1.88227">
        <ele>167</ele>
        <time>2022-09-18T08:49:20Z</time>
      </trkpt>
      <trkpt lat="48.65552" lon="1.88231">
        <ele>167</ele>
        <time>2022-09-18T08:49:24Z</time>
      </trkpt>
      <trkpt lat="48.65562" lon="1.88231">
        <ele>167</ele>
        <time>2022-09-18T08:49:27Z</time>
      </trkpt>
      <trkpt lat="48.65574" lon="1.88231">
        <ele>167</ele>
        <time>2022-09-18T08:49:31Z</time>
      </trkpt>
      <trkpt lat="48.65584" lon="1.88226">
        <ele>167</ele>
        <time>2022-09-18T08:49:37Z</time>
      </trkpt>
      <trkpt lat="48.6559" lon="1.88214">
        <ele>167.2</ele>
        <time>2022-09-18T08:49:42Z</time>
      </trkpt>
      <trkpt lat="48.65593" lon="1.882">
        <ele>167.5</ele>
        <time>2022-09-18T08:49:54Z</time>
      </trkpt>
      <trkpt lat="48.656" lon="1.88191">
        <ele>167.4</ele>
        <time>2022-09-18T08:50:03Z</time>
      </trkpt>
      <trkpt lat="48.65608" lon="1.88186">
        <ele>167.1</ele>
        <time>2022-09-18T08:50:14Z</time>
      </trkpt>
      <trkpt lat="48.65614" lon="1.88174">
        <ele>167</ele>
        <time>2022-09-18T08:50:26Z</time>
      </trkpt>
      <trkpt lat="48.65624" lon="1.88169">
        <ele>167</ele>
        <time>2022-09-18T08:50:32Z</time>
      </trkpt>
      <trkpt lat="48.65624" lon="1.88154">
        <ele>167</ele>
        <time>2022-09-18T08:50:42Z</time>
      </trkpt>
      <trkpt lat="48.65628" lon="1.88141">
        <ele>167</ele>
        <time>2022-09-18T08:50:50Z</time>
      </trkpt>
      <trkpt lat="48.65637" lon="1.88152">
        <ele>167</ele>
        <time>2022-09-18T08:50:54Z</time>
      </trkpt>
      <trkpt lat="48.65644" lon="1.88161">
        <ele>167.2</ele>
        <time>2022-09-18T08:50:57Z</time>
      </trkpt>
      <trkpt lat="48.65652" lon="1.88169">
        <ele>167.4</ele>
        <time>2022-09-18T08:51:00Z</time>
      </trkpt>
      <trkpt lat="48.6566" lon="1.88176">
        <ele>167.5</ele>
        <time>2022-09-18T08:51:03Z</time>
      </trkpt>
      <trkpt lat="48.65669" lon="1.88184">
        <ele>167.4</ele>
        <time>2022-09-18T08:51:06Z</time>
      </trkpt>
      <trkpt lat="48.65677" lon="1.88192">
        <ele>167.4</ele>
        <time>2022-09-18T08:51:11Z</time>
      </trkpt>
      <trkpt lat="48.65687" lon="1.88198">
        <ele>167.7</ele>
        <time>2022-09-18T08:51:15Z</time>
      </trkpt>
      <trkpt lat="48.65695" lon="1.88207">
        <ele>168</ele>
        <time>2022-09-18T08:51:18Z</time>
      </trkpt>
      <trkpt lat="48.65704" lon="1.88211">
        <ele>167.8</ele>
        <time>2022-09-18T08:51:20Z</time>
      </trkpt>
      <trkpt lat="48.65721" lon="1.88212">
        <ele>167.4</ele>
        <time>2022-09-18T08:51:23Z</time>
      </trkpt>
      <trkpt lat="48.65729" lon="1.88202">
        <ele>167.6</ele>
        <time>2022-09-18T08:51:26Z</time>
      </trkpt>
      <trkpt lat="48.65739" lon="1.88195">
        <ele>167.4</ele>
        <time>2022-09-18T08:51:29Z</time>
      </trkpt>
      <trkpt lat="48.65751" lon="1.88186">
        <ele>167.3</ele>
        <time>2022-09-18T08:51:32Z</time>
      </trkpt>
      <trkpt lat="48.65761" lon="1.88183">
        <ele>167.2</ele>
        <time>2022-09-18T08:51:35Z</time>
      </trkpt>
      <trkpt lat="48.65767" lon="1.88168">
        <ele>167.4</ele>
        <time>2022-09-18T08:51:39Z</time>
      </trkpt>
      <trkpt lat="48.65773" lon="1.88153">
        <ele>167.7</ele>
        <time>2022-09-18T08:51:43Z</time>
      </trkpt>
      <trkpt lat="48.65783" lon="1.88146">
        <ele>167.6</ele>
        <time>2022-09-18T08:51:46Z</time>
      </trkpt>
      <trkpt lat="48.65791" lon="1.88137">
        <ele>167.6</ele>
        <time>2022-09-18T08:51:49Z</time>
      </trkpt>
      <trkpt lat="48.65796" lon="1.88123">
        <ele>167.9</ele>
        <time>2022-09-18T08:51:52Z</time>
      </trkpt>
      <trkpt lat="48.658" lon="1.88108">
        <ele>168.3</ele>
        <time>2022-09-18T08:51:58Z</time>
      </trkpt>
      <trkpt lat="48.65802" lon="1.8809">
        <ele>168.8</ele>
        <time>2022-09-18T08:52:02Z</time>
      </trkpt>
      <trkpt lat="48.65812" lon="1.88086">
        <ele>168.5</ele>
        <time>2022-09-18T08:52:07Z</time>
      </trkpt>
      <trkpt lat="48.65816" lon="1.88071">
        <ele>168.2</ele>
        <time>2022-09-18T08:52:12Z</time>
      </trkpt>
      <trkpt lat="48.65825" lon="1.88064">
        <ele>167.6</ele>
        <time>2022-09-18T08:52:18Z</time>
      </trkpt>
      <trkpt lat="48.65829" lon="1.8805">
        <ele>167.3</ele>
        <time>2022-09-18T08:52:22Z</time>
      </trkpt>
      <trkpt lat="48.65833" lon="1.88033">
        <ele>167</ele>
        <time>2022-09-18T08:52:25Z</time>
      </trkpt>
      <trkpt lat="48.65835" lon="1.88018">
        <ele>167.3</ele>
        <time>2022-09-18T08:52:28Z</time>
      </trkpt>
      <trkpt lat="48.6584" lon="1.88004">
        <ele>167.7</ele>
        <time>2022-09-18T08:52:31Z</time>
      </trkpt>
      <trkpt lat="48.65839" lon="1.87987">
        <ele>168.1</ele>
        <time>2022-09-18T08:52:33Z</time>
      </trkpt>
      <trkpt lat="48.65841" lon="1.87971">
        <ele>168.4</ele>
        <time>2022-09-18T08:52:36Z</time>
      </trkpt>
      <trkpt lat="48.65845" lon="1.87958">
        <ele>168.2</ele>
        <time>2022-09-18T08:52:39Z</time>
      </trkpt>
      <trkpt lat="48.65849" lon="1.87945">
        <ele>167.9</ele>
        <time>2022-09-18T08:52:42Z</time>
      </trkpt>
      <trkpt lat="48.65855" lon="1.8793">
        <ele>167.9</ele>
        <time>2022-09-18T08:52:45Z</time>
      </trkpt>
      <trkpt lat="48.65859" lon="1.87914">
        <ele>168.2</ele>
        <time>2022-09-18T08:52:48Z</time>
      </trkpt>
      <trkpt lat="48.65866" lon="1.879">
        <ele>168.3</ele>
        <time>2022-09-18T08:52:52Z</time>
      </trkpt>
      <trkpt lat="48.65872" lon="1.87886">
        <ele>168.3</ele>
        <time>2022-09-18T08:52:55Z</time>
      </trkpt>
      <trkpt lat="48.65878" lon="1.87871">
        <ele>168.2</ele>
        <time>2022-09-18T08:52:59Z</time>
      </trkpt>
      <trkpt lat="48.65881" lon="1.87856">
        <ele>168.5</ele>
        <time>2022-09-18T08:53:04Z</time>
      </trkpt>
      <trkpt lat="48.65889" lon="1.87848">
        <ele>168.5</ele>
        <time>2022-09-18T08:53:09Z</time>
      </trkpt>
      <trkpt lat="48.65897" lon="1.87853">
        <ele>167.9</ele>
        <time>2022-09-18T08:53:14Z</time>
      </trkpt>
      <trkpt lat="48.65908" lon="1.87843">
        <ele>167.5</ele>
        <time>2022-09-18T08:53:20Z</time>
      </trkpt>
      <trkpt lat="48.65913" lon="1.87828">
        <ele>167.4</ele>
        <time>2022-09-18T08:53:23Z</time>
      </trkpt>
      <trkpt lat="48.65919" lon="1.87818">
        <ele>167.5</ele>
        <time>2022-09-18T08:53:26Z</time>
      </trkpt>
      <trkpt lat="48.65927" lon="1.87809">
        <ele>167.5</ele>
        <time>2022-09-18T08:53:29Z</time>
      </trkpt>
      <trkpt lat="48.65929" lon="1.87796">
        <ele>167.9</ele>
        <time>2022-09-18T08:53:32Z</time>
      </trkpt>
      <trkpt lat="48.65936" lon="1.87784">
        <ele>168.1</ele>
        <time>2022-09-18T08:53:37Z</time>
      </trkpt>
      <trkpt lat="48.65945" lon="1.87776">
        <ele>168</ele>
        <time>2022-09-18T08:53:40Z</time>
      </trkpt>
      <trkpt lat="48.65951" lon="1.87762">
        <ele>167.8</ele>
        <time>2022-09-18T08:53:43Z</time>
      </trkpt>
      <trkpt lat="48.65955" lon="1.87747">
        <ele>167.6</ele>
        <time>2022-09-18T08:53:46Z</time>
      </trkpt>
      <trkpt lat="48.65955" lon="1.8773">
        <ele>167.6</ele>
        <time>2022-09-18T08:53:49Z</time>
      </trkpt>
      <trkpt lat="48.65954" lon="1.87715">
        <ele>167.5</ele>
        <time>2022-09-18T08:53:52Z</time>
      </trkpt>
      <trkpt lat="48.65952" lon="1.877">
        <ele>167.2</ele>
        <time>2022-09-18T08:53:55Z</time>
      </trkpt>
      <trkpt lat="48.65945" lon="1.87688">
        <ele>167</ele>
        <time>2022-09-18T08:53:59Z</time>
      </trkpt>
      <trkpt lat="48.6595" lon="1.87677">
        <ele>167.1</ele>
        <time>2022-09-18T08:54:05Z</time>
      </trkpt>
      <trkpt lat="48.6596" lon="1.87673">
        <ele>167.4</ele>
        <time>2022-09-18T08:54:08Z</time>
      </trkpt>
      <trkpt lat="48.65969" lon="1.87673">
        <ele>167.7</ele>
        <time>2022-09-18T08:54:11Z</time>
      </trkpt>
      <trkpt lat="48.65978" lon="1.87674">
        <ele>167.8</ele>
        <time>2022-09-18T08:54:14Z</time>
      </trkpt>
      <trkpt lat="48.65988" lon="1.87668">
        <ele>167.9</ele>
        <time>2022-09-18T08:54:17Z</time>
      </trkpt>
      <trkpt lat="48.65994" lon="1.87654">
        <ele>168</ele>
        <time>2022-09-18T08:54:20Z</time>
      </trkpt>
      <trkpt lat="48.65996" lon="1.87637">
        <ele>168</ele>
        <time>2022-09-18T08:54:23Z</time>
      </trkpt>
      <trkpt lat="48.65999" lon="1.87623">
        <ele>168</ele>
        <time>2022-09-18T08:54:26Z</time>
      </trkpt>
      <trkpt lat="48.66007" lon="1.87611">
        <ele>168</ele>
        <time>2022-09-18T08:54:29Z</time>
      </trkpt>
      <trkpt lat="48.66018" lon="1.87604">
        <ele>168</ele>
        <time>2022-09-18T08:54:32Z</time>
      </trkpt>
      <trkpt lat="48.66027" lon="1.87596">
        <ele>168</ele>
        <time>2022-09-18T08:54:35Z</time>
      </trkpt>
      <trkpt lat="48.66037" lon="1.87589">
        <ele>167.9</ele>
        <time>2022-09-18T08:54:38Z</time>
      </trkpt>
      <trkpt lat="48.66045" lon="1.87583">
        <ele>168</ele>
        <time>2022-09-18T08:54:40Z</time>
      </trkpt>
      <trkpt lat="48.66059" lon="1.87575">
        <ele>168</ele>
        <time>2022-09-18T08:54:41Z</time>
      </trkpt>
      <trkpt lat="48.66069" lon="1.87572">
        <ele>168</ele>
        <time>2022-09-18T08:54:43Z</time>
      </trkpt>
      <trkpt lat="48.6608" lon="1.87565">
        <ele>168</ele>
        <time>2022-09-18T08:54:46Z</time>
      </trkpt>
      <trkpt lat="48.66088" lon="1.87557">
        <ele>168</ele>
        <time>2022-09-18T08:54:48Z</time>
      </trkpt>
      <trkpt lat="48.66099" lon="1.8755">
        <ele>168.1</ele>
        <time>2022-09-18T08:54:51Z</time>
      </trkpt>
      <trkpt lat="48.66112" lon="1.87544">
        <ele>168.4</ele>
        <time>2022-09-18T08:54:54Z</time>
      </trkpt>
      <trkpt lat="48.66124" lon="1.87538">
        <ele>168.6</ele>
        <time>2022-09-18T08:54:57Z</time>
      </trkpt>
      <trkpt lat="48.66137" lon="1.87532">
        <ele>168.9</ele>
        <time>2022-09-18T08:55:00Z</time>
      </trkpt>
      <trkpt lat="48.66146" lon="1.87527">
        <ele>168.8</ele>
        <time>2022-09-18T08:55:02Z</time>
      </trkpt>
      <trkpt lat="48.66158" lon="1.87521">
        <ele>168.5</ele>
        <time>2022-09-18T08:55:05Z</time>
      </trkpt>
      <trkpt lat="48.6617" lon="1.87514">
        <ele>168.5</ele>
        <time>2022-09-18T08:55:08Z</time>
      </trkpt>
      <trkpt lat="48.66181" lon="1.87508">
        <ele>168.7</ele>
        <time>2022-09-18T08:55:11Z</time>
      </trkpt>
      <trkpt lat="48.66194" lon="1.87502">
        <ele>168.9</ele>
        <time>2022-09-18T08:55:14Z</time>
      </trkpt>
      <trkpt lat="48.66205" lon="1.87495">
        <ele>168.6</ele>
        <time>2022-09-18T08:55:17Z</time>
      </trkpt>
      <trkpt lat="48.66215" lon="1.8749">
        <ele>168.3</ele>
        <time>2022-09-18T08:55:19Z</time>
      </trkpt>
      <trkpt lat="48.66224" lon="1.87487">
        <ele>168</ele>
        <time>2022-09-18T08:55:21Z</time>
      </trkpt>
      <trkpt lat="48.66236" lon="1.87482">
        <ele>168</ele>
        <time>2022-09-18T08:55:23Z</time>
      </trkpt>
      <trkpt lat="48.66249" lon="1.87476">
        <ele>168</ele>
        <time>2022-09-18T08:55:26Z</time>
      </trkpt>
      <trkpt lat="48.66262" lon="1.87472">
        <ele>168</ele>
        <time>2022-09-18T08:55:29Z</time>
      </trkpt>
      <trkpt lat="48.66274" lon="1.87478">
        <ele>168.2</ele>
        <time>2022-09-18T08:55:32Z</time>
      </trkpt>
      <trkpt lat="48.66279" lon="1.87494">
        <ele>168.8</ele>
        <time>2022-09-18T08:55:35Z</time>
      </trkpt>
      <trkpt lat="48.6628" lon="1.87508">
        <ele>168.7</ele>
        <time>2022-09-18T08:55:37Z</time>
      </trkpt>
      <trkpt lat="48.66282" lon="1.87526">
        <ele>167.9</ele>
        <time>2022-09-18T08:55:40Z</time>
      </trkpt>
      <trkpt lat="48.66286" lon="1.87538">
        <ele>167.8</ele>
        <time>2022-09-18T08:55:43Z</time>
      </trkpt>
      <trkpt lat="48.66297" lon="1.87536">
        <ele>167.5</ele>
        <time>2022-09-18T08:55:46Z</time>
      </trkpt>
      <trkpt lat="48.66307" lon="1.87532">
        <ele>167.2</ele>
        <time>2022-09-18T08:55:48Z</time>
      </trkpt>
      <trkpt lat="48.66316" lon="1.87528">
        <ele>167.4</ele>
        <time>2022-09-18T08:55:50Z</time>
      </trkpt>
      <trkpt lat="48.66327" lon="1.87523">
        <ele>167.9</ele>
        <time>2022-09-18T08:55:53Z</time>
      </trkpt>
      <trkpt lat="48.66338" lon="1.87517">
        <ele>168.1</ele>
        <time>2022-09-18T08:55:56Z</time>
      </trkpt>
      <trkpt lat="48.6635" lon="1.87512">
        <ele>168.3</ele>
        <time>2022-09-18T08:55:59Z</time>
      </trkpt>
      <trkpt lat="48.6636" lon="1.87507">
        <ele>168.3</ele>
        <time>2022-09-18T08:56:02Z</time>
      </trkpt>
      <trkpt lat="48.66371" lon="1.87502">
        <ele>168.4</ele>
        <time>2022-09-18T08:56:05Z</time>
      </trkpt>
      <trkpt lat="48.66382" lon="1.87498">
        <ele>168.8</ele>
        <time>2022-09-18T08:56:08Z</time>
      </trkpt>
      <trkpt lat="48.66391" lon="1.87496">
        <ele>169</ele>
        <time>2022-09-18T08:56:11Z</time>
      </trkpt>
      <trkpt lat="48.66395" lon="1.87482">
        <ele>169</ele>
        <time>2022-09-18T08:56:15Z</time>
      </trkpt>
      <trkpt lat="48.66403" lon="1.87479">
        <ele>169</ele>
        <time>2022-09-18T08:56:18Z</time>
      </trkpt>
      <trkpt lat="48.66413" lon="1.87478">
        <ele>169</ele>
        <time>2022-09-18T08:56:21Z</time>
      </trkpt>
      <trkpt lat="48.66423" lon="1.87474">
        <ele>169.2</ele>
        <time>2022-09-18T08:56:24Z</time>
      </trkpt>
      <trkpt lat="48.6643" lon="1.87459">
        <ele>169.5</ele>
        <time>2022-09-18T08:56:27Z</time>
      </trkpt>
      <trkpt lat="48.66437" lon="1.87447">
        <ele>169.7</ele>
        <time>2022-09-18T08:56:30Z</time>
      </trkpt>
      <trkpt lat="48.66446" lon="1.87443">
        <ele>170</ele>
        <time>2022-09-18T08:56:33Z</time>
      </trkpt>
      <trkpt lat="48.66456" lon="1.87449">
        <ele>170</ele>
        <time>2022-09-18T08:56:37Z</time>
      </trkpt>
      <trkpt lat="48.66467" lon="1.87447">
        <ele>170</ele>
        <time>2022-09-18T08:56:42Z</time>
      </trkpt>
      <trkpt lat="48.66478" lon="1.87444">
        <ele>169.8</ele>
        <time>2022-09-18T08:56:45Z</time>
      </trkpt>
      <trkpt lat="48.66489" lon="1.87437">
        <ele>169.5</ele>
        <time>2022-09-18T08:56:48Z</time>
      </trkpt>
      <trkpt lat="48.66501" lon="1.87432">
        <ele>169.5</ele>
        <time>2022-09-18T08:56:51Z</time>
      </trkpt>
      <trkpt lat="48.6651" lon="1.87428">
        <ele>169.7</ele>
        <time>2022-09-18T08:56:53Z</time>
      </trkpt>
      <trkpt lat="48.66519" lon="1.87423">
        <ele>169.9</ele>
        <time>2022-09-18T08:56:56Z</time>
      </trkpt>
      <trkpt lat="48.66528" lon="1.87421">
        <ele>170</ele>
        <time>2022-09-18T08:56:59Z</time>
      </trkpt>
      <trkpt lat="48.6654" lon="1.87415">
        <ele>170</ele>
        <time>2022-09-18T08:57:02Z</time>
      </trkpt>
      <trkpt lat="48.6655" lon="1.87406">
        <ele>170</ele>
        <time>2022-09-18T08:57:05Z</time>
      </trkpt>
      <trkpt lat="48.66559" lon="1.87401">
        <ele>170.1</ele>
        <time>2022-09-18T08:57:07Z</time>
      </trkpt>
      <trkpt lat="48.66568" lon="1.87398">
        <ele>170.3</ele>
        <time>2022-09-18T08:57:10Z</time>
      </trkpt>
      <trkpt lat="48.6658" lon="1.87391">
        <ele>170.8</ele>
        <time>2022-09-18T08:57:13Z</time>
      </trkpt>
      <trkpt lat="48.66589" lon="1.87387">
        <ele>171</ele>
        <time>2022-09-18T08:57:15Z</time>
      </trkpt>
      <trkpt lat="48.66598" lon="1.87384">
        <ele>171</ele>
        <time>2022-09-18T08:57:17Z</time>
      </trkpt>
      <trkpt lat="48.66608" lon="1.8738">
        <ele>171</ele>
        <time>2022-09-18T08:57:19Z</time>
      </trkpt>
      <trkpt lat="48.66617" lon="1.87375">
        <ele>170.9</ele>
        <time>2022-09-18T08:57:21Z</time>
      </trkpt>
      <trkpt lat="48.66626" lon="1.8737">
        <ele>170.8</ele>
        <time>2022-09-18T08:57:23Z</time>
      </trkpt>
      <trkpt lat="48.66639" lon="1.87365">
        <ele>170.9</ele>
        <time>2022-09-18T08:57:25Z</time>
      </trkpt>
      <trkpt lat="48.66648" lon="1.87361">
        <ele>171</ele>
        <time>2022-09-18T08:57:26Z</time>
      </trkpt>
      <trkpt lat="48.66657" lon="1.87356">
        <ele>171</ele>
        <time>2022-09-18T08:57:28Z</time>
      </trkpt>
      <trkpt lat="48.6667" lon="1.87349">
        <ele>170.9</ele>
        <time>2022-09-18T08:57:31Z</time>
      </trkpt>
      <trkpt lat="48.66679" lon="1.87345">
        <ele>170.8</ele>
        <time>2022-09-18T08:57:33Z</time>
      </trkpt>
      <trkpt lat="48.66688" lon="1.8734">
        <ele>170.8</ele>
        <time>2022-09-18T08:57:35Z</time>
      </trkpt>
      <trkpt lat="48.66703" lon="1.87332">
        <ele>171</ele>
        <time>2022-09-18T08:57:38Z</time>
      </trkpt>
      <trkpt lat="48.66712" lon="1.87328">
        <ele>171</ele>
        <time>2022-09-18T08:57:40Z</time>
      </trkpt>
      <trkpt lat="48.66724" lon="1.87323">
        <ele>171</ele>
        <time>2022-09-18T08:57:42Z</time>
      </trkpt>
      <trkpt lat="48.66734" lon="1.8732">
        <ele>171</ele>
        <time>2022-09-18T08:57:44Z</time>
      </trkpt>
      <trkpt lat="48.66746" lon="1.87317">
        <ele>171</ele>
        <time>2022-09-18T08:57:46Z</time>
      </trkpt>
      <trkpt lat="48.66756" lon="1.87313">
        <ele>170.9</ele>
        <time>2022-09-18T08:57:48Z</time>
      </trkpt>
      <trkpt lat="48.66768" lon="1.87304">
        <ele>171</ele>
        <time>2022-09-18T08:57:51Z</time>
      </trkpt>
      <trkpt lat="48.66776" lon="1.87299">
        <ele>170.8</ele>
        <time>2022-09-18T08:57:53Z</time>
      </trkpt>
      <trkpt lat="48.66789" lon="1.87292">
        <ele>170.5</ele>
        <time>2022-09-18T08:57:56Z</time>
      </trkpt>
      <trkpt lat="48.66797" lon="1.87285">
        <ele>170.6</ele>
        <time>2022-09-18T08:57:58Z</time>
      </trkpt>
      <trkpt lat="48.66806" lon="1.8728">
        <ele>170.9</ele>
        <time>2022-09-18T08:58:00Z</time>
      </trkpt>
      <trkpt lat="48.66815" lon="1.87275">
        <ele>170.9</ele>
        <time>2022-09-18T08:58:02Z</time>
      </trkpt>
      <trkpt lat="48.66824" lon="1.8727">
        <ele>170.7</ele>
        <time>2022-09-18T08:58:04Z</time>
      </trkpt>
      <trkpt lat="48.66834" lon="1.87266">
        <ele>170.6</ele>
        <time>2022-09-18T08:58:06Z</time>
      </trkpt>
      <trkpt lat="48.66847" lon="1.8726">
        <ele>170.7</ele>
        <time>2022-09-18T08:58:09Z</time>
      </trkpt>
      <trkpt lat="48.66858" lon="1.87254">
        <ele>170.9</ele>
        <time>2022-09-18T08:58:12Z</time>
      </trkpt>
      <trkpt lat="48.6687" lon="1.87251">
        <ele>171</ele>
        <time>2022-09-18T08:58:15Z</time>
      </trkpt>
      <trkpt lat="48.66882" lon="1.87244">
        <ele>170.8</ele>
        <time>2022-09-18T08:58:18Z</time>
      </trkpt>
      <trkpt lat="48.66893" lon="1.87236">
        <ele>170.5</ele>
        <time>2022-09-18T08:58:21Z</time>
      </trkpt>
      <trkpt lat="48.66903" lon="1.87231">
        <ele>170.5</ele>
        <time>2022-09-18T08:58:24Z</time>
      </trkpt>
      <trkpt lat="48.66913" lon="1.87229">
        <ele>170.7</ele>
        <time>2022-09-18T08:58:27Z</time>
      </trkpt>
      <trkpt lat="48.66924" lon="1.87228">
        <ele>170.6</ele>
        <time>2022-09-18T08:58:31Z</time>
      </trkpt>
      <trkpt lat="48.66934" lon="1.87225">
        <ele>170.3</ele>
        <time>2022-09-18T08:58:58Z</time>
      </trkpt>
      <trkpt lat="48.66945" lon="1.87224">
        <ele>170</ele>
        <time>2022-09-18T08:59:01Z</time>
      </trkpt>
      <trkpt lat="48.6696" lon="1.87225">
        <ele>169.5</ele>
        <time>2022-09-18T08:59:04Z</time>
      </trkpt>
      <trkpt lat="48.66971" lon="1.87218">
        <ele>169.1</ele>
        <time>2022-09-18T08:59:06Z</time>
      </trkpt>
      <trkpt lat="48.66982" lon="1.87211">
        <ele>169.3</ele>
        <time>2022-09-18T08:59:08Z</time>
      </trkpt>
      <trkpt lat="48.66991" lon="1.87202">
        <ele>168.8</ele>
        <time>2022-09-18T08:59:10Z</time>
      </trkpt>
      <trkpt lat="48.67002" lon="1.87195">
        <ele>168.2</ele>
        <time>2022-09-18T08:59:12Z</time>
      </trkpt>
      <trkpt lat="48.67012" lon="1.87185">
        <ele>168.8</ele>
        <time>2022-09-18T08:59:14Z</time>
      </trkpt>
      <trkpt lat="48.67022" lon="1.87181">
        <ele>168.7</ele>
        <time>2022-09-18T08:59:16Z</time>
      </trkpt>
      <trkpt lat="48.67033" lon="1.87175">
        <ele>168.2</ele>
        <time>2022-09-18T08:59:18Z</time>
      </trkpt>
      <trkpt lat="48.67044" lon="1.87168">
        <ele>168.2</ele>
        <time>2022-09-18T08:59:20Z</time>
      </trkpt>
      <trkpt lat="48.67052" lon="1.87162">
        <ele>168.9</ele>
        <time>2022-09-18T08:59:22Z</time>
      </trkpt>
      <trkpt lat="48.67064" lon="1.87155">
        <ele>169.4</ele>
        <time>2022-09-18T08:59:24Z</time>
      </trkpt>
      <trkpt lat="48.67074" lon="1.87151">
        <ele>169.4</ele>
        <time>2022-09-18T08:59:26Z</time>
      </trkpt>
      <trkpt lat="48.67084" lon="1.87144">
        <ele>168.8</ele>
        <time>2022-09-18T08:59:28Z</time>
      </trkpt>
      <trkpt lat="48.67093" lon="1.87138">
        <ele>169.1</ele>
        <time>2022-09-18T08:59:30Z</time>
      </trkpt>
      <trkpt lat="48.67102" lon="1.87132">
        <ele>169.7</ele>
        <time>2022-09-18T08:59:32Z</time>
      </trkpt>
      <trkpt lat="48.67111" lon="1.87125">
        <ele>169.5</ele>
        <time>2022-09-18T08:59:34Z</time>
      </trkpt>
      <trkpt lat="48.67119" lon="1.87119">
        <ele>169.2</ele>
        <time>2022-09-18T08:59:36Z</time>
      </trkpt>
      <trkpt lat="48.67129" lon="1.87112">
        <ele>168.8</ele>
        <time>2022-09-18T08:59:38Z</time>
      </trkpt>
      <trkpt lat="48.67139" lon="1.87108">
        <ele>169</ele>
        <time>2022-09-18T08:59:40Z</time>
      </trkpt>
      <trkpt lat="48.67151" lon="1.871">
        <ele>169.6</ele>
        <time>2022-09-18T08:59:43Z</time>
      </trkpt>
      <trkpt lat="48.67161" lon="1.87094">
        <ele>169.4</ele>
        <time>2022-09-18T08:59:45Z</time>
      </trkpt>
      <trkpt lat="48.67173" lon="1.87086">
        <ele>168.8</ele>
        <time>2022-09-18T08:59:47Z</time>
      </trkpt>
      <trkpt lat="48.67181" lon="1.8708">
        <ele>169.1</ele>
        <time>2022-09-18T08:59:49Z</time>
      </trkpt>
      <trkpt lat="48.67192" lon="1.87073">
        <ele>169.2</ele>
        <time>2022-09-18T08:59:51Z</time>
      </trkpt>
      <trkpt lat="48.67201" lon="1.87065">
        <ele>168.9</ele>
        <time>2022-09-18T08:59:53Z</time>
      </trkpt>
      <trkpt lat="48.67211" lon="1.87058">
        <ele>168.3</ele>
        <time>2022-09-18T08:59:55Z</time>
      </trkpt>
      <trkpt lat="48.67221" lon="1.8705">
        <ele>168.2</ele>
        <time>2022-09-18T08:59:57Z</time>
      </trkpt>
      <trkpt lat="48.67231" lon="1.87043">
        <ele>168.8</ele>
        <time>2022-09-18T08:59:59Z</time>
      </trkpt>
      <trkpt lat="48.67241" lon="1.87035">
        <ele>168.8</ele>
        <time>2022-09-18T09:00:01Z</time>
      </trkpt>
      <trkpt lat="48.67251" lon="1.87029">
        <ele>168.1</ele>
        <time>2022-09-18T09:00:03Z</time>
      </trkpt>
      <trkpt lat="48.67262" lon="1.87022">
        <ele>168.8</ele>
        <time>2022-09-18T09:00:05Z</time>
      </trkpt>
      <trkpt lat="48.67272" lon="1.8702">
        <ele>169</ele>
        <time>2022-09-18T09:00:07Z</time>
      </trkpt>
      <trkpt lat="48.67282" lon="1.87023">
        <ele>168.9</ele>
        <time>2022-09-18T09:00:09Z</time>
      </trkpt>
      <trkpt lat="48.67296" lon="1.87028">
        <ele>168.4</ele>
        <time>2022-09-18T09:00:12Z</time>
      </trkpt>
      <trkpt lat="48.67306" lon="1.87031">
        <ele>168.4</ele>
        <time>2022-09-18T09:00:14Z</time>
      </trkpt>
      <trkpt lat="48.67318" lon="1.87035">
        <ele>168.5</ele>
        <time>2022-09-18T09:00:16Z</time>
      </trkpt>
      <trkpt lat="48.67329" lon="1.87039">
        <ele>168.8</ele>
        <time>2022-09-18T09:00:18Z</time>
      </trkpt>
      <trkpt lat="48.6734" lon="1.87042">
        <ele>169.2</ele>
        <time>2022-09-18T09:00:20Z</time>
      </trkpt>
      <trkpt lat="48.6735" lon="1.87044">
        <ele>169.5</ele>
        <time>2022-09-18T09:00:22Z</time>
      </trkpt>
      <trkpt lat="48.6736" lon="1.87048">
        <ele>169.7</ele>
        <time>2022-09-18T09:00:24Z</time>
      </trkpt>
      <trkpt lat="48.67371" lon="1.87052">
        <ele>169.4</ele>
        <time>2022-09-18T09:00:26Z</time>
      </trkpt>
      <trkpt lat="48.67384" lon="1.87054">
        <ele>168.5</ele>
        <time>2022-09-18T09:00:28Z</time>
      </trkpt>
      <trkpt lat="48.67395" lon="1.87057">
        <ele>168</ele>
        <time>2022-09-18T09:00:30Z</time>
      </trkpt>
      <trkpt lat="48.67406" lon="1.87058">
        <ele>167.9</ele>
        <time>2022-09-18T09:00:32Z</time>
      </trkpt>
      <trkpt lat="48.67418" lon="1.87062">
        <ele>168.3</ele>
        <time>2022-09-18T09:00:34Z</time>
      </trkpt>
      <trkpt lat="48.6743" lon="1.87064">
        <ele>168.9</ele>
        <time>2022-09-18T09:00:36Z</time>
      </trkpt>
      <trkpt lat="48.6744" lon="1.87066">
        <ele>169.3</ele>
        <time>2022-09-18T09:00:38Z</time>
      </trkpt>
      <trkpt lat="48.67451" lon="1.87068">
        <ele>169.4</ele>
        <time>2022-09-18T09:00:40Z</time>
      </trkpt>
      <trkpt lat="48.67462" lon="1.87078">
        <ele>168.9</ele>
        <time>2022-09-18T09:00:43Z</time>
      </trkpt>
      <trkpt lat="48.67471" lon="1.87086">
        <ele>168.5</ele>
        <time>2022-09-18T09:00:46Z</time>
      </trkpt>
      <trkpt lat="48.67479" lon="1.87075">
        <ele>168.9</ele>
        <time>2022-09-18T09:00:51Z</time>
      </trkpt>
      <trkpt lat="48.67478" lon="1.87059">
        <ele>170</ele>
        <time>2022-09-18T09:00:54Z</time>
      </trkpt>
      <trkpt lat="48.67489" lon="1.87063">
        <ele>170.1</ele>
        <time>2022-09-18T09:00:57Z</time>
      </trkpt>
      <trkpt lat="48.675" lon="1.87071">
        <ele>169.9</ele>
        <time>2022-09-18T09:00:59Z</time>
      </trkpt>
      <trkpt lat="48.67511" lon="1.87077">
        <ele>169.7</ele>
        <time>2022-09-18T09:01:01Z</time>
      </trkpt>
      <trkpt lat="48.67521" lon="1.8708">
        <ele>169.8</ele>
        <time>2022-09-18T09:01:03Z</time>
      </trkpt>
      <trkpt lat="48.67534" lon="1.87083">
        <ele>170</ele>
        <time>2022-09-18T09:01:05Z</time>
      </trkpt>
      <trkpt lat="48.67544" lon="1.87088">
        <ele>170</ele>
        <time>2022-09-18T09:01:07Z</time>
      </trkpt>
      <trkpt lat="48.67555" lon="1.87091">
        <ele>170</ele>
        <time>2022-09-18T09:01:09Z</time>
      </trkpt>
      <trkpt lat="48.67567" lon="1.87095">
        <ele>170</ele>
        <time>2022-09-18T09:01:11Z</time>
      </trkpt>
      <trkpt lat="48.67579" lon="1.87097">
        <ele>170</ele>
        <time>2022-09-18T09:01:13Z</time>
      </trkpt>
      <trkpt lat="48.67589" lon="1.87098">
        <ele>170</ele>
        <time>2022-09-18T09:01:15Z</time>
      </trkpt>
      <trkpt lat="48.67601" lon="1.87102">
        <ele>170</ele>
        <time>2022-09-18T09:01:17Z</time>
      </trkpt>
      <trkpt lat="48.67612" lon="1.87104">
        <ele>170</ele>
        <time>2022-09-18T09:01:19Z</time>
      </trkpt>
      <trkpt lat="48.67623" lon="1.87108">
        <ele>170</ele>
        <time>2022-09-18T09:01:21Z</time>
      </trkpt>
      <trkpt lat="48.67634" lon="1.87111">
        <ele>170</ele>
        <time>2022-09-18T09:01:23Z</time>
      </trkpt>
      <trkpt lat="48.67645" lon="1.87114">
        <ele>170</ele>
        <time>2022-09-18T09:01:25Z</time>
      </trkpt>
      <trkpt lat="48.67657" lon="1.87118">
        <ele>170</ele>
        <time>2022-09-18T09:01:27Z</time>
      </trkpt>
      <trkpt lat="48.67669" lon="1.8712">
        <ele>170</ele>
        <time>2022-09-18T09:01:29Z</time>
      </trkpt>
      <trkpt lat="48.67679" lon="1.87121">
        <ele>170</ele>
        <time>2022-09-18T09:01:31Z</time>
      </trkpt>
      <trkpt lat="48.6769" lon="1.87121">
        <ele>170</ele>
        <time>2022-09-18T09:01:33Z</time>
      </trkpt>
      <trkpt lat="48.67702" lon="1.8712">
        <ele>170</ele>
        <time>2022-09-18T09:01:35Z</time>
      </trkpt>
      <trkpt lat="48.67712" lon="1.87118">
        <ele>170</ele>
        <time>2022-09-18T09:01:37Z</time>
      </trkpt>
      <trkpt lat="48.67721" lon="1.87115">
        <ele>170</ele>
        <time>2022-09-18T09:01:39Z</time>
      </trkpt>
      <trkpt lat="48.67732" lon="1.87114">
        <ele>170</ele>
        <time>2022-09-18T09:01:42Z</time>
      </trkpt>
      <trkpt lat="48.67742" lon="1.87117">
        <ele>170</ele>
        <time>2022-09-18T09:01:46Z</time>
      </trkpt>
      <trkpt lat="48.67742" lon="1.87135">
        <ele>170</ele>
        <time>2022-09-18T09:01:50Z</time>
      </trkpt>
      <trkpt lat="48.6775" lon="1.87146">
        <ele>170.2</ele>
        <time>2022-09-18T09:01:56Z</time>
      </trkpt>
      <trkpt lat="48.6776" lon="1.87143">
        <ele>170.2</ele>
        <time>2022-09-18T09:01:58Z</time>
      </trkpt>
      <trkpt lat="48.67771" lon="1.87139">
        <ele>170</ele>
        <time>2022-09-18T09:02:00Z</time>
      </trkpt>
      <trkpt lat="48.67783" lon="1.87136">
        <ele>170</ele>
        <time>2022-09-18T09:02:02Z</time>
      </trkpt>
      <trkpt lat="48.67795" lon="1.87134">
        <ele>170</ele>
        <time>2022-09-18T09:02:04Z</time>
      </trkpt>
      <trkpt lat="48.67806" lon="1.87132">
        <ele>170</ele>
        <time>2022-09-18T09:02:06Z</time>
      </trkpt>
      <trkpt lat="48.67816" lon="1.87131">
        <ele>170</ele>
        <time>2022-09-18T09:02:08Z</time>
      </trkpt>
      <trkpt lat="48.67827" lon="1.8713">
        <ele>170</ele>
        <time>2022-09-18T09:02:10Z</time>
      </trkpt>
      <trkpt lat="48.67838" lon="1.8713">
        <ele>170</ele>
        <time>2022-09-18T09:02:12Z</time>
      </trkpt>
      <trkpt lat="48.67848" lon="1.87128">
        <ele>170</ele>
        <time>2022-09-18T09:02:14Z</time>
      </trkpt>
      <trkpt lat="48.67857" lon="1.87127">
        <ele>170</ele>
        <time>2022-09-18T09:02:16Z</time>
      </trkpt>
      <trkpt lat="48.67868" lon="1.87127">
        <ele>170</ele>
        <time>2022-09-18T09:02:18Z</time>
      </trkpt>
      <trkpt lat="48.67878" lon="1.87127">
        <ele>170</ele>
        <time>2022-09-18T09:02:20Z</time>
      </trkpt>
      <trkpt lat="48.67888" lon="1.87126">
        <ele>170</ele>
        <time>2022-09-18T09:02:22Z</time>
      </trkpt>
      <trkpt lat="48.67898" lon="1.87126">
        <ele>170</ele>
        <time>2022-09-18T09:02:24Z</time>
      </trkpt>
      <trkpt lat="48.67909" lon="1.87125">
        <ele>170</ele>
        <time>2022-09-18T09:02:26Z</time>
      </trkpt>
      <trkpt lat="48.67919" lon="1.87122">
        <ele>170</ele>
        <time>2022-09-18T09:02:28Z</time>
      </trkpt>
      <trkpt lat="48.67931" lon="1.8712">
        <ele>170</ele>
        <time>2022-09-18T09:02:30Z</time>
      </trkpt>
      <trkpt lat="48.67943" lon="1.87116">
        <ele>170</ele>
        <time>2022-09-18T09:02:32Z</time>
      </trkpt>
      <trkpt lat="48.67953" lon="1.87116">
        <ele>170</ele>
        <time>2022-09-18T09:02:34Z</time>
      </trkpt>
      <trkpt lat="48.67966" lon="1.87113">
        <ele>170</ele>
        <time>2022-09-18T09:02:36Z</time>
      </trkpt>
      <trkpt lat="48.67977" lon="1.87109">
        <ele>170</ele>
        <time>2022-09-18T09:02:38Z</time>
      </trkpt>
      <trkpt lat="48.67988" lon="1.87106">
        <ele>170</ele>
        <time>2022-09-18T09:02:40Z</time>
      </trkpt>
      <trkpt lat="48.67999" lon="1.87103">
        <ele>170</ele>
        <time>2022-09-18T09:02:42Z</time>
      </trkpt>
      <trkpt lat="48.68009" lon="1.87099">
        <ele>170</ele>
        <time>2022-09-18T09:02:44Z</time>
      </trkpt>
      <trkpt lat="48.6802" lon="1.87095">
        <ele>170</ele>
        <time>2022-09-18T09:02:46Z</time>
      </trkpt>
      <trkpt lat="48.68029" lon="1.87094">
        <ele>170</ele>
        <time>2022-09-18T09:02:48Z</time>
      </trkpt>
      <trkpt lat="48.6804" lon="1.87093">
        <ele>170</ele>
        <time>2022-09-18T09:02:51Z</time>
      </trkpt>
      <trkpt lat="48.68051" lon="1.87095">
        <ele>170</ele>
        <time>2022-09-18T09:02:54Z</time>
      </trkpt>
      <trkpt lat="48.6806" lon="1.87084">
        <ele>170</ele>
        <time>2022-09-18T09:02:58Z</time>
      </trkpt>
      <trkpt lat="48.68069" lon="1.87075">
        <ele>170</ele>
        <time>2022-09-18T09:03:02Z</time>
      </trkpt>
      <trkpt lat="48.68078" lon="1.8707">
        <ele>170</ele>
        <time>2022-09-18T09:03:05Z</time>
      </trkpt>
      <trkpt lat="48.68088" lon="1.87067">
        <ele>170</ele>
        <time>2022-09-18T09:03:08Z</time>
      </trkpt>
      <trkpt lat="48.68098" lon="1.87063">
        <ele>170</ele>
        <time>2022-09-18T09:03:11Z</time>
      </trkpt>
      <trkpt lat="48.6811" lon="1.87058">
        <ele>170</ele>
        <time>2022-09-18T09:03:14Z</time>
      </trkpt>
      <trkpt lat="48.68122" lon="1.87053">
        <ele>170</ele>
        <time>2022-09-18T09:03:17Z</time>
      </trkpt>
      <trkpt lat="48.68134" lon="1.87049">
        <ele>170</ele>
        <time>2022-09-18T09:03:20Z</time>
      </trkpt>
      <trkpt lat="48.68144" lon="1.87046">
        <ele>170</ele>
        <time>2022-09-18T09:03:22Z</time>
      </trkpt>
      <trkpt lat="48.68153" lon="1.87043">
        <ele>170</ele>
        <time>2022-09-18T09:03:24Z</time>
      </trkpt>
      <trkpt lat="48.68166" lon="1.8704">
        <ele>170</ele>
        <time>2022-09-18T09:03:26Z</time>
      </trkpt>
      <trkpt lat="48.68179" lon="1.87034">
        <ele>170</ele>
        <time>2022-09-18T09:03:29Z</time>
      </trkpt>
      <trkpt lat="48.68189" lon="1.87029">
        <ele>170</ele>
        <time>2022-09-18T09:03:31Z</time>
      </trkpt>
      <trkpt lat="48.68198" lon="1.87025">
        <ele>170</ele>
        <time>2022-09-18T09:03:33Z</time>
      </trkpt>
      <trkpt lat="48.68209" lon="1.87019">
        <ele>170</ele>
        <time>2022-09-18T09:03:35Z</time>
      </trkpt>
      <trkpt lat="48.6822" lon="1.87015">
        <ele>170</ele>
        <time>2022-09-18T09:03:37Z</time>
      </trkpt>
      <trkpt lat="48.6823" lon="1.87011">
        <ele>170</ele>
        <time>2022-09-18T09:03:39Z</time>
      </trkpt>
      <trkpt lat="48.6824" lon="1.8701">
        <ele>170</ele>
        <time>2022-09-18T09:03:41Z</time>
      </trkpt>
      <trkpt lat="48.68249" lon="1.87009">
        <ele>170</ele>
        <time>2022-09-18T09:03:43Z</time>
      </trkpt>
      <trkpt lat="48.68259" lon="1.87005">
        <ele>170</ele>
        <time>2022-09-18T09:03:45Z</time>
      </trkpt>
      <trkpt lat="48.68268" lon="1.87002">
        <ele>170</ele>
        <time>2022-09-18T09:03:47Z</time>
      </trkpt>
      <trkpt lat="48.68278" lon="1.86999">
        <ele>170</ele>
        <time>2022-09-18T09:03:49Z</time>
      </trkpt>
      <trkpt lat="48.68288" lon="1.86996">
        <ele>170</ele>
        <time>2022-09-18T09:03:51Z</time>
      </trkpt>
      <trkpt lat="48.68301" lon="1.86991">
        <ele>170</ele>
        <time>2022-09-18T09:03:54Z</time>
      </trkpt>
      <trkpt lat="48.6831" lon="1.8699">
        <ele>170</ele>
        <time>2022-09-18T09:03:56Z</time>
      </trkpt>
      <trkpt lat="48.6832" lon="1.86988">
        <ele>170</ele>
        <time>2022-09-18T09:03:58Z</time>
      </trkpt>
      <trkpt lat="48.68333" lon="1.86986">
        <ele>170</ele>
        <time>2022-09-18T09:04:01Z</time>
      </trkpt>
      <trkpt lat="48.68342" lon="1.86985">
        <ele>170</ele>
        <time>2022-09-18T09:04:03Z</time>
      </trkpt>
      <trkpt lat="48.68356" lon="1.8698">
        <ele>170</ele>
        <time>2022-09-18T09:04:06Z</time>
      </trkpt>
      <trkpt lat="48.68369" lon="1.86973">
        <ele>170</ele>
        <time>2022-09-18T09:04:09Z</time>
      </trkpt>
      <trkpt lat="48.68381" lon="1.86972">
        <ele>170</ele>
        <time>2022-09-18T09:04:12Z</time>
      </trkpt>
      <trkpt lat="48.68392" lon="1.86967">
        <ele>170</ele>
        <time>2022-09-18T09:04:14Z</time>
      </trkpt>
      <trkpt lat="48.68402" lon="1.86963">
        <ele>170</ele>
        <time>2022-09-18T09:04:16Z</time>
      </trkpt>
      <trkpt lat="48.68412" lon="1.86961">
        <ele>170</ele>
        <time>2022-09-18T09:04:18Z</time>
      </trkpt>
      <trkpt lat="48.68426" lon="1.86956">
        <ele>170</ele>
        <time>2022-09-18T09:04:21Z</time>
      </trkpt>
      <trkpt lat="48.68436" lon="1.86951">
        <ele>170</ele>
        <time>2022-09-18T09:04:23Z</time>
      </trkpt>
      <trkpt lat="48.68452" lon="1.86943">
        <ele>170</ele>
        <time>2022-09-18T09:04:25Z</time>
      </trkpt>
      <trkpt lat="48.68463" lon="1.86938">
        <ele>170</ele>
        <time>2022-09-18T09:04:27Z</time>
      </trkpt>
      <trkpt lat="48.68473" lon="1.86933">
        <ele>170</ele>
        <time>2022-09-18T09:04:29Z</time>
      </trkpt>
      <trkpt lat="48.68485" lon="1.86929">
        <ele>170.2</ele>
        <time>2022-09-18T09:04:31Z</time>
      </trkpt>
      <trkpt lat="48.68496" lon="1.86924">
        <ele>170.6</ele>
        <time>2022-09-18T09:04:33Z</time>
      </trkpt>
      <trkpt lat="48.68506" lon="1.86921">
        <ele>170.9</ele>
        <time>2022-09-18T09:04:35Z</time>
      </trkpt>
      <trkpt lat="48.68516" lon="1.8692">
        <ele>170.9</ele>
        <time>2022-09-18T09:04:37Z</time>
      </trkpt>
      <trkpt lat="48.68529" lon="1.86916">
        <ele>171</ele>
        <time>2022-09-18T09:04:40Z</time>
      </trkpt>
      <trkpt lat="48.68538" lon="1.86914">
        <ele>171</ele>
        <time>2022-09-18T09:04:42Z</time>
      </trkpt>
      <trkpt lat="48.68548" lon="1.8691">
        <ele>171</ele>
        <time>2022-09-18T09:04:44Z</time>
      </trkpt>
      <trkpt lat="48.6856" lon="1.86905">
        <ele>171</ele>
        <time>2022-09-18T09:04:46Z</time>
      </trkpt>
      <trkpt lat="48.68569" lon="1.86902">
        <ele>171</ele>
        <time>2022-09-18T09:04:48Z</time>
      </trkpt>
      <trkpt lat="48.68578" lon="1.86899">
        <ele>171</ele>
        <time>2022-09-18T09:04:50Z</time>
      </trkpt>
      <trkpt lat="48.68587" lon="1.86896">
        <ele>171</ele>
        <time>2022-09-18T09:04:52Z</time>
      </trkpt>
      <trkpt lat="48.686" lon="1.86892">
        <ele>171</ele>
        <time>2022-09-18T09:04:55Z</time>
      </trkpt>
      <trkpt lat="48.68611" lon="1.8689">
        <ele>171</ele>
        <time>2022-09-18T09:04:57Z</time>
      </trkpt>
      <trkpt lat="48.68623" lon="1.86888">
        <ele>171</ele>
        <time>2022-09-18T09:04:59Z</time>
      </trkpt>
      <trkpt lat="48.68634" lon="1.86884">
        <ele>171</ele>
        <time>2022-09-18T09:05:01Z</time>
      </trkpt>
      <trkpt lat="48.68644" lon="1.86881">
        <ele>171</ele>
        <time>2022-09-18T09:05:03Z</time>
      </trkpt>
      <trkpt lat="48.68655" lon="1.8688">
        <ele>171</ele>
        <time>2022-09-18T09:05:05Z</time>
      </trkpt>
      <trkpt lat="48.68666" lon="1.86875">
        <ele>171</ele>
        <time>2022-09-18T09:05:08Z</time>
      </trkpt>
      <trkpt lat="48.68677" lon="1.86869">
        <ele>171</ele>
        <time>2022-09-18T09:05:11Z</time>
      </trkpt>
      <trkpt lat="48.68682" lon="1.86858">
        <ele>171</ele>
        <time>2022-09-18T09:05:14Z</time>
      </trkpt>
      <trkpt lat="48.68691" lon="1.8686">
        <ele>171</ele>
        <time>2022-09-18T09:05:24Z</time>
      </trkpt>
      <trkpt lat="48.68701" lon="1.86858">
        <ele>171</ele>
        <time>2022-09-18T09:05:28Z</time>
      </trkpt>
      <trkpt lat="48.68711" lon="1.86863">
        <ele>171</ele>
        <time>2022-09-18T09:05:31Z</time>
      </trkpt>
      <trkpt lat="48.68721" lon="1.86862">
        <ele>171</ele>
        <time>2022-09-18T09:05:34Z</time>
      </trkpt>
      <trkpt lat="48.68731" lon="1.86858">
        <ele>171.3</ele>
        <time>2022-09-18T09:05:37Z</time>
      </trkpt>
      <trkpt lat="48.68742" lon="1.86852">
        <ele>171.7</ele>
        <time>2022-09-18T09:05:40Z</time>
      </trkpt>
      <trkpt lat="48.68754" lon="1.86847">
        <ele>172</ele>
        <time>2022-09-18T09:05:43Z</time>
      </trkpt>
      <trkpt lat="48.68765" lon="1.86844">
        <ele>172</ele>
        <time>2022-09-18T09:05:45Z</time>
      </trkpt>
      <trkpt lat="48.68775" lon="1.8684">
        <ele>172</ele>
        <time>2022-09-18T09:05:47Z</time>
      </trkpt>
      <trkpt lat="48.68784" lon="1.86837">
        <ele>172</ele>
        <time>2022-09-18T09:05:49Z</time>
      </trkpt>
      <trkpt lat="48.68796" lon="1.86833">
        <ele>172</ele>
        <time>2022-09-18T09:05:52Z</time>
      </trkpt>
      <trkpt lat="48.68805" lon="1.8683">
        <ele>172</ele>
        <time>2022-09-18T09:05:54Z</time>
      </trkpt>
      <trkpt lat="48.68815" lon="1.86825">
        <ele>172</ele>
        <time>2022-09-18T09:05:56Z</time>
      </trkpt>
      <trkpt lat="48.68825" lon="1.86822">
        <ele>172</ele>
        <time>2022-09-18T09:05:58Z</time>
      </trkpt>
      <trkpt lat="48.68835" lon="1.86818">
        <ele>172</ele>
        <time>2022-09-18T09:06:00Z</time>
      </trkpt>
      <trkpt lat="48.68846" lon="1.8681">
        <ele>172</ele>
        <time>2022-09-18T09:06:03Z</time>
      </trkpt>
      <trkpt lat="48.68857" lon="1.86808">
        <ele>172</ele>
        <time>2022-09-18T09:06:06Z</time>
      </trkpt>
      <trkpt lat="48.68871" lon="1.86805">
        <ele>172.3</ele>
        <time>2022-09-18T09:06:09Z</time>
      </trkpt>
      <trkpt lat="48.6888" lon="1.86798">
        <ele>172.7</ele>
        <time>2022-09-18T09:06:11Z</time>
      </trkpt>
      <trkpt lat="48.68889" lon="1.86803">
        <ele>173</ele>
        <time>2022-09-18T09:06:13Z</time>
      </trkpt>
      <trkpt lat="48.68898" lon="1.86817">
        <ele>172.7</ele>
        <time>2022-09-18T09:06:16Z</time>
      </trkpt>
      <trkpt lat="48.68902" lon="1.86836">
        <ele>172.5</ele>
        <time>2022-09-18T09:06:19Z</time>
      </trkpt>
      <trkpt lat="48.68907" lon="1.86849">
        <ele>172.1</ele>
        <time>2022-09-18T09:06:21Z</time>
      </trkpt>
      <trkpt lat="48.68914" lon="1.8686">
        <ele>172</ele>
        <time>2022-09-18T09:06:23Z</time>
      </trkpt>
      <trkpt lat="48.68923" lon="1.86868">
        <ele>172</ele>
        <time>2022-09-18T09:06:25Z</time>
      </trkpt>
      <trkpt lat="48.68933" lon="1.8687">
        <ele>172</ele>
        <time>2022-09-18T09:06:27Z</time>
      </trkpt>
      <trkpt lat="48.68945" lon="1.8687">
        <ele>172</ele>
        <time>2022-09-18T09:06:30Z</time>
      </trkpt>
      <trkpt lat="48.68958" lon="1.86869">
        <ele>172</ele>
        <time>2022-09-18T09:06:33Z</time>
      </trkpt>
      <trkpt lat="48.6897" lon="1.86868">
        <ele>172</ele>
        <time>2022-09-18T09:06:36Z</time>
      </trkpt>
      <trkpt lat="48.68981" lon="1.8687">
        <ele>172</ele>
        <time>2022-09-18T09:06:39Z</time>
      </trkpt>
      <trkpt lat="48.68992" lon="1.86867">
        <ele>172</ele>
        <time>2022-09-18T09:06:42Z</time>
      </trkpt>
      <trkpt lat="48.69005" lon="1.86865">
        <ele>172</ele>
        <time>2022-09-18T09:06:45Z</time>
      </trkpt>
      <trkpt lat="48.69017" lon="1.86866">
        <ele>172</ele>
        <time>2022-09-18T09:06:48Z</time>
      </trkpt>
      <trkpt lat="48.69028" lon="1.86866">
        <ele>172</ele>
        <time>2022-09-18T09:06:51Z</time>
      </trkpt>
      <trkpt lat="48.69039" lon="1.86866">
        <ele>172.3</ele>
        <time>2022-09-18T09:06:54Z</time>
      </trkpt>
      <trkpt lat="48.6905" lon="1.86865">
        <ele>172.7</ele>
        <time>2022-09-18T09:06:57Z</time>
      </trkpt>
      <trkpt lat="48.69062" lon="1.86865">
        <ele>172.9</ele>
        <time>2022-09-18T09:07:00Z</time>
      </trkpt>
      <trkpt lat="48.69074" lon="1.86865">
        <ele>172.9</ele>
        <time>2022-09-18T09:07:03Z</time>
      </trkpt>
      <trkpt lat="48.69088" lon="1.86863">
        <ele>172.9</ele>
        <time>2022-09-18T09:07:06Z</time>
      </trkpt>
      <trkpt lat="48.69097" lon="1.86862">
        <ele>173</ele>
        <time>2022-09-18T09:07:08Z</time>
      </trkpt>
      <trkpt lat="48.69108" lon="1.86864">
        <ele>173</ele>
        <time>2022-09-18T09:07:11Z</time>
      </trkpt>
      <trkpt lat="48.6912" lon="1.86863">
        <ele>173</ele>
        <time>2022-09-18T09:07:14Z</time>
      </trkpt>
      <trkpt lat="48.69129" lon="1.86862">
        <ele>173</ele>
        <time>2022-09-18T09:07:16Z</time>
      </trkpt>
      <trkpt lat="48.69138" lon="1.86861">
        <ele>173</ele>
        <time>2022-09-18T09:07:18Z</time>
      </trkpt>
      <trkpt lat="48.69151" lon="1.8686">
        <ele>173</ele>
        <time>2022-09-18T09:07:21Z</time>
      </trkpt>
      <trkpt lat="48.69162" lon="1.86859">
        <ele>173</ele>
        <time>2022-09-18T09:07:24Z</time>
      </trkpt>
      <trkpt lat="48.69174" lon="1.86859">
        <ele>172.7</ele>
        <time>2022-09-18T09:07:27Z</time>
      </trkpt>
      <trkpt lat="48.69183" lon="1.86857">
        <ele>172.5</ele>
        <time>2022-09-18T09:07:29Z</time>
      </trkpt>
      <trkpt lat="48.69192" lon="1.86857">
        <ele>172.2</ele>
        <time>2022-09-18T09:07:31Z</time>
      </trkpt>
      <trkpt lat="48.69202" lon="1.86856">
        <ele>172.1</ele>
        <time>2022-09-18T09:07:33Z</time>
      </trkpt>
      <trkpt lat="48.69212" lon="1.86856">
        <ele>172.1</ele>
        <time>2022-09-18T09:07:35Z</time>
      </trkpt>
      <trkpt lat="48.69222" lon="1.86856">
        <ele>172</ele>
        <time>2022-09-18T09:07:37Z</time>
      </trkpt>
      <trkpt lat="48.69232" lon="1.86855">
        <ele>172.3</ele>
        <time>2022-09-18T09:07:39Z</time>
      </trkpt>
      <trkpt lat="48.69241" lon="1.86854">
        <ele>172.7</ele>
        <time>2022-09-18T09:07:41Z</time>
      </trkpt>
      <trkpt lat="48.6925" lon="1.86847">
        <ele>173</ele>
        <time>2022-09-18T09:07:43Z</time>
      </trkpt>
      <trkpt lat="48.69256" lon="1.86837">
        <ele>173</ele>
        <time>2022-09-18T09:07:45Z</time>
      </trkpt>
      <trkpt lat="48.6926" lon="1.86823">
        <ele>173</ele>
        <time>2022-09-18T09:07:47Z</time>
      </trkpt>
      <trkpt lat="48.69265" lon="1.86811">
        <ele>173</ele>
        <time>2022-09-18T09:07:49Z</time>
      </trkpt>
      <trkpt lat="48.6927" lon="1.86795">
        <ele>172.9</ele>
        <time>2022-09-18T09:07:52Z</time>
      </trkpt>
      <trkpt lat="48.69267" lon="1.86809">
        <ele>173</ele>
        <time>2022-09-18T09:08:12Z</time>
      </trkpt>
      <trkpt lat="48.69262" lon="1.8682">
        <ele>173</ele>
        <time>2022-09-18T09:08:15Z</time>
      </trkpt>
      <trkpt lat="48.69257" lon="1.86836">
        <ele>173</ele>
        <time>2022-09-18T09:08:18Z</time>
      </trkpt>
      <trkpt lat="48.69248" lon="1.8685">
        <ele>172.9</ele>
        <time>2022-09-18T09:08:21Z</time>
      </trkpt>
      <trkpt lat="48.69239" lon="1.86854">
        <ele>172.6</ele>
        <time>2022-09-18T09:08:23Z</time>
      </trkpt>
      <trkpt lat="48.69226" lon="1.86857">
        <ele>172.1</ele>
        <time>2022-09-18T09:08:26Z</time>
      </trkpt>
      <trkpt lat="48.69219" lon="1.86869">
        <ele>172</ele>
        <time>2022-09-18T09:08:29Z</time>
      </trkpt>
      <trkpt lat="48.69225" lon="1.86886">
        <ele>172</ele>
        <time>2022-09-18T09:08:32Z</time>
      </trkpt>
      <trkpt lat="48.69231" lon="1.86896">
        <ele>172</ele>
        <time>2022-09-18T09:08:34Z</time>
      </trkpt>
      <trkpt lat="48.69239" lon="1.86904">
        <ele>172</ele>
        <time>2022-09-18T09:08:36Z</time>
      </trkpt>
      <trkpt lat="48.69248" lon="1.869">
        <ele>172</ele>
        <time>2022-09-18T09:08:40Z</time>
      </trkpt>
      <trkpt lat="48.69257" lon="1.86894">
        <ele>172</ele>
        <time>2022-09-18T09:08:45Z</time>
      </trkpt>
      <trkpt lat="48.69267" lon="1.86887">
        <ele>172</ele>
        <time>2022-09-18T09:08:49Z</time>
      </trkpt>
      <trkpt lat="48.69277" lon="1.86879">
        <ele>172</ele>
        <time>2022-09-18T09:08:52Z</time>
      </trkpt>
      <trkpt lat="48.69288" lon="1.8687">
        <ele>171.9</ele>
        <time>2022-09-18T09:08:55Z</time>
      </trkpt>
      <trkpt lat="48.69299" lon="1.86861">
        <ele>172</ele>
        <time>2022-09-18T09:08:58Z</time>
      </trkpt>
      <trkpt lat="48.6931" lon="1.86851">
        <ele>171.8</ele>
        <time>2022-09-18T09:09:01Z</time>
      </trkpt>
      <trkpt lat="48.6932" lon="1.86841">
        <ele>171.5</ele>
        <time>2022-09-18T09:09:04Z</time>
      </trkpt>
      <trkpt lat="48.69329" lon="1.86834">
        <ele>171.2</ele>
        <time>2022-09-18T09:09:07Z</time>
      </trkpt>
      <trkpt lat="48.69339" lon="1.86827">
        <ele>170.8</ele>
        <time>2022-09-18T09:09:10Z</time>
      </trkpt>
      <trkpt lat="48.69347" lon="1.86821">
        <ele>170.5</ele>
        <time>2022-09-18T09:09:13Z</time>
      </trkpt>
      <trkpt lat="48.69357" lon="1.86811">
        <ele>170.1</ele>
        <time>2022-09-18T09:09:16Z</time>
      </trkpt>
      <trkpt lat="48.69366" lon="1.86806">
        <ele>169.8</ele>
        <time>2022-09-18T09:09:18Z</time>
      </trkpt>
      <trkpt lat="48.69374" lon="1.868">
        <ele>169.6</ele>
        <time>2022-09-18T09:09:20Z</time>
      </trkpt>
      <trkpt lat="48.69383" lon="1.86793">
        <ele>169.3</ele>
        <time>2022-09-18T09:09:22Z</time>
      </trkpt>
      <trkpt lat="48.69391" lon="1.86786">
        <ele>168.8</ele>
        <time>2022-09-18T09:09:24Z</time>
      </trkpt>
      <trkpt lat="48.694" lon="1.8678">
        <ele>168.2</ele>
        <time>2022-09-18T09:09:27Z</time>
      </trkpt>
      <trkpt lat="48.6941" lon="1.8677">
        <ele>167.5</ele>
        <time>2022-09-18T09:09:31Z</time>
      </trkpt>
      <trkpt lat="48.69419" lon="1.86772">
        <ele>166.7</ele>
        <time>2022-09-18T09:09:34Z</time>
      </trkpt>
      <trkpt lat="48.69426" lon="1.86787">
        <ele>165.6</ele>
        <time>2022-09-18T09:09:37Z</time>
      </trkpt>
      <trkpt lat="48.69431" lon="1.86799">
        <ele>164.7</ele>
        <time>2022-09-18T09:09:39Z</time>
      </trkpt>
      <trkpt lat="48.69436" lon="1.86813">
        <ele>163.9</ele>
        <time>2022-09-18T09:09:41Z</time>
      </trkpt>
      <trkpt lat="48.69443" lon="1.86828">
        <ele>163.1</ele>
        <time>2022-09-18T09:09:43Z</time>
      </trkpt>
      <trkpt lat="48.69451" lon="1.86845">
        <ele>162.6</ele>
        <time>2022-09-18T09:09:45Z</time>
      </trkpt>
      <trkpt lat="48.69456" lon="1.86859">
        <ele>162.2</ele>
        <time>2022-09-18T09:09:47Z</time>
      </trkpt>
      <trkpt lat="48.69463" lon="1.86872">
        <ele>161.7</ele>
        <time>2022-09-18T09:09:49Z</time>
      </trkpt>
      <trkpt lat="48.69463" lon="1.86887">
        <ele>161.6</ele>
        <time>2022-09-18T09:09:52Z</time>
      </trkpt>
      <trkpt lat="48.69469" lon="1.86902">
        <ele>161.3</ele>
        <time>2022-09-18T09:09:55Z</time>
      </trkpt>
      <trkpt lat="48.69473" lon="1.86921">
        <ele>161.3</ele>
        <time>2022-09-18T09:09:58Z</time>
      </trkpt>
      <trkpt lat="48.69479" lon="1.86938">
        <ele>162.1</ele>
        <time>2022-09-18T09:10:01Z</time>
      </trkpt>
      <trkpt lat="48.6949" lon="1.86948">
        <ele>162.1</ele>
        <time>2022-09-18T09:10:04Z</time>
      </trkpt>
      <trkpt lat="48.69499" lon="1.86952">
        <ele>161.9</ele>
        <time>2022-09-18T09:10:06Z</time>
      </trkpt>
      <trkpt lat="48.69509" lon="1.86958">
        <ele>161.8</ele>
        <time>2022-09-18T09:10:08Z</time>
      </trkpt>
      <trkpt lat="48.6952" lon="1.86964">
        <ele>161.6</ele>
        <time>2022-09-18T09:10:10Z</time>
      </trkpt>
      <trkpt lat="48.69532" lon="1.8697">
        <ele>161.5</ele>
        <time>2022-09-18T09:10:12Z</time>
      </trkpt>
      <trkpt lat="48.69544" lon="1.86976">
        <ele>161.3</ele>
        <time>2022-09-18T09:10:14Z</time>
      </trkpt>
      <trkpt lat="48.69557" lon="1.86983">
        <ele>161.1</ele>
        <time>2022-09-18T09:10:16Z</time>
      </trkpt>
      <trkpt lat="48.69568" lon="1.8699">
        <ele>160.8</ele>
        <time>2022-09-18T09:10:18Z</time>
      </trkpt>
      <trkpt lat="48.69579" lon="1.87001">
        <ele>160.6</ele>
        <time>2022-09-18T09:10:20Z</time>
      </trkpt>
      <trkpt lat="48.69589" lon="1.87009">
        <ele>160.4</ele>
        <time>2022-09-18T09:10:22Z</time>
      </trkpt>
      <trkpt lat="48.696" lon="1.87017">
        <ele>160.3</ele>
        <time>2022-09-18T09:10:24Z</time>
      </trkpt>
      <trkpt lat="48.6961" lon="1.87028">
        <ele>160.1</ele>
        <time>2022-09-18T09:10:26Z</time>
      </trkpt>
      <trkpt lat="48.69621" lon="1.87039">
        <ele>160.3</ele>
        <time>2022-09-18T09:10:28Z</time>
      </trkpt>
      <trkpt lat="48.6963" lon="1.87055">
        <ele>160.3</ele>
        <time>2022-09-18T09:10:30Z</time>
      </trkpt>
      <trkpt lat="48.69639" lon="1.87066">
        <ele>159.4</ele>
        <time>2022-09-18T09:10:32Z</time>
      </trkpt>
      <trkpt lat="48.69648" lon="1.87081">
        <ele>159</ele>
        <time>2022-09-18T09:10:34Z</time>
      </trkpt>
      <trkpt lat="48.69651" lon="1.87097">
        <ele>158.9</ele>
        <time>2022-09-18T09:10:36Z</time>
      </trkpt>
      <trkpt lat="48.69655" lon="1.87114">
        <ele>158.8</ele>
        <time>2022-09-18T09:10:38Z</time>
      </trkpt>
      <trkpt lat="48.69658" lon="1.8713">
        <ele>158.4</ele>
        <time>2022-09-18T09:10:41Z</time>
      </trkpt>
      <trkpt lat="48.69661" lon="1.87147">
        <ele>158.4</ele>
        <time>2022-09-18T09:10:44Z</time>
      </trkpt>
      <trkpt lat="48.6966" lon="1.87164">
        <ele>159.2</ele>
        <time>2022-09-18T09:10:47Z</time>
      </trkpt>
      <trkpt lat="48.69662" lon="1.87182">
        <ele>159.6</ele>
        <time>2022-09-18T09:10:49Z</time>
      </trkpt>
      <trkpt lat="48.69666" lon="1.872">
        <ele>159.2</ele>
        <time>2022-09-18T09:10:51Z</time>
      </trkpt>
      <trkpt lat="48.6967" lon="1.87218">
        <ele>158.6</ele>
        <time>2022-09-18T09:10:53Z</time>
      </trkpt>
      <trkpt lat="48.69676" lon="1.87232">
        <ele>158.8</ele>
        <time>2022-09-18T09:10:55Z</time>
      </trkpt>
      <trkpt lat="48.69682" lon="1.8725">
        <ele>159.2</ele>
        <time>2022-09-18T09:10:57Z</time>
      </trkpt>
      <trkpt lat="48.69688" lon="1.87267">
        <ele>158.8</ele>
        <time>2022-09-18T09:10:59Z</time>
      </trkpt>
      <trkpt lat="48.69694" lon="1.87286">
        <ele>158</ele>
        <time>2022-09-18T09:11:01Z</time>
      </trkpt>
      <trkpt lat="48.69696" lon="1.87304">
        <ele>157.9</ele>
        <time>2022-09-18T09:11:03Z</time>
      </trkpt>
      <trkpt lat="48.69702" lon="1.8732">
        <ele>157.4</ele>
        <time>2022-09-18T09:11:05Z</time>
      </trkpt>
      <trkpt lat="48.69703" lon="1.87337">
        <ele>157</ele>
        <time>2022-09-18T09:11:07Z</time>
      </trkpt>
      <trkpt lat="48.69706" lon="1.87358">
        <ele>155.9</ele>
        <time>2022-09-18T09:11:09Z</time>
      </trkpt>
      <trkpt lat="48.69708" lon="1.87376">
        <ele>155.5</ele>
        <time>2022-09-18T09:11:11Z</time>
      </trkpt>
      <trkpt lat="48.69713" lon="1.87395">
        <ele>155.1</ele>
        <time>2022-09-18T09:11:13Z</time>
      </trkpt>
      <trkpt lat="48.69714" lon="1.87414">
        <ele>155.4</ele>
        <time>2022-09-18T09:11:15Z</time>
      </trkpt>
      <trkpt lat="48.69716" lon="1.8743">
        <ele>155.6</ele>
        <time>2022-09-18T09:11:17Z</time>
      </trkpt>
      <trkpt lat="48.6972" lon="1.87446">
        <ele>155.6</ele>
        <time>2022-09-18T09:11:19Z</time>
      </trkpt>
      <trkpt lat="48.69721" lon="1.87463">
        <ele>156.7</ele>
        <time>2022-09-18T09:11:21Z</time>
      </trkpt>
      <trkpt lat="48.69724" lon="1.8748">
        <ele>157</ele>
        <time>2022-09-18T09:11:23Z</time>
      </trkpt>
      <trkpt lat="48.69729" lon="1.87498">
        <ele>156.5</ele>
        <time>2022-09-18T09:11:25Z</time>
      </trkpt>
      <trkpt lat="48.69737" lon="1.87517">
        <ele>155.7</ele>
        <time>2022-09-18T09:11:27Z</time>
      </trkpt>
      <trkpt lat="48.69747" lon="1.87533">
        <ele>154.2</ele>
        <time>2022-09-18T09:11:29Z</time>
      </trkpt>
      <trkpt lat="48.69756" lon="1.87549">
        <ele>153.8</ele>
        <time>2022-09-18T09:11:31Z</time>
      </trkpt>
      <trkpt lat="48.69765" lon="1.87563">
        <ele>153.2</ele>
        <time>2022-09-18T09:11:33Z</time>
      </trkpt>
      <trkpt lat="48.69776" lon="1.87578">
        <ele>152.1</ele>
        <time>2022-09-18T09:11:35Z</time>
      </trkpt>
      <trkpt lat="48.69782" lon="1.87589">
        <ele>152.2</ele>
        <time>2022-09-18T09:11:37Z</time>
      </trkpt>
      <trkpt lat="48.69793" lon="1.87602">
        <ele>152</ele>
        <time>2022-09-18T09:11:39Z</time>
      </trkpt>
      <trkpt lat="48.69802" lon="1.87618">
        <ele>151.5</ele>
        <time>2022-09-18T09:11:41Z</time>
      </trkpt>
      <trkpt lat="48.69809" lon="1.87637">
        <ele>151</ele>
        <time>2022-09-18T09:11:43Z</time>
      </trkpt>
      <trkpt lat="48.69812" lon="1.87657">
        <ele>150.8</ele>
        <time>2022-09-18T09:11:45Z</time>
      </trkpt>
      <trkpt lat="48.69814" lon="1.8768">
        <ele>150.9</ele>
        <time>2022-09-18T09:11:47Z</time>
      </trkpt>
      <trkpt lat="48.69817" lon="1.87698">
        <ele>150.7</ele>
        <time>2022-09-18T09:11:49Z</time>
      </trkpt>
      <trkpt lat="48.6982" lon="1.87719">
        <ele>150.4</ele>
        <time>2022-09-18T09:11:51Z</time>
      </trkpt>
      <trkpt lat="48.69823" lon="1.87739">
        <ele>150.1</ele>
        <time>2022-09-18T09:11:53Z</time>
      </trkpt>
      <trkpt lat="48.69827" lon="1.87756">
        <ele>149.5</ele>
        <time>2022-09-18T09:11:55Z</time>
      </trkpt>
      <trkpt lat="48.69829" lon="1.87775">
        <ele>148.7</ele>
        <time>2022-09-18T09:11:57Z</time>
      </trkpt>
      <trkpt lat="48.69831" lon="1.87795">
        <ele>148.2</ele>
        <time>2022-09-18T09:11:59Z</time>
      </trkpt>
      <trkpt lat="48.69837" lon="1.87813">
        <ele>148.1</ele>
        <time>2022-09-18T09:12:01Z</time>
      </trkpt>
      <trkpt lat="48.69842" lon="1.87833">
        <ele>148</ele>
        <time>2022-09-18T09:12:03Z</time>
      </trkpt>
      <trkpt lat="48.69844" lon="1.87851">
        <ele>148</ele>
        <time>2022-09-18T09:12:05Z</time>
      </trkpt>
      <trkpt lat="48.69846" lon="1.87867">
        <ele>148</ele>
        <time>2022-09-18T09:12:07Z</time>
      </trkpt>
      <trkpt lat="48.69846" lon="1.87887">
        <ele>148</ele>
        <time>2022-09-18T09:12:09Z</time>
      </trkpt>
      <trkpt lat="48.69846" lon="1.87906">
        <ele>147.4</ele>
        <time>2022-09-18T09:12:11Z</time>
      </trkpt>
      <trkpt lat="48.69846" lon="1.87925">
        <ele>147</ele>
        <time>2022-09-18T09:12:13Z</time>
      </trkpt>
      <trkpt lat="48.69849" lon="1.87944">
        <ele>147</ele>
        <time>2022-09-18T09:12:15Z</time>
      </trkpt>
      <trkpt lat="48.69855" lon="1.87964">
        <ele>146.5</ele>
        <time>2022-09-18T09:12:17Z</time>
      </trkpt>
      <trkpt lat="48.69862" lon="1.87972">
        <ele>146.1</ele>
        <time>2022-09-18T09:12:19Z</time>
      </trkpt>
      <trkpt lat="48.69876" lon="1.87977">
        <ele>146.4</ele>
        <time>2022-09-18T09:12:22Z</time>
      </trkpt>
      <trkpt lat="48.69884" lon="1.87983">
        <ele>146.5</ele>
        <time>2022-09-18T09:12:24Z</time>
      </trkpt>
      <trkpt lat="48.6989" lon="1.87994">
        <ele>146.2</ele>
        <time>2022-09-18T09:12:26Z</time>
      </trkpt>
      <trkpt lat="48.69895" lon="1.88009">
        <ele>145.9</ele>
        <time>2022-09-18T09:12:28Z</time>
      </trkpt>
      <trkpt lat="48.69902" lon="1.88023">
        <ele>145.6</ele>
        <time>2022-09-18T09:12:30Z</time>
      </trkpt>
      <trkpt lat="48.69906" lon="1.88036">
        <ele>145.3</ele>
        <time>2022-09-18T09:12:32Z</time>
      </trkpt>
      <trkpt lat="48.69912" lon="1.88049">
        <ele>144.7</ele>
        <time>2022-09-18T09:12:34Z</time>
      </trkpt>
      <trkpt lat="48.69917" lon="1.88061">
        <ele>144.2</ele>
        <time>2022-09-18T09:12:36Z</time>
      </trkpt>
      <trkpt lat="48.69921" lon="1.88074">
        <ele>144.5</ele>
        <time>2022-09-18T09:12:38Z</time>
      </trkpt>
      <trkpt lat="48.6993" lon="1.88088">
        <ele>144.9</ele>
        <time>2022-09-18T09:12:41Z</time>
      </trkpt>
      <trkpt lat="48.69938" lon="1.88097">
        <ele>145</ele>
        <time>2022-09-18T09:12:43Z</time>
      </trkpt>
      <trkpt lat="48.69947" lon="1.88106">
        <ele>144.8</ele>
        <time>2022-09-18T09:12:45Z</time>
      </trkpt>
      <trkpt lat="48.69956" lon="1.88116">
        <ele>144.8</ele>
        <time>2022-09-18T09:12:47Z</time>
      </trkpt>
      <trkpt lat="48.69967" lon="1.88123">
        <ele>144.4</ele>
        <time>2022-09-18T09:12:49Z</time>
      </trkpt>
      <trkpt lat="48.69975" lon="1.88131">
        <ele>144</ele>
        <time>2022-09-18T09:12:51Z</time>
      </trkpt>
      <trkpt lat="48.69983" lon="1.88138">
        <ele>144</ele>
        <time>2022-09-18T09:12:53Z</time>
      </trkpt>
      <trkpt lat="48.69992" lon="1.88147">
        <ele>144.2</ele>
        <time>2022-09-18T09:12:55Z</time>
      </trkpt>
      <trkpt lat="48.7" lon="1.88156">
        <ele>144</ele>
        <time>2022-09-18T09:12:57Z</time>
      </trkpt>
      <trkpt lat="48.70006" lon="1.88167">
        <ele>144</ele>
        <time>2022-09-18T09:12:59Z</time>
      </trkpt>
      <trkpt lat="48.70009" lon="1.88181">
        <ele>144.3</ele>
        <time>2022-09-18T09:13:01Z</time>
      </trkpt>
      <trkpt lat="48.70013" lon="1.88197">
        <ele>144.5</ele>
        <time>2022-09-18T09:13:03Z</time>
      </trkpt>
      <trkpt lat="48.70017" lon="1.88212">
        <ele>144.4</ele>
        <time>2022-09-18T09:13:05Z</time>
      </trkpt>
      <trkpt lat="48.70022" lon="1.88228">
        <ele>144.2</ele>
        <time>2022-09-18T09:13:07Z</time>
      </trkpt>
      <trkpt lat="48.70024" lon="1.88243">
        <ele>144.1</ele>
        <time>2022-09-18T09:13:09Z</time>
      </trkpt>
      <trkpt lat="48.70028" lon="1.88258">
        <ele>144</ele>
        <time>2022-09-18T09:13:11Z</time>
      </trkpt>
      <trkpt lat="48.70033" lon="1.88272">
        <ele>144</ele>
        <time>2022-09-18T09:13:13Z</time>
      </trkpt>
      <trkpt lat="48.70036" lon="1.88288">
        <ele>144</ele>
        <time>2022-09-18T09:13:15Z</time>
      </trkpt>
      <trkpt lat="48.7004" lon="1.88302">
        <ele>144</ele>
        <time>2022-09-18T09:13:17Z</time>
      </trkpt>
      <trkpt lat="48.70045" lon="1.88316">
        <ele>144.2</ele>
        <time>2022-09-18T09:13:19Z</time>
      </trkpt>
      <trkpt lat="48.7005" lon="1.88331">
        <ele>144.7</ele>
        <time>2022-09-18T09:13:21Z</time>
      </trkpt>
      <trkpt lat="48.70055" lon="1.88343">
        <ele>145</ele>
        <time>2022-09-18T09:13:23Z</time>
      </trkpt>
      <trkpt lat="48.7006" lon="1.88355">
        <ele>145.1</ele>
        <time>2022-09-18T09:13:25Z</time>
      </trkpt>
      <trkpt lat="48.70063" lon="1.88368">
        <ele>145.5</ele>
        <time>2022-09-18T09:13:27Z</time>
      </trkpt>
      <trkpt lat="48.70069" lon="1.88384">
        <ele>146.3</ele>
        <time>2022-09-18T09:13:30Z</time>
      </trkpt>
      <trkpt lat="48.70075" lon="1.88397">
        <ele>147</ele>
        <time>2022-09-18T09:13:33Z</time>
      </trkpt>
      <trkpt lat="48.70079" lon="1.88411">
        <ele>147.6</ele>
        <time>2022-09-18T09:13:36Z</time>
      </trkpt>
      <trkpt lat="48.70084" lon="1.88423">
        <ele>148.4</ele>
        <time>2022-09-18T09:13:39Z</time>
      </trkpt>
      <trkpt lat="48.70089" lon="1.88435">
        <ele>149.3</ele>
        <time>2022-09-18T09:13:42Z</time>
      </trkpt>
      <trkpt lat="48.70095" lon="1.88448">
        <ele>150.1</ele>
        <time>2022-09-18T09:13:46Z</time>
      </trkpt>
      <trkpt lat="48.70104" lon="1.88451">
        <ele>150.2</ele>
        <time>2022-09-18T09:13:51Z</time>
      </trkpt>
      <trkpt lat="48.70113" lon="1.88447">
        <ele>150</ele>
        <time>2022-09-18T09:13:54Z</time>
      </trkpt>
      <trkpt lat="48.70125" lon="1.88445">
        <ele>149.5</ele>
        <time>2022-09-18T09:13:57Z</time>
      </trkpt>
      <trkpt lat="48.70138" lon="1.88449">
        <ele>149.2</ele>
        <time>2022-09-18T09:14:00Z</time>
      </trkpt>
      <trkpt lat="48.7015" lon="1.88455">
        <ele>149</ele>
        <time>2022-09-18T09:14:03Z</time>
      </trkpt>
      <trkpt lat="48.70163" lon="1.88464">
        <ele>148.8</ele>
        <time>2022-09-18T09:14:06Z</time>
      </trkpt>
      <trkpt lat="48.70172" lon="1.88469">
        <ele>148.7</ele>
        <time>2022-09-18T09:14:08Z</time>
      </trkpt>
      <trkpt lat="48.70185" lon="1.88475">
        <ele>148.4</ele>
        <time>2022-09-18T09:14:11Z</time>
      </trkpt>
      <trkpt lat="48.70196" lon="1.88479">
        <ele>148</ele>
        <time>2022-09-18T09:14:14Z</time>
      </trkpt>
      <trkpt lat="48.70207" lon="1.88488">
        <ele>148</ele>
        <time>2022-09-18T09:14:17Z</time>
      </trkpt>
      <trkpt lat="48.70216" lon="1.88493">
        <ele>148</ele>
        <time>2022-09-18T09:14:19Z</time>
      </trkpt>
      <trkpt lat="48.70224" lon="1.88498">
        <ele>148</ele>
        <time>2022-09-18T09:14:21Z</time>
      </trkpt>
      <trkpt lat="48.70233" lon="1.88504">
        <ele>148</ele>
        <time>2022-09-18T09:14:23Z</time>
      </trkpt>
      <trkpt lat="48.70243" lon="1.88516">
        <ele>148</ele>
        <time>2022-09-18T09:14:26Z</time>
      </trkpt>
      <trkpt lat="48.7025" lon="1.88533">
        <ele>148</ele>
        <time>2022-09-18T09:14:29Z</time>
      </trkpt>
      <trkpt lat="48.7025" lon="1.88547">
        <ele>148</ele>
        <time>2022-09-18T09:14:31Z</time>
      </trkpt>
      <trkpt lat="48.70249" lon="1.88563">
        <ele>148</ele>
        <time>2022-09-18T09:14:33Z</time>
      </trkpt>
      <trkpt lat="48.70247" lon="1.88578">
        <ele>148</ele>
        <time>2022-09-18T09:14:35Z</time>
      </trkpt>
      <trkpt lat="48.70246" lon="1.88594">
        <ele>147.7</ele>
        <time>2022-09-18T09:14:37Z</time>
      </trkpt>
      <trkpt lat="48.70243" lon="1.8861">
        <ele>147.3</ele>
        <time>2022-09-18T09:14:39Z</time>
      </trkpt>
      <trkpt lat="48.70241" lon="1.88626">
        <ele>147.3</ele>
        <time>2022-09-18T09:14:41Z</time>
      </trkpt>
      <trkpt lat="48.70239" lon="1.88643">
        <ele>147.3</ele>
        <time>2022-09-18T09:14:43Z</time>
      </trkpt>
      <trkpt lat="48.70236" lon="1.88659">
        <ele>146.8</ele>
        <time>2022-09-18T09:14:45Z</time>
      </trkpt>
      <trkpt lat="48.70233" lon="1.88675">
        <ele>146.4</ele>
        <time>2022-09-18T09:14:47Z</time>
      </trkpt>
      <trkpt lat="48.7023" lon="1.88692">
        <ele>146.1</ele>
        <time>2022-09-18T09:14:49Z</time>
      </trkpt>
      <trkpt lat="48.70227" lon="1.88711">
        <ele>145.4</ele>
        <time>2022-09-18T09:14:51Z</time>
      </trkpt>
      <trkpt lat="48.70225" lon="1.88731">
        <ele>144.4</ele>
        <time>2022-09-18T09:14:53Z</time>
      </trkpt>
      <trkpt lat="48.70225" lon="1.88753">
        <ele>143</ele>
        <time>2022-09-18T09:14:55Z</time>
      </trkpt>
      <trkpt lat="48.70226" lon="1.88777">
        <ele>142.3</ele>
        <time>2022-09-18T09:14:57Z</time>
      </trkpt>
      <trkpt lat="48.70228" lon="1.88802">
        <ele>142</ele>
        <time>2022-09-18T09:14:59Z</time>
      </trkpt>
      <trkpt lat="48.70229" lon="1.88829">
        <ele>141.2</ele>
        <time>2022-09-18T09:15:01Z</time>
      </trkpt>
      <trkpt lat="48.7023" lon="1.88856">
        <ele>140.2</ele>
        <time>2022-09-18T09:15:03Z</time>
      </trkpt>
      <trkpt lat="48.70231" lon="1.88869">
        <ele>139.9</ele>
        <time>2022-09-18T09:15:04Z</time>
      </trkpt>
      <trkpt lat="48.70232" lon="1.88896">
        <ele>139.5</ele>
        <time>2022-09-18T09:15:06Z</time>
      </trkpt>
      <trkpt lat="48.70233" lon="1.88922">
        <ele>138.9</ele>
        <time>2022-09-18T09:15:08Z</time>
      </trkpt>
      <trkpt lat="48.70234" lon="1.88946">
        <ele>138.6</ele>
        <time>2022-09-18T09:15:10Z</time>
      </trkpt>
      <trkpt lat="48.70233" lon="1.8897">
        <ele>138.6</ele>
        <time>2022-09-18T09:15:12Z</time>
      </trkpt>
      <trkpt lat="48.70229" lon="1.88993">
        <ele>138.8</ele>
        <time>2022-09-18T09:15:14Z</time>
      </trkpt>
      <trkpt lat="48.70223" lon="1.89013">
        <ele>139</ele>
        <time>2022-09-18T09:15:16Z</time>
      </trkpt>
      <trkpt lat="48.70217" lon="1.89033">
        <ele>139</ele>
        <time>2022-09-18T09:15:18Z</time>
      </trkpt>
      <trkpt lat="48.70212" lon="1.89052">
        <ele>138.5</ele>
        <time>2022-09-18T09:15:20Z</time>
      </trkpt>
      <trkpt lat="48.70208" lon="1.8907">
        <ele>138.5</ele>
        <time>2022-09-18T09:15:22Z</time>
      </trkpt>
      <trkpt lat="48.70203" lon="1.89089">
        <ele>138.7</ele>
        <time>2022-09-18T09:15:24Z</time>
      </trkpt>
      <trkpt lat="48.702" lon="1.89106">
        <ele>138.8</ele>
        <time>2022-09-18T09:15:26Z</time>
      </trkpt>
      <trkpt lat="48.70196" lon="1.89119">
        <ele>139</ele>
        <time>2022-09-18T09:15:28Z</time>
      </trkpt>
      <trkpt lat="48.70191" lon="1.89136">
        <ele>139.3</ele>
        <time>2022-09-18T09:15:31Z</time>
      </trkpt>
      <trkpt lat="48.70189" lon="1.89155">
        <ele>139.4</ele>
        <time>2022-09-18T09:15:35Z</time>
      </trkpt>
      <trkpt lat="48.70184" lon="1.89171">
        <ele>139.8</ele>
        <time>2022-09-18T09:15:38Z</time>
      </trkpt>
      <trkpt lat="48.70181" lon="1.89188">
        <ele>140</ele>
        <time>2022-09-18T09:15:41Z</time>
      </trkpt>
      <trkpt lat="48.70188" lon="1.89202">
        <ele>139.4</ele>
        <time>2022-09-18T09:15:44Z</time>
      </trkpt>
      <trkpt lat="48.70198" lon="1.89211">
        <ele>138.9</ele>
        <time>2022-09-18T09:15:46Z</time>
      </trkpt>
      <trkpt lat="48.70208" lon="1.8922">
        <ele>138.6</ele>
        <time>2022-09-18T09:15:48Z</time>
      </trkpt>
      <trkpt lat="48.70219" lon="1.8923">
        <ele>138.1</ele>
        <time>2022-09-18T09:15:50Z</time>
      </trkpt>
      <trkpt lat="48.70228" lon="1.89239">
        <ele>138.1</ele>
        <time>2022-09-18T09:15:52Z</time>
      </trkpt>
      <trkpt lat="48.70237" lon="1.8925">
        <ele>138</ele>
        <time>2022-09-18T09:15:54Z</time>
      </trkpt>
      <trkpt lat="48.70245" lon="1.89262">
        <ele>137.6</ele>
        <time>2022-09-18T09:15:56Z</time>
      </trkpt>
      <trkpt lat="48.70253" lon="1.89274">
        <ele>137.3</ele>
        <time>2022-09-18T09:15:58Z</time>
      </trkpt>
      <trkpt lat="48.70259" lon="1.89286">
        <ele>137.6</ele>
        <time>2022-09-18T09:16:00Z</time>
      </trkpt>
      <trkpt lat="48.70268" lon="1.89299">
        <ele>137.8</ele>
        <time>2022-09-18T09:16:03Z</time>
      </trkpt>
      <trkpt lat="48.70277" lon="1.89315">
        <ele>137.6</ele>
        <time>2022-09-18T09:16:06Z</time>
      </trkpt>
      <trkpt lat="48.70287" lon="1.89325">
        <ele>138.3</ele>
        <time>2022-09-18T09:16:08Z</time>
      </trkpt>
      <trkpt lat="48.70293" lon="1.89338">
        <ele>138.6</ele>
        <time>2022-09-18T09:16:10Z</time>
      </trkpt>
      <trkpt lat="48.70297" lon="1.89354">
        <ele>138.6</ele>
        <time>2022-09-18T09:16:12Z</time>
      </trkpt>
      <trkpt lat="48.70297" lon="1.89371">
        <ele>138.4</ele>
        <time>2022-09-18T09:16:14Z</time>
      </trkpt>
      <trkpt lat="48.70296" lon="1.89388">
        <ele>138.3</ele>
        <time>2022-09-18T09:16:16Z</time>
      </trkpt>
      <trkpt lat="48.70299" lon="1.89405">
        <ele>138.5</ele>
        <time>2022-09-18T09:16:18Z</time>
      </trkpt>
      <trkpt lat="48.70303" lon="1.89423">
        <ele>138.6</ele>
        <time>2022-09-18T09:16:20Z</time>
      </trkpt>
      <trkpt lat="48.70308" lon="1.89439">
        <ele>138.5</ele>
        <time>2022-09-18T09:16:22Z</time>
      </trkpt>
      <trkpt lat="48.70315" lon="1.8945">
        <ele>139.1</ele>
        <time>2022-09-18T09:16:24Z</time>
      </trkpt>
      <trkpt lat="48.70323" lon="1.89463">
        <ele>139.4</ele>
        <time>2022-09-18T09:16:26Z</time>
      </trkpt>
      <trkpt lat="48.7033" lon="1.89476">
        <ele>139.6</ele>
        <time>2022-09-18T09:16:28Z</time>
      </trkpt>
      <trkpt lat="48.70336" lon="1.89491">
        <ele>139.9</ele>
        <time>2022-09-18T09:16:30Z</time>
      </trkpt>
      <trkpt lat="48.70338" lon="1.89508">
        <ele>139.5</ele>
        <time>2022-09-18T09:16:32Z</time>
      </trkpt>
      <trkpt lat="48.70333" lon="1.8952">
        <ele>138.3</ele>
        <time>2022-09-18T09:16:34Z</time>
      </trkpt>
      <trkpt lat="48.70323" lon="1.89535">
        <ele>137.9</ele>
        <time>2022-09-18T09:16:37Z</time>
      </trkpt>
      <trkpt lat="48.70316" lon="1.89547">
        <ele>138.1</ele>
        <time>2022-09-18T09:16:39Z</time>
      </trkpt>
      <trkpt lat="48.70307" lon="1.89558">
        <ele>138.4</ele>
        <time>2022-09-18T09:16:41Z</time>
      </trkpt>
      <trkpt lat="48.70294" lon="1.89564">
        <ele>138.8</ele>
        <time>2022-09-18T09:16:43Z</time>
      </trkpt>
      <trkpt lat="48.70282" lon="1.8957">
        <ele>138.8</ele>
        <time>2022-09-18T09:16:45Z</time>
      </trkpt>
      <trkpt lat="48.70271" lon="1.89578">
        <ele>138.8</ele>
        <time>2022-09-18T09:16:47Z</time>
      </trkpt>
      <trkpt lat="48.70262" lon="1.89588">
        <ele>138.8</ele>
        <time>2022-09-18T09:16:49Z</time>
      </trkpt>
      <trkpt lat="48.70254" lon="1.89603">
        <ele>138.6</ele>
        <time>2022-09-18T09:16:52Z</time>
      </trkpt>
      <trkpt lat="48.70247" lon="1.89618">
        <ele>138.3</ele>
        <time>2022-09-18T09:16:54Z</time>
      </trkpt>
      <trkpt lat="48.7024" lon="1.89632">
        <ele>138.4</ele>
        <time>2022-09-18T09:16:56Z</time>
      </trkpt>
      <trkpt lat="48.70231" lon="1.89643">
        <ele>138.2</ele>
        <time>2022-09-18T09:16:58Z</time>
      </trkpt>
      <trkpt lat="48.70224" lon="1.89654">
        <ele>137.8</ele>
        <time>2022-09-18T09:17:00Z</time>
      </trkpt>
      <trkpt lat="48.70219" lon="1.89668">
        <ele>138</ele>
        <time>2022-09-18T09:17:02Z</time>
      </trkpt>
      <trkpt lat="48.70212" lon="1.89683">
        <ele>139</ele>
        <time>2022-09-18T09:17:05Z</time>
      </trkpt>
      <trkpt lat="48.70203" lon="1.89695">
        <ele>138.9</ele>
        <time>2022-09-18T09:17:08Z</time>
      </trkpt>
      <trkpt lat="48.70193" lon="1.89706">
        <ele>138.3</ele>
        <time>2022-09-18T09:17:10Z</time>
      </trkpt>
      <trkpt lat="48.70185" lon="1.89715">
        <ele>138.1</ele>
        <time>2022-09-18T09:17:12Z</time>
      </trkpt>
      <trkpt lat="48.70173" lon="1.89723">
        <ele>137.5</ele>
        <time>2022-09-18T09:17:15Z</time>
      </trkpt>
      <trkpt lat="48.70164" lon="1.89728">
        <ele>137.4</ele>
        <time>2022-09-18T09:17:17Z</time>
      </trkpt>
      <trkpt lat="48.70154" lon="1.89733">
        <ele>137.7</ele>
        <time>2022-09-18T09:17:19Z</time>
      </trkpt>
      <trkpt lat="48.70142" lon="1.89736">
        <ele>138</ele>
        <time>2022-09-18T09:17:21Z</time>
      </trkpt>
      <trkpt lat="48.70132" lon="1.89734">
        <ele>137.4</ele>
        <time>2022-09-18T09:17:26Z</time>
      </trkpt>
      <trkpt lat="48.70123" lon="1.89735">
        <ele>136.7</ele>
        <time>2022-09-18T09:17:29Z</time>
      </trkpt>
      <trkpt lat="48.70114" lon="1.89746">
        <ele>136.9</ele>
        <time>2022-09-18T09:17:32Z</time>
      </trkpt>
      <trkpt lat="48.70105" lon="1.89758">
        <ele>137.3</ele>
        <time>2022-09-18T09:17:34Z</time>
      </trkpt>
      <trkpt lat="48.70098" lon="1.89769">
        <ele>137.5</ele>
        <time>2022-09-18T09:17:36Z</time>
      </trkpt>
      <trkpt lat="48.70093" lon="1.89781">
        <ele>137.4</ele>
        <time>2022-09-18T09:17:38Z</time>
      </trkpt>
      <trkpt lat="48.70091" lon="1.89796">
        <ele>137.2</ele>
        <time>2022-09-18T09:17:40Z</time>
      </trkpt>
      <trkpt lat="48.7009" lon="1.89813">
        <ele>137.3</ele>
        <time>2022-09-18T09:17:42Z</time>
      </trkpt>
      <trkpt lat="48.70087" lon="1.89832">
        <ele>137.3</ele>
        <time>2022-09-18T09:17:45Z</time>
      </trkpt>
      <trkpt lat="48.70078" lon="1.89841">
        <ele>137</ele>
        <time>2022-09-18T09:17:47Z</time>
      </trkpt>
      <trkpt lat="48.70072" lon="1.8985">
        <ele>137</ele>
        <time>2022-09-18T09:17:49Z</time>
      </trkpt>
      <trkpt lat="48.70064" lon="1.89858">
        <ele>137.1</ele>
        <time>2022-09-18T09:17:51Z</time>
      </trkpt>
      <trkpt lat="48.70055" lon="1.89862">
        <ele>137.1</ele>
        <time>2022-09-18T09:17:53Z</time>
      </trkpt>
      <trkpt lat="48.70042" lon="1.89869">
        <ele>137</ele>
        <time>2022-09-18T09:17:56Z</time>
      </trkpt>
      <trkpt lat="48.70033" lon="1.89875">
        <ele>136.8</ele>
        <time>2022-09-18T09:17:58Z</time>
      </trkpt>
      <trkpt lat="48.70024" lon="1.89881">
        <ele>136.5</ele>
        <time>2022-09-18T09:18:00Z</time>
      </trkpt>
      <trkpt lat="48.70015" lon="1.89892">
        <ele>136.1</ele>
        <time>2022-09-18T09:18:03Z</time>
      </trkpt>
      <trkpt lat="48.70011" lon="1.89907">
        <ele>136.1</ele>
        <time>2022-09-18T09:18:05Z</time>
      </trkpt>
      <trkpt lat="48.70011" lon="1.89926">
        <ele>136.2</ele>
        <time>2022-09-18T09:18:07Z</time>
      </trkpt>
      <trkpt lat="48.70011" lon="1.89941">
        <ele>136.2</ele>
        <time>2022-09-18T09:18:09Z</time>
      </trkpt>
      <trkpt lat="48.70008" lon="1.89954">
        <ele>136</ele>
        <time>2022-09-18T09:18:11Z</time>
      </trkpt>
      <trkpt lat="48.70006" lon="1.8997">
        <ele>135.9</ele>
        <time>2022-09-18T09:18:13Z</time>
      </trkpt>
      <trkpt lat="48.70007" lon="1.89986">
        <ele>136.2</ele>
        <time>2022-09-18T09:18:15Z</time>
      </trkpt>
      <trkpt lat="48.70007" lon="1.90002">
        <ele>136.3</ele>
        <time>2022-09-18T09:18:17Z</time>
      </trkpt>
      <trkpt lat="48.70007" lon="1.90019">
        <ele>136.1</ele>
        <time>2022-09-18T09:18:20Z</time>
      </trkpt>
      <trkpt lat="48.70004" lon="1.90037">
        <ele>135.7</ele>
        <time>2022-09-18T09:18:22Z</time>
      </trkpt>
      <trkpt lat="48.7001" lon="1.90056">
        <ele>136.8</ele>
        <time>2022-09-18T09:18:24Z</time>
      </trkpt>
      <trkpt lat="48.70012" lon="1.90074">
        <ele>137.2</ele>
        <time>2022-09-18T09:18:26Z</time>
      </trkpt>
      <trkpt lat="48.70012" lon="1.90089">
        <ele>137.1</ele>
        <time>2022-09-18T09:18:28Z</time>
      </trkpt>
      <trkpt lat="48.70015" lon="1.90107">
        <ele>137.9</ele>
        <time>2022-09-18T09:18:30Z</time>
      </trkpt>
      <trkpt lat="48.70016" lon="1.90124">
        <ele>138</ele>
        <time>2022-09-18T09:18:32Z</time>
      </trkpt>
      <trkpt lat="48.70014" lon="1.90139">
        <ele>137.4</ele>
        <time>2022-09-18T09:18:34Z</time>
      </trkpt>
      <trkpt lat="48.70012" lon="1.90159">
        <ele>137</ele>
        <time>2022-09-18T09:18:37Z</time>
      </trkpt>
      <trkpt lat="48.70012" lon="1.90173">
        <ele>136.8</ele>
        <time>2022-09-18T09:18:39Z</time>
      </trkpt>
      <trkpt lat="48.70011" lon="1.90193">
        <ele>136.3</ele>
        <time>2022-09-18T09:18:42Z</time>
      </trkpt>
      <trkpt lat="48.70007" lon="1.90206">
        <ele>135.4</ele>
        <time>2022-09-18T09:18:44Z</time>
      </trkpt>
      <trkpt lat="48.70006" lon="1.90226">
        <ele>135.1</ele>
        <time>2022-09-18T09:18:47Z</time>
      </trkpt>
      <trkpt lat="48.70004" lon="1.9024">
        <ele>135.2</ele>
        <time>2022-09-18T09:18:49Z</time>
      </trkpt>
      <trkpt lat="48.70005" lon="1.90259">
        <ele>135.6</ele>
        <time>2022-09-18T09:18:52Z</time>
      </trkpt>
      <trkpt lat="48.70006" lon="1.90274">
        <ele>135.8</ele>
        <time>2022-09-18T09:18:54Z</time>
      </trkpt>
      <trkpt lat="48.70005" lon="1.90289">
        <ele>135.7</ele>
        <time>2022-09-18T09:18:56Z</time>
      </trkpt>
      <trkpt lat="48.70003" lon="1.90304">
        <ele>135.5</ele>
        <time>2022-09-18T09:18:58Z</time>
      </trkpt>
      <trkpt lat="48.70004" lon="1.90321">
        <ele>135.6</ele>
        <time>2022-09-18T09:19:00Z</time>
      </trkpt>
      <trkpt lat="48.70006" lon="1.90335">
        <ele>136.1</ele>
        <time>2022-09-18T09:19:02Z</time>
      </trkpt>
      <trkpt lat="48.70008" lon="1.9035">
        <ele>136.3</ele>
        <time>2022-09-18T09:19:04Z</time>
      </trkpt>
      <trkpt lat="48.70012" lon="1.90364">
        <ele>136.6</ele>
        <time>2022-09-18T09:19:06Z</time>
      </trkpt>
      <trkpt lat="48.70015" lon="1.90378">
        <ele>136.5</ele>
        <time>2022-09-18T09:19:08Z</time>
      </trkpt>
      <trkpt lat="48.70018" lon="1.90393">
        <ele>136.5</ele>
        <time>2022-09-18T09:19:10Z</time>
      </trkpt>
      <trkpt lat="48.70022" lon="1.90412">
        <ele>136.5</ele>
        <time>2022-09-18T09:19:13Z</time>
      </trkpt>
      <trkpt lat="48.70029" lon="1.90428">
        <ele>136.7</ele>
        <time>2022-09-18T09:19:15Z</time>
      </trkpt>
      <trkpt lat="48.70031" lon="1.90443">
        <ele>136.4</ele>
        <time>2022-09-18T09:19:17Z</time>
      </trkpt>
      <trkpt lat="48.70032" lon="1.90465">
        <ele>135.8</ele>
        <time>2022-09-18T09:19:20Z</time>
      </trkpt>
      <trkpt lat="48.70034" lon="1.90481">
        <ele>135.5</ele>
        <time>2022-09-18T09:19:22Z</time>
      </trkpt>
      <trkpt lat="48.70032" lon="1.90496">
        <ele>134.9</ele>
        <time>2022-09-18T09:19:24Z</time>
      </trkpt>
      <trkpt lat="48.70035" lon="1.90513">
        <ele>135</ele>
        <time>2022-09-18T09:19:26Z</time>
      </trkpt>
      <trkpt lat="48.70042" lon="1.90532">
        <ele>136.5</ele>
        <time>2022-09-18T09:19:28Z</time>
      </trkpt>
      <trkpt lat="48.70046" lon="1.90549">
        <ele>137.1</ele>
        <time>2022-09-18T09:19:30Z</time>
      </trkpt>
      <trkpt lat="48.70052" lon="1.90564">
        <ele>137.6</ele>
        <time>2022-09-18T09:19:32Z</time>
      </trkpt>
      <trkpt lat="48.70058" lon="1.90582">
        <ele>137.7</ele>
        <time>2022-09-18T09:19:35Z</time>
      </trkpt>
      <trkpt lat="48.70063" lon="1.90594">
        <ele>137.5</ele>
        <time>2022-09-18T09:19:37Z</time>
      </trkpt>
      <trkpt lat="48.70069" lon="1.90607">
        <ele>137.3</ele>
        <time>2022-09-18T09:19:39Z</time>
      </trkpt>
      <trkpt lat="48.70073" lon="1.90623">
        <ele>137.2</ele>
        <time>2022-09-18T09:19:41Z</time>
      </trkpt>
      <trkpt lat="48.70075" lon="1.90641">
        <ele>137.2</ele>
        <time>2022-09-18T09:19:43Z</time>
      </trkpt>
      <trkpt lat="48.70072" lon="1.90659">
        <ele>136.9</ele>
        <time>2022-09-18T09:19:45Z</time>
      </trkpt>
      <trkpt lat="48.70071" lon="1.90675">
        <ele>137.5</ele>
        <time>2022-09-18T09:19:47Z</time>
      </trkpt>
      <trkpt lat="48.70065" lon="1.90686">
        <ele>136.7</ele>
        <time>2022-09-18T09:19:49Z</time>
      </trkpt>
      <trkpt lat="48.70055" lon="1.90697">
        <ele>135.3</ele>
        <time>2022-09-18T09:19:52Z</time>
      </trkpt>
      <trkpt lat="48.70046" lon="1.90702">
        <ele>134.9</ele>
        <time>2022-09-18T09:19:55Z</time>
      </trkpt>
      <trkpt lat="48.70039" lon="1.9071">
        <ele>134.8</ele>
        <time>2022-09-18T09:19:59Z</time>
      </trkpt>
      <trkpt lat="48.70031" lon="1.90722">
        <ele>134.5</ele>
        <time>2022-09-18T09:20:02Z</time>
      </trkpt>
      <trkpt lat="48.70024" lon="1.90732">
        <ele>134.7</ele>
        <time>2022-09-18T09:20:04Z</time>
      </trkpt>
      <trkpt lat="48.70014" lon="1.90746">
        <ele>134.6</ele>
        <time>2022-09-18T09:20:06Z</time>
      </trkpt>
      <trkpt lat="48.70005" lon="1.9076">
        <ele>134.9</ele>
        <time>2022-09-18T09:20:09Z</time>
      </trkpt>
      <trkpt lat="48.7" lon="1.90772">
        <ele>135.3</ele>
        <time>2022-09-18T09:20:11Z</time>
      </trkpt>
      <trkpt lat="48.69992" lon="1.90785">
        <ele>135.8</ele>
        <time>2022-09-18T09:20:14Z</time>
      </trkpt>
      <trkpt lat="48.69987" lon="1.908">
        <ele>136.3</ele>
        <time>2022-09-18T09:20:17Z</time>
      </trkpt>
      <trkpt lat="48.69982" lon="1.90816">
        <ele>135.6</ele>
        <time>2022-09-18T09:20:20Z</time>
      </trkpt>
      <trkpt lat="48.69976" lon="1.90828">
        <ele>134.7</ele>
        <time>2022-09-18T09:20:23Z</time>
      </trkpt>
      <trkpt lat="48.6997" lon="1.90843">
        <ele>134.2</ele>
        <time>2022-09-18T09:20:26Z</time>
      </trkpt>
      <trkpt lat="48.69965" lon="1.90858">
        <ele>134.3</ele>
        <time>2022-09-18T09:20:29Z</time>
      </trkpt>
      <trkpt lat="48.69961" lon="1.90873">
        <ele>135.2</ele>
        <time>2022-09-18T09:20:33Z</time>
      </trkpt>
      <trkpt lat="48.69959" lon="1.90887">
        <ele>136</ele>
        <time>2022-09-18T09:20:37Z</time>
      </trkpt>
      <trkpt lat="48.69959" lon="1.90901">
        <ele>137.2</ele>
        <time>2022-09-18T09:20:41Z</time>
      </trkpt>
      <trkpt lat="48.69961" lon="1.90916">
        <ele>138.9</ele>
        <time>2022-09-18T09:20:45Z</time>
      </trkpt>
      <trkpt lat="48.69959" lon="1.90929">
        <ele>139.3</ele>
        <time>2022-09-18T09:20:49Z</time>
      </trkpt>
      <trkpt lat="48.69957" lon="1.90944">
        <ele>139.6</ele>
        <time>2022-09-18T09:20:53Z</time>
      </trkpt>
      <trkpt lat="48.69955" lon="1.90959">
        <ele>139.8</ele>
        <time>2022-09-18T09:20:57Z</time>
      </trkpt>
      <trkpt lat="48.69954" lon="1.90973">
        <ele>139.8</ele>
        <time>2022-09-18T09:20:59Z</time>
      </trkpt>
      <trkpt lat="48.69952" lon="1.90988">
        <ele>139.5</ele>
        <time>2022-09-18T09:21:02Z</time>
      </trkpt>
      <trkpt lat="48.69948" lon="1.91004">
        <ele>138.3</ele>
        <time>2022-09-18T09:21:07Z</time>
      </trkpt>
      <trkpt lat="48.69944" lon="1.91018">
        <ele>137</ele>
        <time>2022-09-18T09:21:11Z</time>
      </trkpt>
      <trkpt lat="48.6994" lon="1.91033">
        <ele>136</ele>
        <time>2022-09-18T09:21:16Z</time>
      </trkpt>
      <trkpt lat="48.69935" lon="1.91046">
        <ele>134.8</ele>
        <time>2022-09-18T09:21:28Z</time>
      </trkpt>
      <trkpt lat="48.69935" lon="1.9106">
        <ele>135</ele>
        <time>2022-09-18T09:21:51Z</time>
      </trkpt>
      <trkpt lat="48.69933" lon="1.91077">
        <ele>134.2</ele>
        <time>2022-09-18T09:21:56Z</time>
      </trkpt>
      <trkpt lat="48.69931" lon="1.91094">
        <ele>133.4</ele>
        <time>2022-09-18T09:21:59Z</time>
      </trkpt>
      <trkpt lat="48.69931" lon="1.91113">
        <ele>132.9</ele>
        <time>2022-09-18T09:22:02Z</time>
      </trkpt>
      <trkpt lat="48.69931" lon="1.91129">
        <ele>132.9</ele>
        <time>2022-09-18T09:22:05Z</time>
      </trkpt>
      <trkpt lat="48.69932" lon="1.91144">
        <ele>132.5</ele>
        <time>2022-09-18T09:22:08Z</time>
      </trkpt>
      <trkpt lat="48.69933" lon="1.91161">
        <ele>131.8</ele>
        <time>2022-09-18T09:22:11Z</time>
      </trkpt>
      <trkpt lat="48.69934" lon="1.91178">
        <ele>131.8</ele>
        <time>2022-09-18T09:22:14Z</time>
      </trkpt>
      <trkpt lat="48.6993" lon="1.91196">
        <ele>131.6</ele>
        <time>2022-09-18T09:22:17Z</time>
      </trkpt>
      <trkpt lat="48.69924" lon="1.91208">
        <ele>132.3</ele>
        <time>2022-09-18T09:22:19Z</time>
      </trkpt>
      <trkpt lat="48.69915" lon="1.91219">
        <ele>132.3</ele>
        <time>2022-09-18T09:22:21Z</time>
      </trkpt>
      <trkpt lat="48.69906" lon="1.91227">
        <ele>132.2</ele>
        <time>2022-09-18T09:22:24Z</time>
      </trkpt>
      <trkpt lat="48.69895" lon="1.91232">
        <ele>131.2</ele>
        <time>2022-09-18T09:22:28Z</time>
      </trkpt>
      <trkpt lat="48.69887" lon="1.91245">
        <ele>131.1</ele>
        <time>2022-09-18T09:22:31Z</time>
      </trkpt>
      <trkpt lat="48.69882" lon="1.91259">
        <ele>130.8</ele>
        <time>2022-09-18T09:22:33Z</time>
      </trkpt>
      <trkpt lat="48.69879" lon="1.91273">
        <ele>130.5</ele>
        <time>2022-09-18T09:22:35Z</time>
      </trkpt>
      <trkpt lat="48.69879" lon="1.91289">
        <ele>130.6</ele>
        <time>2022-09-18T09:22:37Z</time>
      </trkpt>
      <trkpt lat="48.69876" lon="1.91304">
        <ele>129.9</ele>
        <time>2022-09-18T09:22:38Z</time>
      </trkpt>
      <trkpt lat="48.6988" lon="1.91321">
        <ele>131.2</ele>
        <time>2022-09-18T09:22:41Z</time>
      </trkpt>
      <trkpt lat="48.69873" lon="1.91337">
        <ele>129.7</ele>
        <time>2022-09-18T09:22:44Z</time>
      </trkpt>
      <trkpt lat="48.69872" lon="1.91356">
        <ele>130.5</ele>
        <time>2022-09-18T09:22:47Z</time>
      </trkpt>
      <trkpt lat="48.69873" lon="1.91372">
        <ele>131.9</ele>
        <time>2022-09-18T09:22:49Z</time>
      </trkpt>
      <trkpt lat="48.69873" lon="1.91392">
        <ele>132.6</ele>
        <time>2022-09-18T09:22:52Z</time>
      </trkpt>
      <trkpt lat="48.69873" lon="1.91411">
        <ele>132.9</ele>
        <time>2022-09-18T09:22:55Z</time>
      </trkpt>
      <trkpt lat="48.69869" lon="1.91427">
        <ele>131.7</ele>
        <time>2022-09-18T09:22:58Z</time>
      </trkpt>
      <trkpt lat="48.69859" lon="1.91438">
        <ele>129.4</ele>
        <time>2022-09-18T09:23:00Z</time>
      </trkpt>
      <trkpt lat="48.69847" lon="1.91444">
        <ele>129</ele>
        <time>2022-09-18T09:23:03Z</time>
      </trkpt>
      <trkpt lat="48.69837" lon="1.91453">
        <ele>128.9</ele>
        <time>2022-09-18T09:23:05Z</time>
      </trkpt>
      <trkpt lat="48.69826" lon="1.9145">
        <ele>129.3</ele>
        <time>2022-09-18T09:23:07Z</time>
      </trkpt>
      <trkpt lat="48.69818" lon="1.91443">
        <ele>129.5</ele>
        <time>2022-09-18T09:23:09Z</time>
      </trkpt>
      <trkpt lat="48.69808" lon="1.91434">
        <ele>130</ele>
        <time>2022-09-18T09:23:11Z</time>
      </trkpt>
      <trkpt lat="48.69799" lon="1.91427">
        <ele>130.5</ele>
        <time>2022-09-18T09:23:13Z</time>
      </trkpt>
      <trkpt lat="48.69789" lon="1.91418">
        <ele>130.9</ele>
        <time>2022-09-18T09:23:17Z</time>
      </trkpt>
      <trkpt lat="48.69782" lon="1.91409">
        <ele>131.1</ele>
        <time>2022-09-18T09:23:21Z</time>
      </trkpt>
      <trkpt lat="48.69773" lon="1.91401">
        <ele>131.1</ele>
        <time>2022-09-18T09:23:29Z</time>
      </trkpt>
      <trkpt lat="48.69762" lon="1.91397">
        <ele>131.3</ele>
        <time>2022-09-18T09:23:33Z</time>
      </trkpt>
      <trkpt lat="48.6975" lon="1.91391">
        <ele>131.2</ele>
        <time>2022-09-18T09:23:36Z</time>
      </trkpt>
      <trkpt lat="48.69741" lon="1.9139">
        <ele>130.5</ele>
        <time>2022-09-18T09:23:38Z</time>
      </trkpt>
      <trkpt lat="48.69729" lon="1.91393">
        <ele>130.2</ele>
        <time>2022-09-18T09:23:40Z</time>
      </trkpt>
      <trkpt lat="48.69717" lon="1.91398">
        <ele>130.6</ele>
        <time>2022-09-18T09:23:42Z</time>
      </trkpt>
      <trkpt lat="48.69706" lon="1.91399">
        <ele>130.8</ele>
        <time>2022-09-18T09:23:44Z</time>
      </trkpt>
      <trkpt lat="48.69693" lon="1.91398">
        <ele>130.6</ele>
        <time>2022-09-18T09:23:47Z</time>
      </trkpt>
      <trkpt lat="48.69682" lon="1.914">
        <ele>131</ele>
        <time>2022-09-18T09:23:50Z</time>
      </trkpt>
      <trkpt lat="48.69672" lon="1.91397">
        <ele>130.5</ele>
        <time>2022-09-18T09:23:53Z</time>
      </trkpt>
      <trkpt lat="48.6966" lon="1.91401">
        <ele>131.1</ele>
        <time>2022-09-18T09:23:56Z</time>
      </trkpt>
      <trkpt lat="48.69647" lon="1.91401">
        <ele>131.3</ele>
        <time>2022-09-18T09:23:59Z</time>
      </trkpt>
      <trkpt lat="48.69638" lon="1.91399">
        <ele>130.9</ele>
        <time>2022-09-18T09:24:01Z</time>
      </trkpt>
      <trkpt lat="48.69628" lon="1.91402">
        <ele>132.3</ele>
        <time>2022-09-18T09:24:04Z</time>
      </trkpt>
      <trkpt lat="48.69616" lon="1.91395">
        <ele>131.9</ele>
        <time>2022-09-18T09:24:07Z</time>
      </trkpt>
      <trkpt lat="48.69606" lon="1.91383">
        <ele>131</ele>
        <time>2022-09-18T09:24:10Z</time>
      </trkpt>
      <trkpt lat="48.69597" lon="1.91371">
        <ele>130.3</ele>
        <time>2022-09-18T09:24:13Z</time>
      </trkpt>
      <trkpt lat="48.69588" lon="1.91364">
        <ele>130.1</ele>
        <time>2022-09-18T09:24:16Z</time>
      </trkpt>
      <trkpt lat="48.69578" lon="1.91359">
        <ele>129.8</ele>
        <time>2022-09-18T09:24:19Z</time>
      </trkpt>
      <trkpt lat="48.69568" lon="1.91361">
        <ele>130</ele>
        <time>2022-09-18T09:24:24Z</time>
      </trkpt>
      <trkpt lat="48.69555" lon="1.91367">
        <ele>131.1</ele>
        <time>2022-09-18T09:24:27Z</time>
      </trkpt>
      <trkpt lat="48.69545" lon="1.91374">
        <ele>131.3</ele>
        <time>2022-09-18T09:24:28Z</time>
      </trkpt>
      <trkpt lat="48.69535" lon="1.9138">
        <ele>130.9</ele>
        <time>2022-09-18T09:24:29Z</time>
      </trkpt>
      <trkpt lat="48.69524" lon="1.91388">
        <ele>130.6</ele>
        <time>2022-09-18T09:24:32Z</time>
      </trkpt>
      <trkpt lat="48.69516" lon="1.91396">
        <ele>130.9</ele>
        <time>2022-09-18T09:24:35Z</time>
      </trkpt>
      <trkpt lat="48.69506" lon="1.914">
        <ele>130.4</ele>
        <time>2022-09-18T09:24:38Z</time>
      </trkpt>
      <trkpt lat="48.69493" lon="1.914">
        <ele>129.2</ele>
        <time>2022-09-18T09:24:41Z</time>
      </trkpt>
      <trkpt lat="48.69487" lon="1.91417">
        <ele>129.1</ele>
        <time>2022-09-18T09:24:44Z</time>
      </trkpt>
      <trkpt lat="48.69488" lon="1.91436">
        <ele>130.9</ele>
        <time>2022-09-18T09:24:47Z</time>
      </trkpt>
      <trkpt lat="48.69489" lon="1.91452">
        <ele>132.9</ele>
        <time>2022-09-18T09:24:51Z</time>
      </trkpt>
      <trkpt lat="48.69484" lon="1.91467">
        <ele>134</ele>
        <time>2022-09-18T09:24:56Z</time>
      </trkpt>
      <trkpt lat="48.69475" lon="1.91469">
        <ele>133</ele>
        <time>2022-09-18T09:25:00Z</time>
      </trkpt>
      <trkpt lat="48.69466" lon="1.91476">
        <ele>133.7</ele>
        <time>2022-09-18T09:25:04Z</time>
      </trkpt>
      <trkpt lat="48.69455" lon="1.91482">
        <ele>134.6</ele>
        <time>2022-09-18T09:25:07Z</time>
      </trkpt>
      <trkpt lat="48.69444" lon="1.91484">
        <ele>134.5</ele>
        <time>2022-09-18T09:25:11Z</time>
      </trkpt>
      <trkpt lat="48.69433" lon="1.91483">
        <ele>133.8</ele>
        <time>2022-09-18T09:25:17Z</time>
      </trkpt>
      <trkpt lat="48.69423" lon="1.91476">
        <ele>132</ele>
        <time>2022-09-18T09:25:20Z</time>
      </trkpt>
      <trkpt lat="48.69413" lon="1.9147">
        <ele>130.5</ele>
        <time>2022-09-18T09:25:24Z</time>
      </trkpt>
      <trkpt lat="48.69402" lon="1.91472">
        <ele>129.9</ele>
        <time>2022-09-18T09:25:27Z</time>
      </trkpt>
      <trkpt lat="48.69393" lon="1.91475">
        <ele>129.6</ele>
        <time>2022-09-18T09:25:31Z</time>
      </trkpt>
      <trkpt lat="48.69384" lon="1.91481">
        <ele>129.2</ele>
        <time>2022-09-18T09:25:36Z</time>
      </trkpt>
      <trkpt lat="48.69377" lon="1.91491">
        <ele>129.4</ele>
        <time>2022-09-18T09:25:39Z</time>
      </trkpt>
      <trkpt lat="48.69369" lon="1.915">
        <ele>129.6</ele>
        <time>2022-09-18T09:25:42Z</time>
      </trkpt>
      <trkpt lat="48.6936" lon="1.91502">
        <ele>129.1</ele>
        <time>2022-09-18T09:25:46Z</time>
      </trkpt>
      <trkpt lat="48.69349" lon="1.915">
        <ele>127.7</ele>
        <time>2022-09-18T09:25:50Z</time>
      </trkpt>
      <trkpt lat="48.6934" lon="1.91512">
        <ele>128.1</ele>
        <time>2022-09-18T09:25:52Z</time>
      </trkpt>
      <trkpt lat="48.69331" lon="1.91524">
        <ele>128.3</ele>
        <time>2022-09-18T09:25:54Z</time>
      </trkpt>
      <trkpt lat="48.69321" lon="1.91534">
        <ele>128.4</ele>
        <time>2022-09-18T09:25:57Z</time>
      </trkpt>
      <trkpt lat="48.69316" lon="1.91548">
        <ele>129.7</ele>
        <time>2022-09-18T09:26:02Z</time>
      </trkpt>
      <trkpt lat="48.69312" lon="1.91561">
        <ele>130.8</ele>
        <time>2022-09-18T09:26:06Z</time>
      </trkpt>
      <trkpt lat="48.69307" lon="1.91573">
        <ele>131.1</ele>
        <time>2022-09-18T09:26:10Z</time>
      </trkpt>
      <trkpt lat="48.693" lon="1.91583">
        <ele>130.8</ele>
        <time>2022-09-18T09:26:14Z</time>
      </trkpt>
      <trkpt lat="48.69292" lon="1.91593">
        <ele>130.3</ele>
        <time>2022-09-18T09:26:18Z</time>
      </trkpt>
      <trkpt lat="48.69286" lon="1.91605">
        <ele>129.9</ele>
        <time>2022-09-18T09:26:21Z</time>
      </trkpt>
      <trkpt lat="48.69279" lon="1.91616">
        <ele>129</ele>
        <time>2022-09-18T09:26:24Z</time>
      </trkpt>
      <trkpt lat="48.69272" lon="1.91625">
        <ele>128.8</ele>
        <time>2022-09-18T09:26:27Z</time>
      </trkpt>
      <trkpt lat="48.69264" lon="1.91634">
        <ele>128.5</ele>
        <time>2022-09-18T09:26:30Z</time>
      </trkpt>
      <trkpt lat="48.69255" lon="1.91639">
        <ele>127.8</ele>
        <time>2022-09-18T09:26:33Z</time>
      </trkpt>
      <trkpt lat="48.69246" lon="1.91642">
        <ele>127.1</ele>
        <time>2022-09-18T09:26:36Z</time>
      </trkpt>
      <trkpt lat="48.6924" lon="1.91654">
        <ele>128.2</ele>
        <time>2022-09-18T09:26:42Z</time>
      </trkpt>
      <trkpt lat="48.69229" lon="1.91653">
        <ele>127.4</ele>
        <time>2022-09-18T09:26:45Z</time>
      </trkpt>
      <trkpt lat="48.6922" lon="1.91655">
        <ele>127.2</ele>
        <time>2022-09-18T09:26:47Z</time>
      </trkpt>
      <trkpt lat="48.6921" lon="1.91656">
        <ele>127.2</ele>
        <time>2022-09-18T09:26:50Z</time>
      </trkpt>
      <trkpt lat="48.69199" lon="1.91657">
        <ele>127.1</ele>
        <time>2022-09-18T09:26:54Z</time>
      </trkpt>
      <trkpt lat="48.69189" lon="1.91658">
        <ele>127</ele>
        <time>2022-09-18T09:26:58Z</time>
      </trkpt>
      <trkpt lat="48.69178" lon="1.91664">
        <ele>127.2</ele>
        <time>2022-09-18T09:27:01Z</time>
      </trkpt>
      <trkpt lat="48.6917" lon="1.91675">
        <ele>127.7</ele>
        <time>2022-09-18T09:27:05Z</time>
      </trkpt>
      <trkpt lat="48.69166" lon="1.91689">
        <ele>128.5</ele>
        <time>2022-09-18T09:27:08Z</time>
      </trkpt>
      <trkpt lat="48.69164" lon="1.91704">
        <ele>129</ele>
        <time>2022-09-18T09:27:11Z</time>
      </trkpt>
      <trkpt lat="48.69156" lon="1.9172">
        <ele>128.7</ele>
        <time>2022-09-18T09:27:14Z</time>
      </trkpt>
      <trkpt lat="48.69127" lon="1.91745">
        <ele>126.5</ele>
        <time>2022-09-18T09:27:16Z</time>
      </trkpt>
      <trkpt lat="48.69123" lon="1.91765">
        <ele>127</ele>
        <time>2022-09-18T09:27:20Z</time>
      </trkpt>
      <trkpt lat="48.69117" lon="1.91779">
        <ele>126.9</ele>
        <time>2022-09-18T09:27:22Z</time>
      </trkpt>
      <trkpt lat="48.69112" lon="1.91791">
        <ele>127.1</ele>
        <time>2022-09-18T09:27:24Z</time>
      </trkpt>
      <trkpt lat="48.69103" lon="1.91805">
        <ele>126.8</ele>
        <time>2022-09-18T09:27:27Z</time>
      </trkpt>
      <trkpt lat="48.69094" lon="1.91821">
        <ele>126.6</ele>
        <time>2022-09-18T09:27:30Z</time>
      </trkpt>
      <trkpt lat="48.69089" lon="1.91834">
        <ele>126.8</ele>
        <time>2022-09-18T09:27:32Z</time>
      </trkpt>
      <trkpt lat="48.69084" lon="1.91848">
        <ele>127.1</ele>
        <time>2022-09-18T09:27:34Z</time>
      </trkpt>
      <trkpt lat="48.69078" lon="1.91861">
        <ele>127.2</ele>
        <time>2022-09-18T09:27:37Z</time>
      </trkpt>
      <trkpt lat="48.69068" lon="1.91867">
        <ele>126.1</ele>
        <time>2022-09-18T09:27:40Z</time>
      </trkpt>
      <trkpt lat="48.69066" lon="1.91884">
        <ele>126.7</ele>
        <time>2022-09-18T09:27:44Z</time>
      </trkpt>
      <trkpt lat="48.69064" lon="1.91901">
        <ele>127.1</ele>
        <time>2022-09-18T09:27:48Z</time>
      </trkpt>
      <trkpt lat="48.69061" lon="1.91915">
        <ele>127.1</ele>
        <time>2022-09-18T09:27:51Z</time>
      </trkpt>
      <trkpt lat="48.69058" lon="1.91928">
        <ele>127.6</ele>
        <time>2022-09-18T09:27:55Z</time>
      </trkpt>
      <trkpt lat="48.69057" lon="1.91943">
        <ele>128.3</ele>
        <time>2022-09-18T09:27:58Z</time>
      </trkpt>
      <trkpt lat="48.69049" lon="1.91957">
        <ele>128</ele>
        <time>2022-09-18T09:28:02Z</time>
      </trkpt>
      <trkpt lat="48.6904" lon="1.91962">
        <ele>127.1</ele>
        <time>2022-09-18T09:28:04Z</time>
      </trkpt>
      <trkpt lat="48.69032" lon="1.91969">
        <ele>126.4</ele>
        <time>2022-09-18T09:28:06Z</time>
      </trkpt>
      <trkpt lat="48.69022" lon="1.9199">
        <ele>125.9</ele>
        <time>2022-09-18T09:28:08Z</time>
      </trkpt>
      <trkpt lat="48.6902" lon="1.92005">
        <ele>126.1</ele>
        <time>2022-09-18T09:28:10Z</time>
      </trkpt>
      <trkpt lat="48.69019" lon="1.92021">
        <ele>126.9</ele>
        <time>2022-09-18T09:28:12Z</time>
      </trkpt>
      <trkpt lat="48.69015" lon="1.92034">
        <ele>126.9</ele>
        <time>2022-09-18T09:28:14Z</time>
      </trkpt>
      <trkpt lat="48.69008" lon="1.9205">
        <ele>125.6</ele>
        <time>2022-09-18T09:28:17Z</time>
      </trkpt>
      <trkpt lat="48.69004" lon="1.92068">
        <ele>125.8</ele>
        <time>2022-09-18T09:28:20Z</time>
      </trkpt>
      <trkpt lat="48.69" lon="1.92083">
        <ele>126</ele>
        <time>2022-09-18T09:28:22Z</time>
      </trkpt>
      <trkpt lat="48.68998" lon="1.92097">
        <ele>126.2</ele>
        <time>2022-09-18T09:28:24Z</time>
      </trkpt>
      <trkpt lat="48.68995" lon="1.92117">
        <ele>126.4</ele>
        <time>2022-09-18T09:28:27Z</time>
      </trkpt>
      <trkpt lat="48.68994" lon="1.92135">
        <ele>126.7</ele>
        <time>2022-09-18T09:28:30Z</time>
      </trkpt>
      <trkpt lat="48.68989" lon="1.92154">
        <ele>126.3</ele>
        <time>2022-09-18T09:28:33Z</time>
      </trkpt>
      <trkpt lat="48.68986" lon="1.92168">
        <ele>126</ele>
        <time>2022-09-18T09:28:35Z</time>
      </trkpt>
      <trkpt lat="48.68984" lon="1.92187">
        <ele>125.4</ele>
        <time>2022-09-18T09:28:38Z</time>
      </trkpt>
      <trkpt lat="48.68981" lon="1.92202">
        <ele>125.1</ele>
        <time>2022-09-18T09:28:40Z</time>
      </trkpt>
      <trkpt lat="48.68979" lon="1.92217">
        <ele>125.1</ele>
        <time>2022-09-18T09:28:42Z</time>
      </trkpt>
      <trkpt lat="48.68978" lon="1.92233">
        <ele>125</ele>
        <time>2022-09-18T09:28:44Z</time>
      </trkpt>
      <trkpt lat="48.68977" lon="1.92251">
        <ele>124.9</ele>
        <time>2022-09-18T09:28:47Z</time>
      </trkpt>
      <trkpt lat="48.68977" lon="1.9227">
        <ele>124.8</ele>
        <time>2022-09-18T09:28:50Z</time>
      </trkpt>
      <trkpt lat="48.68979" lon="1.92284">
        <ele>125.3</ele>
        <time>2022-09-18T09:28:52Z</time>
      </trkpt>
      <trkpt lat="48.68982" lon="1.92296">
        <ele>126.2</ele>
        <time>2022-09-18T09:28:54Z</time>
      </trkpt>
      <trkpt lat="48.68985" lon="1.92311">
        <ele>127.1</ele>
        <time>2022-09-18T09:28:56Z</time>
      </trkpt>
      <trkpt lat="48.68977" lon="1.92326">
        <ele>127</ele>
        <time>2022-09-18T09:28:59Z</time>
      </trkpt>
      <trkpt lat="48.68967" lon="1.92326">
        <ele>126.3</ele>
        <time>2022-09-18T09:29:01Z</time>
      </trkpt>
      <trkpt lat="48.68954" lon="1.92328">
        <ele>125.9</ele>
        <time>2022-09-18T09:29:04Z</time>
      </trkpt>
      <trkpt lat="48.68945" lon="1.92332">
        <ele>125.9</ele>
        <time>2022-09-18T09:29:06Z</time>
      </trkpt>
      <trkpt lat="48.68941" lon="1.92346">
        <ele>127.9</ele>
        <time>2022-09-18T09:29:13Z</time>
      </trkpt>
      <trkpt lat="48.68932" lon="1.92353">
        <ele>128.3</ele>
        <time>2022-09-18T09:29:19Z</time>
      </trkpt>
      <trkpt lat="48.68926" lon="1.92363">
        <ele>129.3</ele>
        <time>2022-09-18T09:29:24Z</time>
      </trkpt>
      <trkpt lat="48.68915" lon="1.92375">
        <ele>130.3</ele>
        <time>2022-09-18T09:29:27Z</time>
      </trkpt>
      <trkpt lat="48.68907" lon="1.92387">
        <ele>130.8</ele>
        <time>2022-09-18T09:29:30Z</time>
      </trkpt>
      <trkpt lat="48.689" lon="1.924">
        <ele>131.1</ele>
        <time>2022-09-18T09:29:33Z</time>
      </trkpt>
      <trkpt lat="48.68891" lon="1.92412">
        <ele>130.8</ele>
        <time>2022-09-18T09:29:36Z</time>
      </trkpt>
      <trkpt lat="48.68885" lon="1.92427">
        <ele>131.8</ele>
        <time>2022-09-18T09:29:39Z</time>
      </trkpt>
      <trkpt lat="48.68879" lon="1.92438">
        <ele>131.8</ele>
        <time>2022-09-18T09:29:42Z</time>
      </trkpt>
      <trkpt lat="48.68872" lon="1.92449">
        <ele>131.1</ele>
        <time>2022-09-18T09:29:49Z</time>
      </trkpt>
      <trkpt lat="48.68866" lon="1.9246">
        <ele>130.4</ele>
        <time>2022-09-18T09:29:53Z</time>
      </trkpt>
      <trkpt lat="48.68857" lon="1.9247">
        <ele>129.3</ele>
        <time>2022-09-18T09:29:56Z</time>
      </trkpt>
      <trkpt lat="48.6886" lon="1.92486">
        <ele>129.4</ele>
        <time>2022-09-18T09:30:00Z</time>
      </trkpt>
      <trkpt lat="48.68867" lon="1.92496">
        <ele>130.7</ele>
        <time>2022-09-18T09:30:03Z</time>
      </trkpt>
      <trkpt lat="48.68872" lon="1.9251">
        <ele>131.8</ele>
        <time>2022-09-18T09:30:06Z</time>
      </trkpt>
      <trkpt lat="48.68874" lon="1.92529">
        <ele>131.8</ele>
        <time>2022-09-18T09:30:08Z</time>
      </trkpt>
      <trkpt lat="48.68871" lon="1.92542">
        <ele>130.6</ele>
        <time>2022-09-18T09:30:09Z</time>
      </trkpt>
      <trkpt lat="48.68871" lon="1.92557">
        <ele>130.5</ele>
        <time>2022-09-18T09:30:11Z</time>
      </trkpt>
      <trkpt lat="48.68862" lon="1.9257">
        <ele>128.8</ele>
        <time>2022-09-18T09:30:13Z</time>
      </trkpt>
      <trkpt lat="48.68854" lon="1.92583">
        <ele>128.3</ele>
        <time>2022-09-18T09:30:15Z</time>
      </trkpt>
      <trkpt lat="48.68848" lon="1.92592">
        <ele>128.2</ele>
        <time>2022-09-18T09:30:17Z</time>
      </trkpt>
      <trkpt lat="48.68839" lon="1.92607">
        <ele>128.4</ele>
        <time>2022-09-18T09:30:20Z</time>
      </trkpt>
      <trkpt lat="48.6883" lon="1.92621">
        <ele>129.2</ele>
        <time>2022-09-18T09:30:23Z</time>
      </trkpt>
      <trkpt lat="48.68823" lon="1.9263">
        <ele>129.9</ele>
        <time>2022-09-18T09:30:26Z</time>
      </trkpt>
      <trkpt lat="48.68814" lon="1.92639">
        <ele>130</ele>
        <time>2022-09-18T09:30:31Z</time>
      </trkpt>
      <trkpt lat="48.68804" lon="1.92651">
        <ele>130</ele>
        <time>2022-09-18T09:30:34Z</time>
      </trkpt>
      <trkpt lat="48.68794" lon="1.92662">
        <ele>129.2</ele>
        <time>2022-09-18T09:30:36Z</time>
      </trkpt>
      <trkpt lat="48.68787" lon="1.9268">
        <ele>128.7</ele>
        <time>2022-09-18T09:30:39Z</time>
      </trkpt>
      <trkpt lat="48.68782" lon="1.927">
        <ele>128.7</ele>
        <time>2022-09-18T09:30:42Z</time>
      </trkpt>
      <trkpt lat="48.6878" lon="1.92715">
        <ele>129</ele>
        <time>2022-09-18T09:30:44Z</time>
      </trkpt>
      <trkpt lat="48.68777" lon="1.92731">
        <ele>129.5</ele>
        <time>2022-09-18T09:30:46Z</time>
      </trkpt>
      <trkpt lat="48.68775" lon="1.92745">
        <ele>130</ele>
        <time>2022-09-18T09:30:48Z</time>
      </trkpt>
      <trkpt lat="48.6877" lon="1.92759">
        <ele>130.4</ele>
        <time>2022-09-18T09:30:50Z</time>
      </trkpt>
      <trkpt lat="48.68766" lon="1.92774">
        <ele>131</ele>
        <time>2022-09-18T09:30:52Z</time>
      </trkpt>
      <trkpt lat="48.68759" lon="1.92787">
        <ele>130.8</ele>
        <time>2022-09-18T09:30:54Z</time>
      </trkpt>
      <trkpt lat="48.68752" lon="1.92801">
        <ele>130.7</ele>
        <time>2022-09-18T09:30:56Z</time>
      </trkpt>
      <trkpt lat="48.68746" lon="1.92813">
        <ele>130.3</ele>
        <time>2022-09-18T09:30:58Z</time>
      </trkpt>
      <trkpt lat="48.6874" lon="1.92826">
        <ele>129.5</ele>
        <time>2022-09-18T09:31:00Z</time>
      </trkpt>
      <trkpt lat="48.68734" lon="1.92839">
        <ele>128.4</ele>
        <time>2022-09-18T09:31:02Z</time>
      </trkpt>
      <trkpt lat="48.6873" lon="1.92852">
        <ele>127.3</ele>
        <time>2022-09-18T09:31:04Z</time>
      </trkpt>
      <trkpt lat="48.68724" lon="1.92866">
        <ele>126</ele>
        <time>2022-09-18T09:31:06Z</time>
      </trkpt>
      <trkpt lat="48.68718" lon="1.9288">
        <ele>125.1</ele>
        <time>2022-09-18T09:31:08Z</time>
      </trkpt>
      <trkpt lat="48.68713" lon="1.92893">
        <ele>124.7</ele>
        <time>2022-09-18T09:31:10Z</time>
      </trkpt>
      <trkpt lat="48.68705" lon="1.92906">
        <ele>124.8</ele>
        <time>2022-09-18T09:31:12Z</time>
      </trkpt>
      <trkpt lat="48.68698" lon="1.92919">
        <ele>125.2</ele>
        <time>2022-09-18T09:31:14Z</time>
      </trkpt>
      <trkpt lat="48.68691" lon="1.92932">
        <ele>125.9</ele>
        <time>2022-09-18T09:31:16Z</time>
      </trkpt>
      <trkpt lat="48.68687" lon="1.92947">
        <ele>126.7</ele>
        <time>2022-09-18T09:31:18Z</time>
      </trkpt>
      <trkpt lat="48.68683" lon="1.92962">
        <ele>127.4</ele>
        <time>2022-09-18T09:31:20Z</time>
      </trkpt>
      <trkpt lat="48.68678" lon="1.92978">
        <ele>128.2</ele>
        <time>2022-09-18T09:31:23Z</time>
      </trkpt>
      <trkpt lat="48.68674" lon="1.92991">
        <ele>128.6</ele>
        <time>2022-09-18T09:31:26Z</time>
      </trkpt>
      <trkpt lat="48.68673" lon="1.93005">
        <ele>129.2</ele>
        <time>2022-09-18T09:31:29Z</time>
      </trkpt>
      <trkpt lat="48.68673" lon="1.93026">
        <ele>130</ele>
        <time>2022-09-18T09:31:32Z</time>
      </trkpt>
      <trkpt lat="48.68672" lon="1.93043">
        <ele>130.4</ele>
        <time>2022-09-18T09:31:35Z</time>
      </trkpt>
      <trkpt lat="48.6867" lon="1.93058">
        <ele>130.6</ele>
        <time>2022-09-18T09:31:38Z</time>
      </trkpt>
      <trkpt lat="48.68668" lon="1.93075">
        <ele>130.9</ele>
        <time>2022-09-18T09:31:41Z</time>
      </trkpt>
      <trkpt lat="48.68666" lon="1.93091">
        <ele>131.2</ele>
        <time>2022-09-18T09:31:44Z</time>
      </trkpt>
      <trkpt lat="48.68664" lon="1.93109">
        <ele>131.5</ele>
        <time>2022-09-18T09:31:47Z</time>
      </trkpt>
      <trkpt lat="48.68664" lon="1.93124">
        <ele>132</ele>
        <time>2022-09-18T09:31:50Z</time>
      </trkpt>
      <trkpt lat="48.68661" lon="1.93144">
        <ele>132.3</ele>
        <time>2022-09-18T09:31:54Z</time>
      </trkpt>
      <trkpt lat="48.68659" lon="1.9316">
        <ele>132.4</ele>
        <time>2022-09-18T09:31:56Z</time>
      </trkpt>
      <trkpt lat="48.68656" lon="1.93175">
        <ele>132.2</ele>
        <time>2022-09-18T09:31:58Z</time>
      </trkpt>
      <trkpt lat="48.68655" lon="1.93193">
        <ele>132.3</ele>
        <time>2022-09-18T09:32:00Z</time>
      </trkpt>
      <trkpt lat="48.68653" lon="1.93209">
        <ele>132.3</ele>
        <time>2022-09-18T09:32:02Z</time>
      </trkpt>
      <trkpt lat="48.68651" lon="1.93226">
        <ele>132.2</ele>
        <time>2022-09-18T09:32:04Z</time>
      </trkpt>
      <trkpt lat="48.68651" lon="1.93241">
        <ele>132.5</ele>
        <time>2022-09-18T09:32:06Z</time>
      </trkpt>
      <trkpt lat="48.68651" lon="1.93258">
        <ele>132.4</ele>
        <time>2022-09-18T09:32:08Z</time>
      </trkpt>
      <trkpt lat="48.68658" lon="1.93279">
        <ele>133.7</ele>
        <time>2022-09-18T09:32:10Z</time>
      </trkpt>
      <trkpt lat="48.68661" lon="1.93294">
        <ele>132.5</ele>
        <time>2022-09-18T09:32:12Z</time>
      </trkpt>
      <trkpt lat="48.68663" lon="1.93312">
        <ele>130.8</ele>
        <time>2022-09-18T09:32:14Z</time>
      </trkpt>
      <trkpt lat="48.68669" lon="1.93327">
        <ele>130.2</ele>
        <time>2022-09-18T09:32:16Z</time>
      </trkpt>
      <trkpt lat="48.68676" lon="1.93341">
        <ele>130.7</ele>
        <time>2022-09-18T09:32:18Z</time>
      </trkpt>
      <trkpt lat="48.68676" lon="1.93355">
        <ele>131.7</ele>
        <time>2022-09-18T09:32:20Z</time>
      </trkpt>
      <trkpt lat="48.68663" lon="1.93367">
        <ele>131.7</ele>
        <time>2022-09-18T09:32:23Z</time>
      </trkpt>
      <trkpt lat="48.68654" lon="1.93365">
        <ele>131.1</ele>
        <time>2022-09-18T09:32:25Z</time>
      </trkpt>
      <trkpt lat="48.68645" lon="1.93369">
        <ele>131.4</ele>
        <time>2022-09-18T09:32:29Z</time>
      </trkpt>
      <trkpt lat="48.68637" lon="1.93378">
        <ele>132.1</ele>
        <time>2022-09-18T09:32:33Z</time>
      </trkpt>
      <trkpt lat="48.68627" lon="1.9339">
        <ele>132.5</ele>
        <time>2022-09-18T09:32:37Z</time>
      </trkpt>
      <trkpt lat="48.68619" lon="1.93406">
        <ele>132.1</ele>
        <time>2022-09-18T09:32:40Z</time>
      </trkpt>
      <trkpt lat="48.68613" lon="1.9342">
        <ele>131.6</ele>
        <time>2022-09-18T09:32:42Z</time>
      </trkpt>
      <trkpt lat="48.68608" lon="1.93434">
        <ele>131</ele>
        <time>2022-09-18T09:32:44Z</time>
      </trkpt>
      <trkpt lat="48.68599" lon="1.93445">
        <ele>129.9</ele>
        <time>2022-09-18T09:32:46Z</time>
      </trkpt>
      <trkpt lat="48.68589" lon="1.93456">
        <ele>128</ele>
        <time>2022-09-18T09:32:48Z</time>
      </trkpt>
      <trkpt lat="48.6858" lon="1.93466">
        <ele>126.6</ele>
        <time>2022-09-18T09:32:50Z</time>
      </trkpt>
      <trkpt lat="48.6857" lon="1.93482">
        <ele>125.6</ele>
        <time>2022-09-18T09:32:52Z</time>
      </trkpt>
      <trkpt lat="48.68563" lon="1.935">
        <ele>124.8</ele>
        <time>2022-09-18T09:32:54Z</time>
      </trkpt>
      <trkpt lat="48.68558" lon="1.93522">
        <ele>123.5</ele>
        <time>2022-09-18T09:32:56Z</time>
      </trkpt>
      <trkpt lat="48.68557" lon="1.9355">
        <ele>123.1</ele>
        <time>2022-09-18T09:32:57Z</time>
      </trkpt>
      <trkpt lat="48.68552" lon="1.93569">
        <ele>123.8</ele>
        <time>2022-09-18T09:32:59Z</time>
      </trkpt>
      <trkpt lat="48.68544" lon="1.93586">
        <ele>123.9</ele>
        <time>2022-09-18T09:33:01Z</time>
      </trkpt>
      <trkpt lat="48.68536" lon="1.93599">
        <ele>123.4</ele>
        <time>2022-09-18T09:33:03Z</time>
      </trkpt>
      <trkpt lat="48.6853" lon="1.93609">
        <ele>122.4</ele>
        <time>2022-09-18T09:33:05Z</time>
      </trkpt>
      <trkpt lat="48.68524" lon="1.93621">
        <ele>122.1</ele>
        <time>2022-09-18T09:33:07Z</time>
      </trkpt>
      <trkpt lat="48.68519" lon="1.93639">
        <ele>122.1</ele>
        <time>2022-09-18T09:33:10Z</time>
      </trkpt>
      <trkpt lat="48.68518" lon="1.93654">
        <ele>122.3</ele>
        <time>2022-09-18T09:33:13Z</time>
      </trkpt>
      <trkpt lat="48.68514" lon="1.93667">
        <ele>122</ele>
        <time>2022-09-18T09:33:15Z</time>
      </trkpt>
      <trkpt lat="48.68512" lon="1.93688">
        <ele>122.4</ele>
        <time>2022-09-18T09:33:18Z</time>
      </trkpt>
      <trkpt lat="48.68508" lon="1.93701">
        <ele>122.6</ele>
        <time>2022-09-18T09:33:20Z</time>
      </trkpt>
      <trkpt lat="48.68506" lon="1.93721">
        <ele>123.3</ele>
        <time>2022-09-18T09:33:23Z</time>
      </trkpt>
      <trkpt lat="48.68501" lon="1.9374">
        <ele>122.8</ele>
        <time>2022-09-18T09:33:26Z</time>
      </trkpt>
      <trkpt lat="48.68496" lon="1.93754">
        <ele>122.7</ele>
        <time>2022-09-18T09:33:29Z</time>
      </trkpt>
      <trkpt lat="48.68496" lon="1.9377">
        <ele>123.6</ele>
        <time>2022-09-18T09:33:31Z</time>
      </trkpt>
      <trkpt lat="48.68494" lon="1.9379">
        <ele>124.1</ele>
        <time>2022-09-18T09:33:34Z</time>
      </trkpt>
      <trkpt lat="48.68489" lon="1.93808">
        <ele>124</ele>
        <time>2022-09-18T09:33:37Z</time>
      </trkpt>
      <trkpt lat="48.68478" lon="1.93816">
        <ele>122.4</ele>
        <time>2022-09-18T09:33:39Z</time>
      </trkpt>
      <trkpt lat="48.68469" lon="1.93821">
        <ele>121.3</ele>
        <time>2022-09-18T09:33:41Z</time>
      </trkpt>
      <trkpt lat="48.68463" lon="1.93832">
        <ele>121.9</ele>
        <time>2022-09-18T09:33:43Z</time>
      </trkpt>
      <trkpt lat="48.68454" lon="1.93847">
        <ele>123</ele>
        <time>2022-09-18T09:33:46Z</time>
      </trkpt>
      <trkpt lat="48.6845" lon="1.93863">
        <ele>124.4</ele>
        <time>2022-09-18T09:33:49Z</time>
      </trkpt>
      <trkpt lat="48.68442" lon="1.93878">
        <ele>125</ele>
        <time>2022-09-18T09:33:51Z</time>
      </trkpt>
      <trkpt lat="48.68438" lon="1.93893">
        <ele>125.8</ele>
        <time>2022-09-18T09:33:53Z</time>
      </trkpt>
      <trkpt lat="48.68431" lon="1.93905">
        <ele>125</ele>
        <time>2022-09-18T09:33:55Z</time>
      </trkpt>
      <trkpt lat="48.68421" lon="1.93917">
        <ele>123.3</ele>
        <time>2022-09-18T09:33:57Z</time>
      </trkpt>
      <trkpt lat="48.68415" lon="1.93926">
        <ele>123.8</ele>
        <time>2022-09-18T09:33:59Z</time>
      </trkpt>
      <trkpt lat="48.68405" lon="1.9394">
        <ele>124.7</ele>
        <time>2022-09-18T09:34:02Z</time>
      </trkpt>
      <trkpt lat="48.68397" lon="1.93948">
        <ele>124.5</ele>
        <time>2022-09-18T09:34:04Z</time>
      </trkpt>
      <trkpt lat="48.68387" lon="1.93955">
        <ele>123.7</ele>
        <time>2022-09-18T09:34:06Z</time>
      </trkpt>
      <trkpt lat="48.68382" lon="1.93969">
        <ele>125</ele>
        <time>2022-09-18T09:34:09Z</time>
      </trkpt>
      <trkpt lat="48.68373" lon="1.93979">
        <ele>124</ele>
        <time>2022-09-18T09:34:11Z</time>
      </trkpt>
      <trkpt lat="48.68365" lon="1.93992">
        <ele>122.6</ele>
        <time>2022-09-18T09:34:13Z</time>
      </trkpt>
      <trkpt lat="48.68357" lon="1.94005">
        <ele>121.7</ele>
        <time>2022-09-18T09:34:15Z</time>
      </trkpt>
      <trkpt lat="48.68348" lon="1.94019">
        <ele>121.3</ele>
        <time>2022-09-18T09:34:17Z</time>
      </trkpt>
      <trkpt lat="48.68342" lon="1.94035">
        <ele>121.2</ele>
        <time>2022-09-18T09:34:19Z</time>
      </trkpt>
      <trkpt lat="48.68339" lon="1.9405">
        <ele>121.4</ele>
        <time>2022-09-18T09:34:21Z</time>
      </trkpt>
      <trkpt lat="48.68335" lon="1.94063">
        <ele>121.5</ele>
        <time>2022-09-18T09:34:23Z</time>
      </trkpt>
      <trkpt lat="48.6833" lon="1.94075">
        <ele>121.4</ele>
        <time>2022-09-18T09:34:25Z</time>
      </trkpt>
      <trkpt lat="48.68328" lon="1.94091">
        <ele>121.6</ele>
        <time>2022-09-18T09:34:28Z</time>
      </trkpt>
      <trkpt lat="48.68326" lon="1.9411">
        <ele>121.9</ele>
        <time>2022-09-18T09:34:31Z</time>
      </trkpt>
      <trkpt lat="48.68321" lon="1.94125">
        <ele>121.5</ele>
        <time>2022-09-18T09:34:33Z</time>
      </trkpt>
      <trkpt lat="48.68317" lon="1.94139">
        <ele>121.3</ele>
        <time>2022-09-18T09:34:35Z</time>
      </trkpt>
      <trkpt lat="48.68313" lon="1.94154">
        <ele>121.2</ele>
        <time>2022-09-18T09:34:37Z</time>
      </trkpt>
      <trkpt lat="48.6831" lon="1.94171">
        <ele>121.3</ele>
        <time>2022-09-18T09:34:39Z</time>
      </trkpt>
      <trkpt lat="48.68306" lon="1.94186">
        <ele>121</ele>
        <time>2022-09-18T09:34:41Z</time>
      </trkpt>
      <trkpt lat="48.68303" lon="1.94202">
        <ele>120.5</ele>
        <time>2022-09-18T09:34:43Z</time>
      </trkpt>
      <trkpt lat="48.68296" lon="1.94216">
        <ele>119.5</ele>
        <time>2022-09-18T09:34:45Z</time>
      </trkpt>
      <trkpt lat="48.68292" lon="1.94231">
        <ele>118.9</ele>
        <time>2022-09-18T09:34:47Z</time>
      </trkpt>
      <trkpt lat="48.68292" lon="1.94249">
        <ele>118.5</ele>
        <time>2022-09-18T09:34:50Z</time>
      </trkpt>
      <trkpt lat="48.6829" lon="1.94262">
        <ele>119.5</ele>
        <time>2022-09-18T09:34:55Z</time>
      </trkpt>
      <trkpt lat="48.68285" lon="1.94275">
        <ele>119.8</ele>
        <time>2022-09-18T09:35:00Z</time>
      </trkpt>
      <trkpt lat="48.68279" lon="1.94286">
        <ele>119.9</ele>
        <time>2022-09-18T09:35:04Z</time>
      </trkpt>
      <trkpt lat="48.68275" lon="1.94303">
        <ele>120.5</ele>
        <time>2022-09-18T09:35:07Z</time>
      </trkpt>
      <trkpt lat="48.68272" lon="1.94318">
        <ele>121.1</ele>
        <time>2022-09-18T09:35:10Z</time>
      </trkpt>
      <trkpt lat="48.68269" lon="1.94332">
        <ele>121.3</ele>
        <time>2022-09-18T09:35:13Z</time>
      </trkpt>
      <trkpt lat="48.68266" lon="1.94349">
        <ele>122</ele>
        <time>2022-09-18T09:35:16Z</time>
      </trkpt>
      <trkpt lat="48.68261" lon="1.94363">
        <ele>122</ele>
        <time>2022-09-18T09:35:19Z</time>
      </trkpt>
      <trkpt lat="48.68255" lon="1.94377">
        <ele>122.3</ele>
        <time>2022-09-18T09:35:22Z</time>
      </trkpt>
      <trkpt lat="48.68246" lon="1.94391">
        <ele>121.6</ele>
        <time>2022-09-18T09:35:24Z</time>
      </trkpt>
      <trkpt lat="48.68242" lon="1.94404">
        <ele>122.4</ele>
        <time>2022-09-18T09:35:27Z</time>
      </trkpt>
      <trkpt lat="48.68238" lon="1.94417">
        <ele>122.6</ele>
        <time>2022-09-18T09:35:30Z</time>
      </trkpt>
      <trkpt lat="48.68234" lon="1.94433">
        <ele>122.9</ele>
        <time>2022-09-18T09:35:33Z</time>
      </trkpt>
      <trkpt lat="48.68221" lon="1.94436">
        <ele>119.3</ele>
        <time>2022-09-18T09:35:37Z</time>
      </trkpt>
      <trkpt lat="48.68209" lon="1.9444">
        <ele>118.8</ele>
        <time>2022-09-18T09:35:40Z</time>
      </trkpt>
      <trkpt lat="48.68197" lon="1.94444">
        <ele>118.2</ele>
        <time>2022-09-18T09:35:43Z</time>
      </trkpt>
      <trkpt lat="48.68184" lon="1.94447">
        <ele>117.9</ele>
        <time>2022-09-18T09:35:47Z</time>
      </trkpt>
      <trkpt lat="48.68174" lon="1.94451">
        <ele>118.2</ele>
        <time>2022-09-18T09:35:51Z</time>
      </trkpt>
      <trkpt lat="48.68165" lon="1.94461">
        <ele>119.2</ele>
        <time>2022-09-18T09:35:55Z</time>
      </trkpt>
      <trkpt lat="48.68155" lon="1.94474">
        <ele>119.9</ele>
        <time>2022-09-18T09:35:58Z</time>
      </trkpt>
      <trkpt lat="48.68146" lon="1.94489">
        <ele>120.3</ele>
        <time>2022-09-18T09:36:01Z</time>
      </trkpt>
      <trkpt lat="48.68145" lon="1.94505">
        <ele>121.5</ele>
        <time>2022-09-18T09:36:04Z</time>
      </trkpt>
      <trkpt lat="48.68146" lon="1.94524">
        <ele>123.2</ele>
        <time>2022-09-18T09:36:08Z</time>
      </trkpt>
      <trkpt lat="48.68143" lon="1.9454">
        <ele>123.3</ele>
        <time>2022-09-18T09:36:11Z</time>
      </trkpt>
      <trkpt lat="48.6814" lon="1.94559">
        <ele>123.5</ele>
        <time>2022-09-18T09:36:14Z</time>
      </trkpt>
      <trkpt lat="48.68138" lon="1.94574">
        <ele>124.1</ele>
        <time>2022-09-18T09:36:17Z</time>
      </trkpt>
      <trkpt lat="48.68139" lon="1.9459">
        <ele>125.2</ele>
        <time>2022-09-18T09:36:21Z</time>
      </trkpt>
      <trkpt lat="48.68138" lon="1.94606">
        <ele>125.7</ele>
        <time>2022-09-18T09:36:26Z</time>
      </trkpt>
      <trkpt lat="48.68137" lon="1.94621">
        <ele>126.1</ele>
        <time>2022-09-18T09:36:30Z</time>
      </trkpt>
      <trkpt lat="48.68138" lon="1.94635">
        <ele>126.7</ele>
        <time>2022-09-18T09:36:34Z</time>
      </trkpt>
      <trkpt lat="48.68141" lon="1.94652">
        <ele>127.5</ele>
        <time>2022-09-18T09:36:39Z</time>
      </trkpt>
      <trkpt lat="48.68145" lon="1.94665">
        <ele>128.4</ele>
        <time>2022-09-18T09:36:43Z</time>
      </trkpt>
      <trkpt lat="48.68147" lon="1.94679">
        <ele>129.4</ele>
        <time>2022-09-18T09:36:46Z</time>
      </trkpt>
      <trkpt lat="48.68146" lon="1.94692">
        <ele>129.7</ele>
        <time>2022-09-18T09:36:50Z</time>
      </trkpt>
      <trkpt lat="48.68137" lon="1.94705">
        <ele>128.1</ele>
        <time>2022-09-18T09:36:54Z</time>
      </trkpt>
      <trkpt lat="48.68129" lon="1.94714">
        <ele>126.9</ele>
        <time>2022-09-18T09:36:57Z</time>
      </trkpt>
      <trkpt lat="48.68119" lon="1.94729">
        <ele>125.6</ele>
        <time>2022-09-18T09:37:00Z</time>
      </trkpt>
      <trkpt lat="48.68114" lon="1.9474">
        <ele>124.5</ele>
        <time>2022-09-18T09:37:01Z</time>
      </trkpt>
      <trkpt lat="48.68111" lon="1.94754">
        <ele>123.9</ele>
        <time>2022-09-18T09:37:03Z</time>
      </trkpt>
      <trkpt lat="48.68106" lon="1.94766">
        <ele>122.5</ele>
        <time>2022-09-18T09:37:08Z</time>
      </trkpt>
      <trkpt lat="48.68107" lon="1.9478">
        <ele>122.1</ele>
        <time>2022-09-18T09:37:23Z</time>
      </trkpt>
      <trkpt lat="48.68104" lon="1.94794">
        <ele>121.1</ele>
        <time>2022-09-18T09:37:26Z</time>
      </trkpt>
      <trkpt lat="48.68101" lon="1.94807">
        <ele>120.3</ele>
        <time>2022-09-18T09:37:29Z</time>
      </trkpt>
      <trkpt lat="48.68097" lon="1.94819">
        <ele>120</ele>
        <time>2022-09-18T09:37:33Z</time>
      </trkpt>
      <trkpt lat="48.68092" lon="1.94834">
        <ele>119.6</ele>
        <time>2022-09-18T09:37:36Z</time>
      </trkpt>
      <trkpt lat="48.68091" lon="1.94848">
        <ele>120</ele>
        <time>2022-09-18T09:37:39Z</time>
      </trkpt>
      <trkpt lat="48.68085" lon="1.94861">
        <ele>119.3</ele>
        <time>2022-09-18T09:37:43Z</time>
      </trkpt>
      <trkpt lat="48.68082" lon="1.94876">
        <ele>119.4</ele>
        <time>2022-09-18T09:37:47Z</time>
      </trkpt>
      <trkpt lat="48.68084" lon="1.94891">
        <ele>120.2</ele>
        <time>2022-09-18T09:37:50Z</time>
      </trkpt>
      <trkpt lat="48.68085" lon="1.94907">
        <ele>120.5</ele>
        <time>2022-09-18T09:37:53Z</time>
      </trkpt>
      <trkpt lat="48.6808" lon="1.94924">
        <ele>120.2</ele>
        <time>2022-09-18T09:37:56Z</time>
      </trkpt>
      <trkpt lat="48.68074" lon="1.94937">
        <ele>120.4</ele>
        <time>2022-09-18T09:37:59Z</time>
      </trkpt>
      <trkpt lat="48.68071" lon="1.94952">
        <ele>121.4</ele>
        <time>2022-09-18T09:38:04Z</time>
      </trkpt>
      <trkpt lat="48.68066" lon="1.94964">
        <ele>121.5</ele>
        <time>2022-09-18T09:38:09Z</time>
      </trkpt>
      <trkpt lat="48.68062" lon="1.94976">
        <ele>122</ele>
        <time>2022-09-18T09:38:14Z</time>
      </trkpt>
      <trkpt lat="48.68055" lon="1.94986">
        <ele>121.9</ele>
        <time>2022-09-18T09:38:20Z</time>
      </trkpt>
      <trkpt lat="48.68049" lon="1.94997">
        <ele>122.7</ele>
        <time>2022-09-18T09:38:26Z</time>
      </trkpt>
      <trkpt lat="48.68043" lon="1.95012">
        <ele>123.5</ele>
        <time>2022-09-18T09:38:33Z</time>
      </trkpt>
      <trkpt lat="48.68034" lon="1.95023">
        <ele>123.3</ele>
        <time>2022-09-18T09:38:37Z</time>
      </trkpt>
      <trkpt lat="48.68023" lon="1.95034">
        <ele>122.9</ele>
        <time>2022-09-18T09:38:40Z</time>
      </trkpt>
      <trkpt lat="48.68012" lon="1.95046">
        <ele>122.6</ele>
        <time>2022-09-18T09:38:43Z</time>
      </trkpt>
      <trkpt lat="48.68004" lon="1.95058">
        <ele>122.5</ele>
        <time>2022-09-18T09:38:45Z</time>
      </trkpt>
      <trkpt lat="48.67997" lon="1.95073">
        <ele>122.2</ele>
        <time>2022-09-18T09:38:47Z</time>
      </trkpt>
      <trkpt lat="48.67992" lon="1.95088">
        <ele>122.3</ele>
        <time>2022-09-18T09:38:49Z</time>
      </trkpt>
      <trkpt lat="48.67987" lon="1.95102">
        <ele>122.3</ele>
        <time>2022-09-18T09:38:51Z</time>
      </trkpt>
      <trkpt lat="48.6798" lon="1.95118">
        <ele>122.1</ele>
        <time>2022-09-18T09:38:54Z</time>
      </trkpt>
      <trkpt lat="48.67975" lon="1.95131">
        <ele>122</ele>
        <time>2022-09-18T09:38:56Z</time>
      </trkpt>
      <trkpt lat="48.67969" lon="1.95147">
        <ele>121.8</ele>
        <time>2022-09-18T09:38:59Z</time>
      </trkpt>
      <trkpt lat="48.67966" lon="1.95162">
        <ele>121.7</ele>
        <time>2022-09-18T09:39:01Z</time>
      </trkpt>
      <trkpt lat="48.67962" lon="1.95177">
        <ele>121.6</ele>
        <time>2022-09-18T09:39:03Z</time>
      </trkpt>
      <trkpt lat="48.67958" lon="1.95198">
        <ele>121.5</ele>
        <time>2022-09-18T09:39:05Z</time>
      </trkpt>
      <trkpt lat="48.67954" lon="1.95211">
        <ele>121</ele>
        <time>2022-09-18T09:39:07Z</time>
      </trkpt>
      <trkpt lat="48.67955" lon="1.95225">
        <ele>121.4</ele>
        <time>2022-09-18T09:39:09Z</time>
      </trkpt>
      <trkpt lat="48.67955" lon="1.95239">
        <ele>122.5</ele>
        <time>2022-09-18T09:39:11Z</time>
      </trkpt>
      <trkpt lat="48.67953" lon="1.95257">
        <ele>123.4</ele>
        <time>2022-09-18T09:39:14Z</time>
      </trkpt>
      <trkpt lat="48.67951" lon="1.95271">
        <ele>124</ele>
        <time>2022-09-18T09:39:16Z</time>
      </trkpt>
      <trkpt lat="48.67946" lon="1.95289">
        <ele>124.5</ele>
        <time>2022-09-18T09:39:19Z</time>
      </trkpt>
      <trkpt lat="48.67939" lon="1.95302">
        <ele>124.5</ele>
        <time>2022-09-18T09:39:22Z</time>
      </trkpt>
      <trkpt lat="48.67932" lon="1.95311">
        <ele>123.8</ele>
        <time>2022-09-18T09:39:24Z</time>
      </trkpt>
      <trkpt lat="48.67932" lon="1.95327">
        <ele>124.9</ele>
        <time>2022-09-18T09:39:27Z</time>
      </trkpt>
      <trkpt lat="48.6793" lon="1.95344">
        <ele>125.3</ele>
        <time>2022-09-18T09:39:32Z</time>
      </trkpt>
      <trkpt lat="48.67927" lon="1.95361">
        <ele>125.1</ele>
        <time>2022-09-18T09:39:35Z</time>
      </trkpt>
      <trkpt lat="48.67922" lon="1.95378">
        <ele>124.7</ele>
        <time>2022-09-18T09:39:38Z</time>
      </trkpt>
      <trkpt lat="48.67919" lon="1.95394">
        <ele>124.4</ele>
        <time>2022-09-18T09:39:42Z</time>
      </trkpt>
      <trkpt lat="48.67915" lon="1.9541">
        <ele>123.7</ele>
        <time>2022-09-18T09:39:45Z</time>
      </trkpt>
      <trkpt lat="48.67915" lon="1.95428">
        <ele>124.1</ele>
        <time>2022-09-18T09:39:48Z</time>
      </trkpt>
      <trkpt lat="48.67917" lon="1.95443">
        <ele>125</ele>
        <time>2022-09-18T09:39:51Z</time>
      </trkpt>
      <trkpt lat="48.67918" lon="1.9546">
        <ele>125.5</ele>
        <time>2022-09-18T09:39:54Z</time>
      </trkpt>
      <trkpt lat="48.6792" lon="1.95476">
        <ele>126</ele>
        <time>2022-09-18T09:39:57Z</time>
      </trkpt>
      <trkpt lat="48.67918" lon="1.9549">
        <ele>126.2</ele>
        <time>2022-09-18T09:40:00Z</time>
      </trkpt>
      <trkpt lat="48.67914" lon="1.95503">
        <ele>125.7</ele>
        <time>2022-09-18T09:40:02Z</time>
      </trkpt>
      <trkpt lat="48.67915" lon="1.95519">
        <ele>127</ele>
        <time>2022-09-18T09:40:05Z</time>
      </trkpt>
      <trkpt lat="48.67912" lon="1.95533">
        <ele>127.3</ele>
        <time>2022-09-18T09:40:09Z</time>
      </trkpt>
      <trkpt lat="48.67915" lon="1.95549">
        <ele>129.1</ele>
        <time>2022-09-18T09:40:12Z</time>
      </trkpt>
      <trkpt lat="48.67914" lon="1.95564">
        <ele>130.5</ele>
        <time>2022-09-18T09:40:16Z</time>
      </trkpt>
      <trkpt lat="48.67905" lon="1.95577">
        <ele>130.2</ele>
        <time>2022-09-18T09:40:20Z</time>
      </trkpt>
      <trkpt lat="48.67897" lon="1.95589">
        <ele>130.1</ele>
        <time>2022-09-18T09:40:24Z</time>
      </trkpt>
      <trkpt lat="48.6789" lon="1.95602">
        <ele>130.5</ele>
        <time>2022-09-18T09:40:28Z</time>
      </trkpt>
      <trkpt lat="48.67884" lon="1.95613">
        <ele>130.8</ele>
        <time>2022-09-18T09:40:33Z</time>
      </trkpt>
      <trkpt lat="48.67877" lon="1.95625">
        <ele>130.9</ele>
        <time>2022-09-18T09:40:38Z</time>
      </trkpt>
      <trkpt lat="48.67868" lon="1.95637">
        <ele>130</ele>
        <time>2022-09-18T09:40:41Z</time>
      </trkpt>
      <trkpt lat="48.67861" lon="1.95648">
        <ele>129.1</ele>
        <time>2022-09-18T09:40:43Z</time>
      </trkpt>
      <trkpt lat="48.67851" lon="1.95662">
        <ele>128.4</ele>
        <time>2022-09-18T09:40:45Z</time>
      </trkpt>
      <trkpt lat="48.67844" lon="1.95678">
        <ele>128.3</ele>
        <time>2022-09-18T09:40:47Z</time>
      </trkpt>
      <trkpt lat="48.67838" lon="1.95695">
        <ele>128.3</ele>
        <time>2022-09-18T09:40:49Z</time>
      </trkpt>
      <trkpt lat="48.67835" lon="1.95712">
        <ele>128.6</ele>
        <time>2022-09-18T09:40:51Z</time>
      </trkpt>
      <trkpt lat="48.67831" lon="1.95725">
        <ele>128.7</ele>
        <time>2022-09-18T09:40:53Z</time>
      </trkpt>
      <trkpt lat="48.67829" lon="1.95742">
        <ele>129.4</ele>
        <time>2022-09-18T09:40:57Z</time>
      </trkpt>
      <trkpt lat="48.67831" lon="1.95757">
        <ele>130.7</ele>
        <time>2022-09-18T09:41:02Z</time>
      </trkpt>
      <trkpt lat="48.67832" lon="1.95771">
        <ele>131.5</ele>
        <time>2022-09-18T09:41:06Z</time>
      </trkpt>
      <trkpt lat="48.67833" lon="1.95785">
        <ele>132.4</ele>
        <time>2022-09-18T09:41:10Z</time>
      </trkpt>
      <trkpt lat="48.67832" lon="1.95801">
        <ele>133.3</ele>
        <time>2022-09-18T09:41:15Z</time>
      </trkpt>
      <trkpt lat="48.67828" lon="1.95815">
        <ele>133.7</ele>
        <time>2022-09-18T09:41:20Z</time>
      </trkpt>
      <trkpt lat="48.67821" lon="1.95826">
        <ele>133.1</ele>
        <time>2022-09-18T09:41:23Z</time>
      </trkpt>
      <trkpt lat="48.67817" lon="1.95841">
        <ele>133.9</ele>
        <time>2022-09-18T09:41:26Z</time>
      </trkpt>
      <trkpt lat="48.67813" lon="1.95856">
        <ele>134.5</ele>
        <time>2022-09-18T09:41:29Z</time>
      </trkpt>
      <trkpt lat="48.67808" lon="1.95868">
        <ele>134.6</ele>
        <time>2022-09-18T09:41:32Z</time>
      </trkpt>
      <trkpt lat="48.67802" lon="1.95886">
        <ele>135.5</ele>
        <time>2022-09-18T09:41:35Z</time>
      </trkpt>
      <trkpt lat="48.67795" lon="1.95897">
        <ele>134.9</ele>
        <time>2022-09-18T09:41:37Z</time>
      </trkpt>
      <trkpt lat="48.67786" lon="1.95909">
        <ele>133.6</ele>
        <time>2022-09-18T09:41:40Z</time>
      </trkpt>
      <trkpt lat="48.6778" lon="1.95919">
        <ele>132.9</ele>
        <time>2022-09-18T09:41:42Z</time>
      </trkpt>
      <trkpt lat="48.6777" lon="1.95935">
        <ele>132.4</ele>
        <time>2022-09-18T09:41:44Z</time>
      </trkpt>
      <trkpt lat="48.67765" lon="1.95946">
        <ele>132.3</ele>
        <time>2022-09-18T09:41:46Z</time>
      </trkpt>
      <trkpt lat="48.67756" lon="1.95961">
        <ele>131.6</ele>
        <time>2022-09-18T09:41:48Z</time>
      </trkpt>
      <trkpt lat="48.6775" lon="1.95973">
        <ele>131.1</ele>
        <time>2022-09-18T09:41:50Z</time>
      </trkpt>
      <trkpt lat="48.67743" lon="1.95985">
        <ele>130.8</ele>
        <time>2022-09-18T09:41:52Z</time>
      </trkpt>
      <trkpt lat="48.67735" lon="1.95996">
        <ele>129.9</ele>
        <time>2022-09-18T09:41:54Z</time>
      </trkpt>
      <trkpt lat="48.67727" lon="1.96002">
        <ele>128.3</ele>
        <time>2022-09-18T09:41:56Z</time>
      </trkpt>
      <trkpt lat="48.67719" lon="1.96014">
        <ele>127.3</ele>
        <time>2022-09-18T09:41:59Z</time>
      </trkpt>
      <trkpt lat="48.67714" lon="1.96026">
        <ele>126.8</ele>
        <time>2022-09-18T09:42:01Z</time>
      </trkpt>
      <trkpt lat="48.67709" lon="1.96039">
        <ele>126.4</ele>
        <time>2022-09-18T09:42:03Z</time>
      </trkpt>
      <trkpt lat="48.67704" lon="1.96056">
        <ele>125.3</ele>
        <time>2022-09-18T09:42:06Z</time>
      </trkpt>
      <trkpt lat="48.67701" lon="1.96073">
        <ele>124.7</ele>
        <time>2022-09-18T09:42:08Z</time>
      </trkpt>
      <trkpt lat="48.67698" lon="1.96088">
        <ele>124</ele>
        <time>2022-09-18T09:42:10Z</time>
      </trkpt>
      <trkpt lat="48.67695" lon="1.96107">
        <ele>123.7</ele>
        <time>2022-09-18T09:42:13Z</time>
      </trkpt>
      <trkpt lat="48.6769" lon="1.9612">
        <ele>123.1</ele>
        <time>2022-09-18T09:42:15Z</time>
      </trkpt>
      <trkpt lat="48.67681" lon="1.96131">
        <ele>120.5</ele>
        <time>2022-09-18T09:42:18Z</time>
      </trkpt>
      <trkpt lat="48.67673" lon="1.96139">
        <ele>118</ele>
        <time>2022-09-18T09:42:21Z</time>
      </trkpt>
      <trkpt lat="48.67667" lon="1.9615">
        <ele>116.7</ele>
        <time>2022-09-18T09:42:24Z</time>
      </trkpt>
      <trkpt lat="48.67666" lon="1.96164">
        <ele>116.8</ele>
        <time>2022-09-18T09:42:26Z</time>
      </trkpt>
      <trkpt lat="48.67663" lon="1.9618">
        <ele>117.1</ele>
        <time>2022-09-18T09:42:28Z</time>
      </trkpt>
      <trkpt lat="48.67656" lon="1.96193">
        <ele>116.4</ele>
        <time>2022-09-18T09:42:30Z</time>
      </trkpt>
      <trkpt lat="48.67646" lon="1.96197">
        <ele>115</ele>
        <time>2022-09-18T09:42:32Z</time>
      </trkpt>
      <trkpt lat="48.6764" lon="1.96208">
        <ele>113.6</ele>
        <time>2022-09-18T09:42:34Z</time>
      </trkpt>
      <trkpt lat="48.67635" lon="1.96224">
        <ele>112.9</ele>
        <time>2022-09-18T09:42:37Z</time>
      </trkpt>
      <trkpt lat="48.67637" lon="1.9624">
        <ele>113</ele>
        <time>2022-09-18T09:42:40Z</time>
      </trkpt>
      <trkpt lat="48.67636" lon="1.96258">
        <ele>113</ele>
        <time>2022-09-18T09:42:43Z</time>
      </trkpt>
      <trkpt lat="48.67637" lon="1.96275">
        <ele>113.1</ele>
        <time>2022-09-18T09:42:46Z</time>
      </trkpt>
      <trkpt lat="48.67641" lon="1.96289">
        <ele>112.7</ele>
        <time>2022-09-18T09:42:49Z</time>
      </trkpt>
      <trkpt lat="48.67644" lon="1.96307">
        <ele>112.2</ele>
        <time>2022-09-18T09:42:52Z</time>
      </trkpt>
      <trkpt lat="48.67645" lon="1.96325">
        <ele>112.1</ele>
        <time>2022-09-18T09:42:55Z</time>
      </trkpt>
      <trkpt lat="48.67647" lon="1.96345">
        <ele>112.2</ele>
        <time>2022-09-18T09:42:58Z</time>
      </trkpt>
      <trkpt lat="48.67652" lon="1.9636">
        <ele>112.1</ele>
        <time>2022-09-18T09:43:01Z</time>
      </trkpt>
      <trkpt lat="48.67658" lon="1.96373">
        <ele>112</ele>
        <time>2022-09-18T09:43:04Z</time>
      </trkpt>
      <trkpt lat="48.67666" lon="1.96385">
        <ele>112</ele>
        <time>2022-09-18T09:43:07Z</time>
      </trkpt>
      <trkpt lat="48.67676" lon="1.96398">
        <ele>112</ele>
        <time>2022-09-18T09:43:10Z</time>
      </trkpt>
      <trkpt lat="48.67685" lon="1.96401">
        <ele>111.8</ele>
        <time>2022-09-18T09:43:13Z</time>
      </trkpt>
      <trkpt lat="48.67695" lon="1.96402">
        <ele>111.5</ele>
        <time>2022-09-18T09:43:15Z</time>
      </trkpt>
      <trkpt lat="48.67706" lon="1.96407">
        <ele>111.9</ele>
        <time>2022-09-18T09:43:18Z</time>
      </trkpt>
      <trkpt lat="48.67712" lon="1.96421">
        <ele>112.1</ele>
        <time>2022-09-18T09:43:22Z</time>
      </trkpt>
      <trkpt lat="48.67714" lon="1.96436">
        <ele>112.2</ele>
        <time>2022-09-18T09:43:26Z</time>
      </trkpt>
      <trkpt lat="48.67722" lon="1.96448">
        <ele>112.3</ele>
        <time>2022-09-18T09:43:30Z</time>
      </trkpt>
      <trkpt lat="48.67733" lon="1.96454">
        <ele>112.2</ele>
        <time>2022-09-18T09:43:34Z</time>
      </trkpt>
      <trkpt lat="48.67738" lon="1.96466">
        <ele>112.6</ele>
        <time>2022-09-18T09:43:46Z</time>
      </trkpt>
      <trkpt lat="48.6773" lon="1.96474">
        <ele>113.6</ele>
        <time>2022-09-18T09:43:51Z</time>
      </trkpt>
      <trkpt lat="48.67736" lon="1.96488">
        <ele>114.8</ele>
        <time>2022-09-18T09:44:08Z</time>
      </trkpt>
      <trkpt lat="48.67745" lon="1.96496">
        <ele>114.4</ele>
        <time>2022-09-18T09:44:11Z</time>
      </trkpt>
      <trkpt lat="48.67756" lon="1.96503">
        <ele>114.2</ele>
        <time>2022-09-18T09:44:14Z</time>
      </trkpt>
      <trkpt lat="48.67766" lon="1.9651">
        <ele>114.6</ele>
        <time>2022-09-18T09:44:17Z</time>
      </trkpt>
      <trkpt lat="48.67775" lon="1.96517">
        <ele>114.9</ele>
        <time>2022-09-18T09:44:20Z</time>
      </trkpt>
      <trkpt lat="48.67783" lon="1.96526">
        <ele>115.5</ele>
        <time>2022-09-18T09:44:23Z</time>
      </trkpt>
      <trkpt lat="48.67792" lon="1.96532">
        <ele>116.1</ele>
        <time>2022-09-18T09:44:26Z</time>
      </trkpt>
      <trkpt lat="48.67801" lon="1.96538">
        <ele>116.4</ele>
        <time>2022-09-18T09:44:29Z</time>
      </trkpt>
      <trkpt lat="48.6781" lon="1.96544">
        <ele>116.5</ele>
        <time>2022-09-18T09:44:33Z</time>
      </trkpt>
      <trkpt lat="48.6782" lon="1.96553">
        <ele>117.2</ele>
        <time>2022-09-18T09:44:37Z</time>
      </trkpt>
      <trkpt lat="48.67829" lon="1.96561">
        <ele>117.4</ele>
        <time>2022-09-18T09:44:40Z</time>
      </trkpt>
      <trkpt lat="48.67837" lon="1.96568">
        <ele>117.1</ele>
        <time>2022-09-18T09:44:43Z</time>
      </trkpt>
      <trkpt lat="48.67847" lon="1.9658">
        <ele>116.4</ele>
        <time>2022-09-18T09:44:47Z</time>
      </trkpt>
      <trkpt lat="48.67857" lon="1.96585">
        <ele>115.5</ele>
        <time>2022-09-18T09:44:48Z</time>
      </trkpt>
      <trkpt lat="48.67869" lon="1.96592">
        <ele>114.9</ele>
        <time>2022-09-18T09:44:50Z</time>
      </trkpt>
      <trkpt lat="48.67884" lon="1.96601">
        <ele>114.3</ele>
        <time>2022-09-18T09:44:53Z</time>
      </trkpt>
      <trkpt lat="48.67889" lon="1.96616">
        <ele>114</ele>
        <time>2022-09-18T09:44:57Z</time>
      </trkpt>
      <trkpt lat="48.67887" lon="1.9663">
        <ele>114.2</ele>
        <time>2022-09-18T09:45:00Z</time>
      </trkpt>
      <trkpt lat="48.67888" lon="1.96645">
        <ele>114.2</ele>
        <time>2022-09-18T09:45:03Z</time>
      </trkpt>
      <trkpt lat="48.67892" lon="1.9666">
        <ele>113.6</ele>
        <time>2022-09-18T09:45:05Z</time>
      </trkpt>
      <trkpt lat="48.67899" lon="1.96679">
        <ele>112.6</ele>
        <time>2022-09-18T09:45:07Z</time>
      </trkpt>
      <trkpt lat="48.679" lon="1.96696">
        <ele>112.4</ele>
        <time>2022-09-18T09:45:09Z</time>
      </trkpt>
      <trkpt lat="48.67901" lon="1.9671">
        <ele>112.7</ele>
        <time>2022-09-18T09:45:11Z</time>
      </trkpt>
      <trkpt lat="48.67902" lon="1.96724">
        <ele>112.7</ele>
        <time>2022-09-18T09:45:14Z</time>
      </trkpt>
      <trkpt lat="48.67903" lon="1.96743">
        <ele>112.5</ele>
        <time>2022-09-18T09:45:17Z</time>
      </trkpt>
      <trkpt lat="48.67905" lon="1.96763">
        <ele>112.7</ele>
        <time>2022-09-18T09:45:20Z</time>
      </trkpt>
      <trkpt lat="48.67911" lon="1.96774">
        <ele>112.4</ele>
        <time>2022-09-18T09:45:22Z</time>
      </trkpt>
      <trkpt lat="48.67919" lon="1.96783">
        <ele>112.4</ele>
        <time>2022-09-18T09:45:24Z</time>
      </trkpt>
      <trkpt lat="48.67927" lon="1.96791">
        <ele>112.5</ele>
        <time>2022-09-18T09:45:26Z</time>
      </trkpt>
      <trkpt lat="48.67937" lon="1.96799">
        <ele>112.3</ele>
        <time>2022-09-18T09:45:29Z</time>
      </trkpt>
      <trkpt lat="48.67945" lon="1.96806">
        <ele>111.9</ele>
        <time>2022-09-18T09:45:31Z</time>
      </trkpt>
      <trkpt lat="48.67952" lon="1.96816">
        <ele>112.5</ele>
        <time>2022-09-18T09:45:34Z</time>
      </trkpt>
      <trkpt lat="48.67958" lon="1.9683">
        <ele>113.2</ele>
        <time>2022-09-18T09:45:38Z</time>
      </trkpt>
      <trkpt lat="48.67964" lon="1.96845">
        <ele>113.6</ele>
        <time>2022-09-18T09:45:42Z</time>
      </trkpt>
      <trkpt lat="48.67969" lon="1.9686">
        <ele>114.3</ele>
        <time>2022-09-18T09:45:46Z</time>
      </trkpt>
      <trkpt lat="48.67971" lon="1.96875">
        <ele>115.1</ele>
        <time>2022-09-18T09:45:50Z</time>
      </trkpt>
      <trkpt lat="48.67972" lon="1.96892">
        <ele>116.1</ele>
        <time>2022-09-18T09:45:54Z</time>
      </trkpt>
      <trkpt lat="48.67974" lon="1.96907">
        <ele>116.4</ele>
        <time>2022-09-18T09:45:57Z</time>
      </trkpt>
      <trkpt lat="48.67976" lon="1.96922">
        <ele>116.8</ele>
        <time>2022-09-18T09:46:01Z</time>
      </trkpt>
      <trkpt lat="48.67977" lon="1.96938">
        <ele>117.2</ele>
        <time>2022-09-18T09:46:05Z</time>
      </trkpt>
      <trkpt lat="48.67974" lon="1.96955">
        <ele>118.2</ele>
        <time>2022-09-18T09:46:10Z</time>
      </trkpt>
      <trkpt lat="48.67978" lon="1.96971">
        <ele>118.5</ele>
        <time>2022-09-18T09:46:14Z</time>
      </trkpt>
      <trkpt lat="48.67983" lon="1.96983">
        <ele>119.2</ele>
        <time>2022-09-18T09:46:17Z</time>
      </trkpt>
      <trkpt lat="48.67988" lon="1.96996">
        <ele>120</ele>
        <time>2022-09-18T09:46:20Z</time>
      </trkpt>
      <trkpt lat="48.67994" lon="1.97008">
        <ele>120.8</ele>
        <time>2022-09-18T09:46:24Z</time>
      </trkpt>
      <trkpt lat="48.67999" lon="1.9702">
        <ele>121.5</ele>
        <time>2022-09-18T09:46:29Z</time>
      </trkpt>
      <trkpt lat="48.68005" lon="1.97033">
        <ele>122</ele>
        <time>2022-09-18T09:46:33Z</time>
      </trkpt>
      <trkpt lat="48.68011" lon="1.97044">
        <ele>122.4</ele>
        <time>2022-09-18T09:46:36Z</time>
      </trkpt>
      <trkpt lat="48.68017" lon="1.97057">
        <ele>122.9</ele>
        <time>2022-09-18T09:46:40Z</time>
      </trkpt>
      <trkpt lat="48.68022" lon="1.97069">
        <ele>123</ele>
        <time>2022-09-18T09:46:43Z</time>
      </trkpt>
      <trkpt lat="48.68027" lon="1.9708">
        <ele>122.9</ele>
        <time>2022-09-18T09:46:46Z</time>
      </trkpt>
      <trkpt lat="48.68032" lon="1.97096">
        <ele>123.4</ele>
        <time>2022-09-18T09:46:50Z</time>
      </trkpt>
      <trkpt lat="48.68039" lon="1.9711">
        <ele>123.4</ele>
        <time>2022-09-18T09:46:54Z</time>
      </trkpt>
      <trkpt lat="48.68042" lon="1.97124">
        <ele>123.2</ele>
        <time>2022-09-18T09:46:58Z</time>
      </trkpt>
      <trkpt lat="48.68039" lon="1.97141">
        <ele>123.9</ele>
        <time>2022-09-18T09:47:02Z</time>
      </trkpt>
      <trkpt lat="48.68034" lon="1.97157">
        <ele>124.9</ele>
        <time>2022-09-18T09:47:06Z</time>
      </trkpt>
      <trkpt lat="48.68029" lon="1.97173">
        <ele>125.5</ele>
        <time>2022-09-18T09:47:10Z</time>
      </trkpt>
      <trkpt lat="48.68026" lon="1.97186">
        <ele>125.5</ele>
        <time>2022-09-18T09:47:13Z</time>
      </trkpt>
      <trkpt lat="48.68023" lon="1.972">
        <ele>125.7</ele>
        <time>2022-09-18T09:47:16Z</time>
      </trkpt>
      <trkpt lat="48.68019" lon="1.97212">
        <ele>126.3</ele>
        <time>2022-09-18T09:47:19Z</time>
      </trkpt>
      <trkpt lat="48.68015" lon="1.97225">
        <ele>126.8</ele>
        <time>2022-09-18T09:47:22Z</time>
      </trkpt>
      <trkpt lat="48.68013" lon="1.97241">
        <ele>126.8</ele>
        <time>2022-09-18T09:47:25Z</time>
      </trkpt>
      <trkpt lat="48.68011" lon="1.97257">
        <ele>126.8</ele>
        <time>2022-09-18T09:47:28Z</time>
      </trkpt>
      <trkpt lat="48.68008" lon="1.97272">
        <ele>126.9</ele>
        <time>2022-09-18T09:47:32Z</time>
      </trkpt>
      <trkpt lat="48.68006" lon="1.97289">
        <ele>127.2</ele>
        <time>2022-09-18T09:47:37Z</time>
      </trkpt>
      <trkpt lat="48.68004" lon="1.97303">
        <ele>127.4</ele>
        <time>2022-09-18T09:47:40Z</time>
      </trkpt>
      <trkpt lat="48.68005" lon="1.97317">
        <ele>127.2</ele>
        <time>2022-09-18T09:47:43Z</time>
      </trkpt>
      <trkpt lat="48.68009" lon="1.97334">
        <ele>126.7</ele>
        <time>2022-09-18T09:47:47Z</time>
      </trkpt>
      <trkpt lat="48.68014" lon="1.97349">
        <ele>125.5</ele>
        <time>2022-09-18T09:47:50Z</time>
      </trkpt>
      <trkpt lat="48.68016" lon="1.97365">
        <ele>124.7</ele>
        <time>2022-09-18T09:47:53Z</time>
      </trkpt>
      <trkpt lat="48.68014" lon="1.97382">
        <ele>125</ele>
        <time>2022-09-18T09:47:56Z</time>
      </trkpt>
      <trkpt lat="48.68011" lon="1.97396">
        <ele>125.4</ele>
        <time>2022-09-18T09:47:59Z</time>
      </trkpt>
      <trkpt lat="48.68008" lon="1.97413">
        <ele>125.5</ele>
        <time>2022-09-18T09:48:02Z</time>
      </trkpt>
      <trkpt lat="48.68005" lon="1.9743">
        <ele>125.5</ele>
        <time>2022-09-18T09:48:05Z</time>
      </trkpt>
      <trkpt lat="48.68004" lon="1.97446">
        <ele>125.1</ele>
        <time>2022-09-18T09:48:08Z</time>
      </trkpt>
      <trkpt lat="48.68005" lon="1.97462">
        <ele>125.7</ele>
        <time>2022-09-18T09:48:11Z</time>
      </trkpt>
      <trkpt lat="48.68007" lon="1.97481">
        <ele>126.1</ele>
        <time>2022-09-18T09:48:14Z</time>
      </trkpt>
      <trkpt lat="48.68008" lon="1.97494">
        <ele>126.6</ele>
        <time>2022-09-18T09:48:16Z</time>
      </trkpt>
      <trkpt lat="48.68008" lon="1.97509">
        <ele>127.2</ele>
        <time>2022-09-18T09:48:18Z</time>
      </trkpt>
      <trkpt lat="48.68009" lon="1.97523">
        <ele>127.8</ele>
        <time>2022-09-18T09:48:20Z</time>
      </trkpt>
      <trkpt lat="48.68009" lon="1.97538">
        <ele>128.3</ele>
        <time>2022-09-18T09:48:22Z</time>
      </trkpt>
      <trkpt lat="48.68008" lon="1.97553">
        <ele>128.8</ele>
        <time>2022-09-18T09:48:24Z</time>
      </trkpt>
      <trkpt lat="48.68006" lon="1.9757">
        <ele>128.6</ele>
        <time>2022-09-18T09:48:26Z</time>
      </trkpt>
      <trkpt lat="48.68002" lon="1.97588">
        <ele>128.6</ele>
        <time>2022-09-18T09:48:28Z</time>
      </trkpt>
      <trkpt lat="48.67998" lon="1.97606">
        <ele>128.5</ele>
        <time>2022-09-18T09:48:30Z</time>
      </trkpt>
      <trkpt lat="48.68001" lon="1.9763">
        <ele>128.6</ele>
        <time>2022-09-18T09:48:32Z</time>
      </trkpt>
      <trkpt lat="48.6801" lon="1.97641">
        <ele>128.5</ele>
        <time>2022-09-18T09:48:34Z</time>
      </trkpt>
      <trkpt lat="48.68022" lon="1.97647">
        <ele>128.3</ele>
        <time>2022-09-18T09:48:37Z</time>
      </trkpt>
      <trkpt lat="48.68033" lon="1.97652">
        <ele>127.9</ele>
        <time>2022-09-18T09:48:40Z</time>
      </trkpt>
      <trkpt lat="48.6804" lon="1.97661">
        <ele>128.1</ele>
        <time>2022-09-18T09:48:43Z</time>
      </trkpt>
      <trkpt lat="48.68043" lon="1.97677">
        <ele>128.7</ele>
        <time>2022-09-18T09:48:46Z</time>
      </trkpt>
      <trkpt lat="48.68041" lon="1.97694">
        <ele>129.6</ele>
        <time>2022-09-18T09:48:49Z</time>
      </trkpt>
      <trkpt lat="48.68037" lon="1.97709">
        <ele>130</ele>
        <time>2022-09-18T09:48:51Z</time>
      </trkpt>
      <trkpt lat="48.68033" lon="1.97721">
        <ele>130.4</ele>
        <time>2022-09-18T09:48:53Z</time>
      </trkpt>
      <trkpt lat="48.68032" lon="1.97738">
        <ele>130.5</ele>
        <time>2022-09-18T09:48:56Z</time>
      </trkpt>
      <trkpt lat="48.6803" lon="1.97753">
        <ele>130.7</ele>
        <time>2022-09-18T09:48:59Z</time>
      </trkpt>
      <trkpt lat="48.68027" lon="1.97768">
        <ele>131.1</ele>
        <time>2022-09-18T09:49:02Z</time>
      </trkpt>
      <trkpt lat="48.68024" lon="1.97782">
        <ele>131.4</ele>
        <time>2022-09-18T09:49:05Z</time>
      </trkpt>
      <trkpt lat="48.6802" lon="1.97798">
        <ele>131.4</ele>
        <time>2022-09-18T09:49:08Z</time>
      </trkpt>
      <trkpt lat="48.68017" lon="1.97811">
        <ele>131.5</ele>
        <time>2022-09-18T09:49:10Z</time>
      </trkpt>
      <trkpt lat="48.68012" lon="1.97828">
        <ele>131.8</ele>
        <time>2022-09-18T09:49:13Z</time>
      </trkpt>
      <trkpt lat="48.68008" lon="1.97843">
        <ele>131.7</ele>
        <time>2022-09-18T09:49:16Z</time>
      </trkpt>
      <trkpt lat="48.68005" lon="1.97859">
        <ele>131.5</ele>
        <time>2022-09-18T09:49:19Z</time>
      </trkpt>
      <trkpt lat="48.68001" lon="1.97878">
        <ele>131.8</ele>
        <time>2022-09-18T09:49:22Z</time>
      </trkpt>
      <trkpt lat="48.67999" lon="1.97899">
        <ele>131.7</ele>
        <time>2022-09-18T09:49:25Z</time>
      </trkpt>
      <trkpt lat="48.67997" lon="1.97913">
        <ele>131.4</ele>
        <time>2022-09-18T09:49:28Z</time>
      </trkpt>
      <trkpt lat="48.67992" lon="1.97931">
        <ele>131.4</ele>
        <time>2022-09-18T09:49:31Z</time>
      </trkpt>
      <trkpt lat="48.67987" lon="1.97946">
        <ele>131.3</ele>
        <time>2022-09-18T09:49:34Z</time>
      </trkpt>
      <trkpt lat="48.67981" lon="1.97959">
        <ele>131.5</ele>
        <time>2022-09-18T09:49:36Z</time>
      </trkpt>
      <trkpt lat="48.67974" lon="1.97974">
        <ele>131.7</ele>
        <time>2022-09-18T09:49:39Z</time>
      </trkpt>
      <trkpt lat="48.67965" lon="1.97989">
        <ele>131.9</ele>
        <time>2022-09-18T09:49:42Z</time>
      </trkpt>
      <trkpt lat="48.67958" lon="1.97999">
        <ele>132</ele>
        <time>2022-09-18T09:49:44Z</time>
      </trkpt>
      <trkpt lat="48.67953" lon="1.98013">
        <ele>131.8</ele>
        <time>2022-09-18T09:49:46Z</time>
      </trkpt>
      <trkpt lat="48.67948" lon="1.98029">
        <ele>131.6</ele>
        <time>2022-09-18T09:49:48Z</time>
      </trkpt>
      <trkpt lat="48.67943" lon="1.98043">
        <ele>131.7</ele>
        <time>2022-09-18T09:49:50Z</time>
      </trkpt>
      <trkpt lat="48.67938" lon="1.98059">
        <ele>131.5</ele>
        <time>2022-09-18T09:49:52Z</time>
      </trkpt>
      <trkpt lat="48.67936" lon="1.98078">
        <ele>130.5</ele>
        <time>2022-09-18T09:49:54Z</time>
      </trkpt>
      <trkpt lat="48.67935" lon="1.98095">
        <ele>129.9</ele>
        <time>2022-09-18T09:49:56Z</time>
      </trkpt>
      <trkpt lat="48.67935" lon="1.98114">
        <ele>129.3</ele>
        <time>2022-09-18T09:49:58Z</time>
      </trkpt>
      <trkpt lat="48.67934" lon="1.98132">
        <ele>128.4</ele>
        <time>2022-09-18T09:50:00Z</time>
      </trkpt>
      <trkpt lat="48.67931" lon="1.98151">
        <ele>128</ele>
        <time>2022-09-18T09:50:02Z</time>
      </trkpt>
      <trkpt lat="48.67927" lon="1.98168">
        <ele>128</ele>
        <time>2022-09-18T09:50:04Z</time>
      </trkpt>
      <trkpt lat="48.67922" lon="1.98186">
        <ele>127.7</ele>
        <time>2022-09-18T09:50:06Z</time>
      </trkpt>
      <trkpt lat="48.67921" lon="1.98204">
        <ele>127.1</ele>
        <time>2022-09-18T09:50:08Z</time>
      </trkpt>
      <trkpt lat="48.67925" lon="1.98218">
        <ele>126</ele>
        <time>2022-09-18T09:50:10Z</time>
      </trkpt>
      <trkpt lat="48.67935" lon="1.98232">
        <ele>124.9</ele>
        <time>2022-09-18T09:50:12Z</time>
      </trkpt>
      <trkpt lat="48.67942" lon="1.98244">
        <ele>124.8</ele>
        <time>2022-09-18T09:50:14Z</time>
      </trkpt>
      <trkpt lat="48.67953" lon="1.98255">
        <ele>125.7</ele>
        <time>2022-09-18T09:50:16Z</time>
      </trkpt>
      <trkpt lat="48.67965" lon="1.98254">
        <ele>125.6</ele>
        <time>2022-09-18T09:50:18Z</time>
      </trkpt>
      <trkpt lat="48.67974" lon="1.98247">
        <ele>124.9</ele>
        <time>2022-09-18T09:50:20Z</time>
      </trkpt>
      <trkpt lat="48.67985" lon="1.98239">
        <ele>125.7</ele>
        <time>2022-09-18T09:50:22Z</time>
      </trkpt>
      <trkpt lat="48.6799" lon="1.98223">
        <ele>124</ele>
        <time>2022-09-18T09:50:24Z</time>
      </trkpt>
      <trkpt lat="48.68002" lon="1.98212">
        <ele>123.4</ele>
        <time>2022-09-18T09:50:26Z</time>
      </trkpt>
      <trkpt lat="48.68018" lon="1.98203">
        <ele>123.6</ele>
        <time>2022-09-18T09:50:28Z</time>
      </trkpt>
      <trkpt lat="48.68031" lon="1.9819">
        <ele>122.7</ele>
        <time>2022-09-18T09:50:30Z</time>
      </trkpt>
      <trkpt lat="48.68043" lon="1.98179">
        <ele>122.1</ele>
        <time>2022-09-18T09:50:32Z</time>
      </trkpt>
      <trkpt lat="48.68053" lon="1.9817">
        <ele>121.4</ele>
        <time>2022-09-18T09:50:34Z</time>
      </trkpt>
      <trkpt lat="48.6807" lon="1.98161">
        <ele>121.3</ele>
        <time>2022-09-18T09:50:36Z</time>
      </trkpt>
      <trkpt lat="48.68084" lon="1.98152">
        <ele>120.4</ele>
        <time>2022-09-18T09:50:38Z</time>
      </trkpt>
      <trkpt lat="48.68095" lon="1.98148">
        <ele>119.4</ele>
        <time>2022-09-18T09:50:39Z</time>
      </trkpt>
      <trkpt lat="48.68105" lon="1.9815">
        <ele>119.8</ele>
        <time>2022-09-18T09:50:40Z</time>
      </trkpt>
      <trkpt lat="48.68115" lon="1.98152">
        <ele>119.9</ele>
        <time>2022-09-18T09:50:41Z</time>
      </trkpt>
      <trkpt lat="48.68125" lon="1.98153">
        <ele>119.1</ele>
        <time>2022-09-18T09:50:43Z</time>
      </trkpt>
      <trkpt lat="48.68136" lon="1.98158">
        <ele>118.8</ele>
        <time>2022-09-18T09:50:45Z</time>
      </trkpt>
      <trkpt lat="48.68147" lon="1.98166">
        <ele>118.4</ele>
        <time>2022-09-18T09:50:48Z</time>
      </trkpt>
      <trkpt lat="48.68154" lon="1.98177">
        <ele>119.1</ele>
        <time>2022-09-18T09:50:51Z</time>
      </trkpt>
      <trkpt lat="48.68161" lon="1.98188">
        <ele>119.3</ele>
        <time>2022-09-18T09:50:53Z</time>
      </trkpt>
      <trkpt lat="48.68171" lon="1.98199">
        <ele>119.6</ele>
        <time>2022-09-18T09:50:56Z</time>
      </trkpt>
      <trkpt lat="48.68181" lon="1.98207">
        <ele>120.5</ele>
        <time>2022-09-18T09:50:59Z</time>
      </trkpt>
      <trkpt lat="48.68193" lon="1.98214">
        <ele>120.6</ele>
        <time>2022-09-18T09:51:02Z</time>
      </trkpt>
      <trkpt lat="48.68206" lon="1.98213">
        <ele>122</ele>
        <time>2022-09-18T09:51:06Z</time>
      </trkpt>
      <trkpt lat="48.68215" lon="1.98208">
        <ele>122.4</ele>
        <time>2022-09-18T09:51:09Z</time>
      </trkpt>
      <trkpt lat="48.68225" lon="1.98201">
        <ele>122.4</ele>
        <time>2022-09-18T09:51:12Z</time>
      </trkpt>
      <trkpt lat="48.68233" lon="1.9819">
        <ele>121.4</ele>
        <time>2022-09-18T09:51:15Z</time>
      </trkpt>
      <trkpt lat="48.68242" lon="1.98182">
        <ele>120.9</ele>
        <time>2022-09-18T09:51:20Z</time>
      </trkpt>
      <trkpt lat="48.68253" lon="1.98181">
        <ele>121.6</ele>
        <time>2022-09-18T09:51:23Z</time>
      </trkpt>
      <trkpt lat="48.68264" lon="1.98182">
        <ele>122</ele>
        <time>2022-09-18T09:51:26Z</time>
      </trkpt>
      <trkpt lat="48.68273" lon="1.98185">
        <ele>122.6</ele>
        <time>2022-09-18T09:51:30Z</time>
      </trkpt>
      <trkpt lat="48.68282" lon="1.98193">
        <ele>123.4</ele>
        <time>2022-09-18T09:51:34Z</time>
      </trkpt>
      <trkpt lat="48.68291" lon="1.98203">
        <ele>124.1</ele>
        <time>2022-09-18T09:51:39Z</time>
      </trkpt>
      <trkpt lat="48.683" lon="1.98211">
        <ele>124.3</ele>
        <time>2022-09-18T09:51:50Z</time>
      </trkpt>
      <trkpt lat="48.68308" lon="1.98218">
        <ele>124.4</ele>
        <time>2022-09-18T09:51:56Z</time>
      </trkpt>
      <trkpt lat="48.68309" lon="1.98234">
        <ele>126</ele>
        <time>2022-09-18T09:52:01Z</time>
      </trkpt>
      <trkpt lat="48.68313" lon="1.9825">
        <ele>126.9</ele>
        <time>2022-09-18T09:52:06Z</time>
      </trkpt>
      <trkpt lat="48.68311" lon="1.98266">
        <ele>127.8</ele>
        <time>2022-09-18T09:52:10Z</time>
      </trkpt>
      <trkpt lat="48.68307" lon="1.98282">
        <ele>128.7</ele>
        <time>2022-09-18T09:52:15Z</time>
      </trkpt>
      <trkpt lat="48.68307" lon="1.98299">
        <ele>128.8</ele>
        <time>2022-09-18T09:52:19Z</time>
      </trkpt>
      <trkpt lat="48.68311" lon="1.98313">
        <ele>129.1</ele>
        <time>2022-09-18T09:52:23Z</time>
      </trkpt>
      <trkpt lat="48.68314" lon="1.98327">
        <ele>130.1</ele>
        <time>2022-09-18T09:52:27Z</time>
      </trkpt>
      <trkpt lat="48.6832" lon="1.98337">
        <ele>131.8</ele>
        <time>2022-09-18T09:52:31Z</time>
      </trkpt>
      <trkpt lat="48.68331" lon="1.98342">
        <ele>133.9</ele>
        <time>2022-09-18T09:52:37Z</time>
      </trkpt>
      <trkpt lat="48.68341" lon="1.98338">
        <ele>134.8</ele>
        <time>2022-09-18T09:52:44Z</time>
      </trkpt>
      <trkpt lat="48.6835" lon="1.98332">
        <ele>135.4</ele>
        <time>2022-09-18T09:52:51Z</time>
      </trkpt>
      <trkpt lat="48.6836" lon="1.98327">
        <ele>136.5</ele>
        <time>2022-09-18T09:52:57Z</time>
      </trkpt>
      <trkpt lat="48.68369" lon="1.98322">
        <ele>137.3</ele>
        <time>2022-09-18T09:53:03Z</time>
      </trkpt>
      <trkpt lat="48.68375" lon="1.98312">
        <ele>136.5</ele>
        <time>2022-09-18T09:53:08Z</time>
      </trkpt>
      <trkpt lat="48.68383" lon="1.98304">
        <ele>136.6</ele>
        <time>2022-09-18T09:53:14Z</time>
      </trkpt>
      <trkpt lat="48.68391" lon="1.98298">
        <ele>137.1</ele>
        <time>2022-09-18T09:53:19Z</time>
      </trkpt>
      <trkpt lat="48.68401" lon="1.98294">
        <ele>137.1</ele>
        <time>2022-09-18T09:53:25Z</time>
      </trkpt>
      <trkpt lat="48.6841" lon="1.98288">
        <ele>137.1</ele>
        <time>2022-09-18T09:53:32Z</time>
      </trkpt>
      <trkpt lat="48.68422" lon="1.9829">
        <ele>137.5</ele>
        <time>2022-09-18T09:53:36Z</time>
      </trkpt>
      <trkpt lat="48.68431" lon="1.98294">
        <ele>137.8</ele>
        <time>2022-09-18T09:53:39Z</time>
      </trkpt>
      <trkpt lat="48.68443" lon="1.98301">
        <ele>138.4</ele>
        <time>2022-09-18T09:53:42Z</time>
      </trkpt>
      <trkpt lat="48.68453" lon="1.9831">
        <ele>139</ele>
        <time>2022-09-18T09:53:45Z</time>
      </trkpt>
      <trkpt lat="48.68462" lon="1.98319">
        <ele>139.4</ele>
        <time>2022-09-18T09:53:48Z</time>
      </trkpt>
      <trkpt lat="48.68468" lon="1.9833">
        <ele>140.1</ele>
        <time>2022-09-18T09:53:51Z</time>
      </trkpt>
      <trkpt lat="48.6847" lon="1.98344">
        <ele>141</ele>
        <time>2022-09-18T09:53:55Z</time>
      </trkpt>
      <trkpt lat="48.68469" lon="1.98361">
        <ele>142.5</ele>
        <time>2022-09-18T09:54:00Z</time>
      </trkpt>
      <trkpt lat="48.68471" lon="1.98379">
        <ele>143.5</ele>
        <time>2022-09-18T09:54:04Z</time>
      </trkpt>
      <trkpt lat="48.68478" lon="1.98391">
        <ele>143.5</ele>
        <time>2022-09-18T09:54:07Z</time>
      </trkpt>
      <trkpt lat="48.68487" lon="1.984">
        <ele>143.7</ele>
        <time>2022-09-18T09:54:10Z</time>
      </trkpt>
      <trkpt lat="48.68497" lon="1.98408">
        <ele>143.8</ele>
        <time>2022-09-18T09:54:13Z</time>
      </trkpt>
      <trkpt lat="48.68507" lon="1.98417">
        <ele>143.9</ele>
        <time>2022-09-18T09:54:17Z</time>
      </trkpt>
      <trkpt lat="48.68515" lon="1.98423">
        <ele>144.3</ele>
        <time>2022-09-18T09:54:20Z</time>
      </trkpt>
      <trkpt lat="48.68525" lon="1.98431">
        <ele>144.6</ele>
        <time>2022-09-18T09:54:24Z</time>
      </trkpt>
      <trkpt lat="48.68536" lon="1.9844">
        <ele>145.2</ele>
        <time>2022-09-18T09:54:28Z</time>
      </trkpt>
      <trkpt lat="48.68544" lon="1.98447">
        <ele>145.7</ele>
        <time>2022-09-18T09:54:31Z</time>
      </trkpt>
      <trkpt lat="48.68554" lon="1.98454">
        <ele>145.9</ele>
        <time>2022-09-18T09:54:35Z</time>
      </trkpt>
      <trkpt lat="48.68564" lon="1.98462">
        <ele>146</ele>
        <time>2022-09-18T09:54:39Z</time>
      </trkpt>
      <trkpt lat="48.68574" lon="1.98471">
        <ele>146.1</ele>
        <time>2022-09-18T09:54:42Z</time>
      </trkpt>
      <trkpt lat="48.68583" lon="1.98479">
        <ele>146.3</ele>
        <time>2022-09-18T09:54:45Z</time>
      </trkpt>
      <trkpt lat="48.6859" lon="1.98488">
        <ele>146.8</ele>
        <time>2022-09-18T09:54:48Z</time>
      </trkpt>
      <trkpt lat="48.68596" lon="1.985">
        <ele>147.8</ele>
        <time>2022-09-18T09:54:52Z</time>
      </trkpt>
      <trkpt lat="48.68603" lon="1.98509">
        <ele>147.6</ele>
        <time>2022-09-18T09:54:55Z</time>
      </trkpt>
      <trkpt lat="48.68611" lon="1.9852">
        <ele>147.2</ele>
        <time>2022-09-18T09:54:58Z</time>
      </trkpt>
      <trkpt lat="48.68618" lon="1.98534">
        <ele>147.5</ele>
        <time>2022-09-18T09:55:01Z</time>
      </trkpt>
      <trkpt lat="48.68625" lon="1.98548">
        <ele>147.4</ele>
        <time>2022-09-18T09:55:04Z</time>
      </trkpt>
      <trkpt lat="48.68631" lon="1.98559">
        <ele>146.9</ele>
        <time>2022-09-18T09:55:06Z</time>
      </trkpt>
      <trkpt lat="48.68638" lon="1.98575">
        <ele>145.2</ele>
        <time>2022-09-18T09:55:09Z</time>
      </trkpt>
      <trkpt lat="48.68645" lon="1.9859">
        <ele>143.4</ele>
        <time>2022-09-18T09:55:11Z</time>
      </trkpt>
      <trkpt lat="48.68644" lon="1.98609">
        <ele>142.9</ele>
        <time>2022-09-18T09:55:14Z</time>
      </trkpt>
      <trkpt lat="48.68642" lon="1.98628">
        <ele>142.8</ele>
        <time>2022-09-18T09:55:16Z</time>
      </trkpt>
      <trkpt lat="48.6864" lon="1.98648">
        <ele>142.9</ele>
        <time>2022-09-18T09:55:18Z</time>
      </trkpt>
      <trkpt lat="48.6864" lon="1.98667">
        <ele>142.9</ele>
        <time>2022-09-18T09:55:20Z</time>
      </trkpt>
      <trkpt lat="48.68643" lon="1.98685">
        <ele>142.6</ele>
        <time>2022-09-18T09:55:22Z</time>
      </trkpt>
      <trkpt lat="48.6865" lon="1.987">
        <ele>142.9</ele>
        <time>2022-09-18T09:55:25Z</time>
      </trkpt>
      <trkpt lat="48.68657" lon="1.98711">
        <ele>143.8</ele>
        <time>2022-09-18T09:55:27Z</time>
      </trkpt>
      <trkpt lat="48.68669" lon="1.98719">
        <ele>144.8</ele>
        <time>2022-09-18T09:55:30Z</time>
      </trkpt>
      <trkpt lat="48.68681" lon="1.98719">
        <ele>146.5</ele>
        <time>2022-09-18T09:55:33Z</time>
      </trkpt>
      <trkpt lat="48.6869" lon="1.98714">
        <ele>146.4</ele>
        <time>2022-09-18T09:55:37Z</time>
      </trkpt>
      <trkpt lat="48.687" lon="1.98705">
        <ele>145.8</ele>
        <time>2022-09-18T09:55:42Z</time>
      </trkpt>
      <trkpt lat="48.68707" lon="1.98697">
        <ele>145.4</ele>
        <time>2022-09-18T09:55:45Z</time>
      </trkpt>
      <trkpt lat="48.68716" lon="1.98689">
        <ele>145.6</ele>
        <time>2022-09-18T09:55:48Z</time>
      </trkpt>
      <trkpt lat="48.68726" lon="1.98683">
        <ele>146.9</ele>
        <time>2022-09-18T09:55:51Z</time>
      </trkpt>
      <trkpt lat="48.68737" lon="1.98677">
        <ele>149.3</ele>
        <time>2022-09-18T09:55:54Z</time>
      </trkpt>
      <trkpt lat="48.68745" lon="1.9867">
        <ele>150.3</ele>
        <time>2022-09-18T09:55:57Z</time>
      </trkpt>
      <trkpt lat="48.68754" lon="1.98659">
        <ele>150.5</ele>
        <time>2022-09-18T09:56:01Z</time>
      </trkpt>
      <trkpt lat="48.6876" lon="1.98648">
        <ele>150.1</ele>
        <time>2022-09-18T09:56:05Z</time>
      </trkpt>
      <trkpt lat="48.68768" lon="1.98641">
        <ele>151.2</ele>
        <time>2022-09-18T09:56:09Z</time>
      </trkpt>
      <trkpt lat="48.68776" lon="1.98631">
        <ele>151.4</ele>
        <time>2022-09-18T09:56:14Z</time>
      </trkpt>
      <trkpt lat="48.68785" lon="1.9862">
        <ele>151.3</ele>
        <time>2022-09-18T09:56:19Z</time>
      </trkpt>
      <trkpt lat="48.68793" lon="1.9861">
        <ele>151.1</ele>
        <time>2022-09-18T09:56:24Z</time>
      </trkpt>
      <trkpt lat="48.68801" lon="1.98602">
        <ele>151.3</ele>
        <time>2022-09-18T09:56:29Z</time>
      </trkpt>
      <trkpt lat="48.68809" lon="1.98593">
        <ele>150.7</ele>
        <time>2022-09-18T09:56:34Z</time>
      </trkpt>
      <trkpt lat="48.68818" lon="1.98589">
        <ele>150.5</ele>
        <time>2022-09-18T09:56:39Z</time>
      </trkpt>
      <trkpt lat="48.68827" lon="1.98591">
        <ele>151.6</ele>
        <time>2022-09-18T09:56:44Z</time>
      </trkpt>
      <trkpt lat="48.68838" lon="1.98594">
        <ele>152.9</ele>
        <time>2022-09-18T09:56:50Z</time>
      </trkpt>
      <trkpt lat="48.68847" lon="1.98597">
        <ele>153.3</ele>
        <time>2022-09-18T09:56:55Z</time>
      </trkpt>
      <trkpt lat="48.68857" lon="1.98602">
        <ele>154.4</ele>
        <time>2022-09-18T09:57:01Z</time>
      </trkpt>
      <trkpt lat="48.68865" lon="1.9861">
        <ele>156.1</ele>
        <time>2022-09-18T09:57:07Z</time>
      </trkpt>
      <trkpt lat="48.68872" lon="1.98618">
        <ele>156.9</ele>
        <time>2022-09-18T09:57:12Z</time>
      </trkpt>
      <trkpt lat="48.68879" lon="1.98627">
        <ele>157.8</ele>
        <time>2022-09-18T09:57:18Z</time>
      </trkpt>
      <trkpt lat="48.68887" lon="1.98635">
        <ele>158.4</ele>
        <time>2022-09-18T09:57:23Z</time>
      </trkpt>
      <trkpt lat="48.68896" lon="1.98645">
        <ele>158.4</ele>
        <time>2022-09-18T09:57:28Z</time>
      </trkpt>
      <trkpt lat="48.68903" lon="1.98658">
        <ele>159.2</ele>
        <time>2022-09-18T09:57:34Z</time>
      </trkpt>
      <trkpt lat="48.68909" lon="1.98668">
        <ele>159.7</ele>
        <time>2022-09-18T09:57:39Z</time>
      </trkpt>
      <trkpt lat="48.68914" lon="1.9868">
        <ele>160.8</ele>
        <time>2022-09-18T09:57:45Z</time>
      </trkpt>
      <trkpt lat="48.6892" lon="1.98692">
        <ele>161.6</ele>
        <time>2022-09-18T09:57:50Z</time>
      </trkpt>
      <trkpt lat="48.68924" lon="1.98705">
        <ele>162.1</ele>
        <time>2022-09-18T09:57:58Z</time>
      </trkpt>
      <trkpt lat="48.68927" lon="1.98718">
        <ele>162.9</ele>
        <time>2022-09-18T09:58:04Z</time>
      </trkpt>
      <trkpt lat="48.6893" lon="1.98731">
        <ele>163.3</ele>
        <time>2022-09-18T09:58:09Z</time>
      </trkpt>
      <trkpt lat="48.68933" lon="1.98745">
        <ele>163.5</ele>
        <time>2022-09-18T09:58:15Z</time>
      </trkpt>
      <trkpt lat="48.68934" lon="1.98759">
        <ele>164.3</ele>
        <time>2022-09-18T09:58:21Z</time>
      </trkpt>
      <trkpt lat="48.68934" lon="1.98775">
        <ele>165.1</ele>
        <time>2022-09-18T09:58:27Z</time>
      </trkpt>
      <trkpt lat="48.68935" lon="1.9879">
        <ele>165.8</ele>
        <time>2022-09-18T09:58:33Z</time>
      </trkpt>
      <trkpt lat="48.6894" lon="1.98806">
        <ele>165.7</ele>
        <time>2022-09-18T09:58:38Z</time>
      </trkpt>
      <trkpt lat="48.68949" lon="1.98817">
        <ele>165.9</ele>
        <time>2022-09-18T09:58:42Z</time>
      </trkpt>
      <trkpt lat="48.68958" lon="1.98823">
        <ele>166.1</ele>
        <time>2022-09-18T09:58:46Z</time>
      </trkpt>
      <trkpt lat="48.68967" lon="1.98829">
        <ele>166.4</ele>
        <time>2022-09-18T09:58:49Z</time>
      </trkpt>
      <trkpt lat="48.68977" lon="1.98835">
        <ele>166.6</ele>
        <time>2022-09-18T09:58:53Z</time>
      </trkpt>
      <trkpt lat="48.68987" lon="1.98843">
        <ele>166.6</ele>
        <time>2022-09-18T09:58:56Z</time>
      </trkpt>
      <trkpt lat="48.68995" lon="1.98849">
        <ele>166.6</ele>
        <time>2022-09-18T09:58:58Z</time>
      </trkpt>
      <trkpt lat="48.69004" lon="1.98854">
        <ele>166.8</ele>
        <time>2022-09-18T09:59:00Z</time>
      </trkpt>
      <trkpt lat="48.69013" lon="1.98858">
        <ele>166.6</ele>
        <time>2022-09-18T09:59:02Z</time>
      </trkpt>
      <trkpt lat="48.69023" lon="1.98854">
        <ele>165.3</ele>
        <time>2022-09-18T09:59:04Z</time>
      </trkpt>
      <trkpt lat="48.69036" lon="1.98855">
        <ele>165.5</ele>
        <time>2022-09-18T09:59:07Z</time>
      </trkpt>
      <trkpt lat="48.6904" lon="1.98868">
        <ele>167.1</ele>
        <time>2022-09-18T09:59:11Z</time>
      </trkpt>
      <trkpt lat="48.69039" lon="1.98883">
        <ele>168.5</ele>
        <time>2022-09-18T09:59:17Z</time>
      </trkpt>
      <trkpt lat="48.69042" lon="1.98898">
        <ele>169.3</ele>
        <time>2022-09-18T09:59:23Z</time>
      </trkpt>
      <trkpt lat="48.69043" lon="1.98913">
        <ele>169.9</ele>
        <time>2022-09-18T09:59:28Z</time>
      </trkpt>
      <trkpt lat="48.69039" lon="1.98927">
        <ele>170.2</ele>
        <time>2022-09-18T09:59:32Z</time>
      </trkpt>
      <trkpt lat="48.69038" lon="1.98942">
        <ele>170.6</ele>
        <time>2022-09-18T09:59:36Z</time>
      </trkpt>
      <trkpt lat="48.69035" lon="1.98957">
        <ele>170.7</ele>
        <time>2022-09-18T09:59:40Z</time>
      </trkpt>
      <trkpt lat="48.69031" lon="1.98973">
        <ele>170.9</ele>
        <time>2022-09-18T09:59:44Z</time>
      </trkpt>
      <trkpt lat="48.6903" lon="1.98986">
        <ele>170.9</ele>
        <time>2022-09-18T09:59:47Z</time>
      </trkpt>
      <trkpt lat="48.69027" lon="1.99002">
        <ele>170.9</ele>
        <time>2022-09-18T09:59:51Z</time>
      </trkpt>
      <trkpt lat="48.69025" lon="1.99019">
        <ele>170.5</ele>
        <time>2022-09-18T09:59:55Z</time>
      </trkpt>
      <trkpt lat="48.69022" lon="1.99033">
        <ele>170.4</ele>
        <time>2022-09-18T09:59:59Z</time>
      </trkpt>
      <trkpt lat="48.69019" lon="1.99047">
        <ele>170.4</ele>
        <time>2022-09-18T10:00:03Z</time>
      </trkpt>
      <trkpt lat="48.69021" lon="1.99062">
        <ele>170.2</ele>
        <time>2022-09-18T10:00:07Z</time>
      </trkpt>
      <trkpt lat="48.69015" lon="1.99074">
        <ele>170.4</ele>
        <time>2022-09-18T10:00:12Z</time>
      </trkpt>
      <trkpt lat="48.69007" lon="1.99082">
        <ele>170.7</ele>
        <time>2022-09-18T10:00:16Z</time>
      </trkpt>
      <trkpt lat="48.69001" lon="1.99096">
        <ele>171</ele>
        <time>2022-09-18T10:00:19Z</time>
      </trkpt>
      <trkpt lat="48.68995" lon="1.9911">
        <ele>171.2</ele>
        <time>2022-09-18T10:00:22Z</time>
      </trkpt>
      <trkpt lat="48.68988" lon="1.99121">
        <ele>171.4</ele>
        <time>2022-09-18T10:00:25Z</time>
      </trkpt>
      <trkpt lat="48.6898" lon="1.99131">
        <ele>171.7</ele>
        <time>2022-09-18T10:00:29Z</time>
      </trkpt>
      <trkpt lat="48.68973" lon="1.9914">
        <ele>172</ele>
        <time>2022-09-18T10:00:32Z</time>
      </trkpt>
      <trkpt lat="48.68966" lon="1.99152">
        <ele>172.2</ele>
        <time>2022-09-18T10:00:35Z</time>
      </trkpt>
      <trkpt lat="48.68958" lon="1.99163">
        <ele>172.5</ele>
        <time>2022-09-18T10:00:38Z</time>
      </trkpt>
      <trkpt lat="48.68952" lon="1.99174">
        <ele>172.5</ele>
        <time>2022-09-18T10:00:41Z</time>
      </trkpt>
      <trkpt lat="48.68943" lon="1.99186">
        <ele>172.3</ele>
        <time>2022-09-18T10:00:44Z</time>
      </trkpt>
      <trkpt lat="48.68938" lon="1.99198">
        <ele>172.2</ele>
        <time>2022-09-18T10:00:47Z</time>
      </trkpt>
      <trkpt lat="48.68932" lon="1.99211">
        <ele>172.5</ele>
        <time>2022-09-18T10:00:50Z</time>
      </trkpt>
      <trkpt lat="48.68922" lon="1.9923">
        <ele>172.6</ele>
        <time>2022-09-18T10:00:53Z</time>
      </trkpt>
      <trkpt lat="48.68917" lon="1.99241">
        <ele>172.3</ele>
        <time>2022-09-18T10:00:55Z</time>
      </trkpt>
      <trkpt lat="48.6891" lon="1.99257">
        <ele>172.2</ele>
        <time>2022-09-18T10:00:58Z</time>
      </trkpt>
      <trkpt lat="48.68906" lon="1.9927">
        <ele>172.4</ele>
        <time>2022-09-18T10:01:00Z</time>
      </trkpt>
      <trkpt lat="48.689" lon="1.99288">
        <ele>172.6</ele>
        <time>2022-09-18T10:01:03Z</time>
      </trkpt>
      <trkpt lat="48.68894" lon="1.99303">
        <ele>172.8</ele>
        <time>2022-09-18T10:01:06Z</time>
      </trkpt>
      <trkpt lat="48.6889" lon="1.99318">
        <ele>172.9</ele>
        <time>2022-09-18T10:01:09Z</time>
      </trkpt>
      <trkpt lat="48.68888" lon="1.99334">
        <ele>173</ele>
        <time>2022-09-18T10:01:12Z</time>
      </trkpt>
      <trkpt lat="48.68885" lon="1.99351">
        <ele>173.1</ele>
        <time>2022-09-18T10:01:15Z</time>
      </trkpt>
      <trkpt lat="48.68882" lon="1.99368">
        <ele>173.2</ele>
        <time>2022-09-18T10:01:18Z</time>
      </trkpt>
      <trkpt lat="48.68878" lon="1.99383">
        <ele>173.4</ele>
        <time>2022-09-18T10:01:21Z</time>
      </trkpt>
      <trkpt lat="48.68875" lon="1.994">
        <ele>173.5</ele>
        <time>2022-09-18T10:01:24Z</time>
      </trkpt>
      <trkpt lat="48.68872" lon="1.99418">
        <ele>173.6</ele>
        <time>2022-09-18T10:01:27Z</time>
      </trkpt>
      <trkpt lat="48.68869" lon="1.99437">
        <ele>173.7</ele>
        <time>2022-09-18T10:01:30Z</time>
      </trkpt>
      <trkpt lat="48.68866" lon="1.99457">
        <ele>173.8</ele>
        <time>2022-09-18T10:01:33Z</time>
      </trkpt>
      <trkpt lat="48.68862" lon="1.99476">
        <ele>174</ele>
        <time>2022-09-18T10:01:36Z</time>
      </trkpt>
      <trkpt lat="48.68859" lon="1.99494">
        <ele>174</ele>
        <time>2022-09-18T10:01:39Z</time>
      </trkpt>
      <trkpt lat="48.68856" lon="1.99513">
        <ele>174</ele>
        <time>2022-09-18T10:01:42Z</time>
      </trkpt>
      <trkpt lat="48.68854" lon="1.99526">
        <ele>174</ele>
        <time>2022-09-18T10:01:44Z</time>
      </trkpt>
      <trkpt lat="48.68852" lon="1.9954">
        <ele>174</ele>
        <time>2022-09-18T10:01:46Z</time>
      </trkpt>
      <trkpt lat="48.68848" lon="1.9956">
        <ele>174.1</ele>
        <time>2022-09-18T10:01:49Z</time>
      </trkpt>
      <trkpt lat="48.68846" lon="1.99573">
        <ele>174.3</ele>
        <time>2022-09-18T10:01:51Z</time>
      </trkpt>
      <trkpt lat="48.68844" lon="1.99593">
        <ele>174.6</ele>
        <time>2022-09-18T10:01:54Z</time>
      </trkpt>
      <trkpt lat="48.68842" lon="1.99612">
        <ele>174.7</ele>
        <time>2022-09-18T10:01:57Z</time>
      </trkpt>
      <trkpt lat="48.68839" lon="1.99631">
        <ele>174.8</ele>
        <time>2022-09-18T10:02:00Z</time>
      </trkpt>
      <trkpt lat="48.68837" lon="1.9965">
        <ele>174.5</ele>
        <time>2022-09-18T10:02:03Z</time>
      </trkpt>
      <trkpt lat="48.68836" lon="1.99665">
        <ele>174</ele>
        <time>2022-09-18T10:02:05Z</time>
      </trkpt>
      <trkpt lat="48.68835" lon="1.9968">
        <ele>173.9</ele>
        <time>2022-09-18T10:02:07Z</time>
      </trkpt>
      <trkpt lat="48.68833" lon="1.99695">
        <ele>174</ele>
        <time>2022-09-18T10:02:09Z</time>
      </trkpt>
      <trkpt lat="48.68832" lon="1.99709">
        <ele>174.1</ele>
        <time>2022-09-18T10:02:11Z</time>
      </trkpt>
      <trkpt lat="48.6883" lon="1.99723">
        <ele>174.1</ele>
        <time>2022-09-18T10:02:13Z</time>
      </trkpt>
      <trkpt lat="48.68828" lon="1.99737">
        <ele>174.1</ele>
        <time>2022-09-18T10:02:15Z</time>
      </trkpt>
      <trkpt lat="48.68827" lon="1.99751">
        <ele>174</ele>
        <time>2022-09-18T10:02:17Z</time>
      </trkpt>
      <trkpt lat="48.68826" lon="1.99771">
        <ele>174</ele>
        <time>2022-09-18T10:02:20Z</time>
      </trkpt>
      <trkpt lat="48.68825" lon="1.99784">
        <ele>173.8</ele>
        <time>2022-09-18T10:02:22Z</time>
      </trkpt>
      <trkpt lat="48.68824" lon="1.998">
        <ele>173.5</ele>
        <time>2022-09-18T10:02:24Z</time>
      </trkpt>
      <trkpt lat="48.68824" lon="1.99817">
        <ele>173.4</ele>
        <time>2022-09-18T10:02:26Z</time>
      </trkpt>
      <trkpt lat="48.68824" lon="1.99832">
        <ele>173.3</ele>
        <time>2022-09-18T10:02:28Z</time>
      </trkpt>
      <trkpt lat="48.68824" lon="1.99847">
        <ele>173.2</ele>
        <time>2022-09-18T10:02:30Z</time>
      </trkpt>
      <trkpt lat="48.68824" lon="1.99861">
        <ele>173</ele>
        <time>2022-09-18T10:02:32Z</time>
      </trkpt>
      <trkpt lat="48.68824" lon="1.99881">
        <ele>173</ele>
        <time>2022-09-18T10:02:35Z</time>
      </trkpt>
      <trkpt lat="48.68824" lon="1.99896">
        <ele>172.8</ele>
        <time>2022-09-18T10:02:37Z</time>
      </trkpt>
      <trkpt lat="48.68824" lon="1.99913">
        <ele>172.4</ele>
        <time>2022-09-18T10:02:39Z</time>
      </trkpt>
      <trkpt lat="48.68824" lon="1.99927">
        <ele>172.2</ele>
        <time>2022-09-18T10:02:41Z</time>
      </trkpt>
      <trkpt lat="48.68824" lon="1.99943">
        <ele>172</ele>
        <time>2022-09-18T10:02:43Z</time>
      </trkpt>
      <trkpt lat="48.68823" lon="1.99959">
        <ele>172</ele>
        <time>2022-09-18T10:02:45Z</time>
      </trkpt>
      <trkpt lat="48.68824" lon="1.99974">
        <ele>171.9</ele>
        <time>2022-09-18T10:02:47Z</time>
      </trkpt>
      <trkpt lat="48.68825" lon="1.99989">
        <ele>171.4</ele>
        <time>2022-09-18T10:02:49Z</time>
      </trkpt>
      <trkpt lat="48.68828" lon="2.00005">
        <ele>171</ele>
        <time>2022-09-18T10:02:51Z</time>
      </trkpt>
      <trkpt lat="48.68829" lon="2.00023">
        <ele>171</ele>
        <time>2022-09-18T10:02:53Z</time>
      </trkpt>
      <trkpt lat="48.68829" lon="2.0004">
        <ele>171</ele>
        <time>2022-09-18T10:02:55Z</time>
      </trkpt>
      <trkpt lat="48.6883" lon="2.00055">
        <ele>171</ele>
        <time>2022-09-18T10:02:57Z</time>
      </trkpt>
      <trkpt lat="48.68832" lon="2.00072">
        <ele>170.4</ele>
        <time>2022-09-18T10:02:59Z</time>
      </trkpt>
      <trkpt lat="48.68833" lon="2.0009">
        <ele>169.8</ele>
        <time>2022-09-18T10:03:01Z</time>
      </trkpt>
      <trkpt lat="48.68833" lon="2.00107">
        <ele>169.1</ele>
        <time>2022-09-18T10:03:03Z</time>
      </trkpt>
      <trkpt lat="48.68834" lon="2.00124">
        <ele>169</ele>
        <time>2022-09-18T10:03:05Z</time>
      </trkpt>
      <trkpt lat="48.68835" lon="2.00142">
        <ele>168.9</ele>
        <time>2022-09-18T10:03:07Z</time>
      </trkpt>
      <trkpt lat="48.68835" lon="2.00158">
        <ele>168.3</ele>
        <time>2022-09-18T10:03:09Z</time>
      </trkpt>
      <trkpt lat="48.68837" lon="2.00175">
        <ele>168</ele>
        <time>2022-09-18T10:03:11Z</time>
      </trkpt>
      <trkpt lat="48.68836" lon="2.0019">
        <ele>168</ele>
        <time>2022-09-18T10:03:13Z</time>
      </trkpt>
      <trkpt lat="48.68837" lon="2.00207">
        <ele>167.6</ele>
        <time>2022-09-18T10:03:15Z</time>
      </trkpt>
      <trkpt lat="48.68838" lon="2.00223">
        <ele>167</ele>
        <time>2022-09-18T10:03:17Z</time>
      </trkpt>
      <trkpt lat="48.68838" lon="2.00238">
        <ele>167</ele>
        <time>2022-09-18T10:03:19Z</time>
      </trkpt>
      <trkpt lat="48.68838" lon="2.00252">
        <ele>167</ele>
        <time>2022-09-18T10:03:21Z</time>
      </trkpt>
      <trkpt lat="48.68839" lon="2.00265">
        <ele>167</ele>
        <time>2022-09-18T10:03:23Z</time>
      </trkpt>
      <trkpt lat="48.68838" lon="2.00283">
        <ele>166.8</ele>
        <time>2022-09-18T10:03:26Z</time>
      </trkpt>
      <trkpt lat="48.68838" lon="2.00299">
        <ele>166.2</ele>
        <time>2022-09-18T10:03:29Z</time>
      </trkpt>
      <trkpt lat="48.6885" lon="2.00304">
        <ele>166.1</ele>
        <time>2022-09-18T10:03:33Z</time>
      </trkpt>
      <trkpt lat="48.68859" lon="2.00302">
        <ele>166.1</ele>
        <time>2022-09-18T10:03:35Z</time>
      </trkpt>
      <trkpt lat="48.68868" lon="2.00296">
        <ele>166.3</ele>
        <time>2022-09-18T10:03:37Z</time>
      </trkpt>
      <trkpt lat="48.68879" lon="2.00294">
        <ele>166.1</ele>
        <time>2022-09-18T10:03:40Z</time>
      </trkpt>
      <trkpt lat="48.6889" lon="2.00292">
        <ele>166</ele>
        <time>2022-09-18T10:03:43Z</time>
      </trkpt>
      <trkpt lat="48.689" lon="2.00298">
        <ele>166.1</ele>
        <time>2022-09-18T10:03:47Z</time>
      </trkpt>
      <trkpt lat="48.68896" lon="2.00313">
        <ele>165.7</ele>
        <time>2022-09-18T10:03:51Z</time>
      </trkpt>
      <trkpt lat="48.68892" lon="2.00326">
        <ele>165.3</ele>
        <time>2022-09-18T10:03:54Z</time>
      </trkpt>
      <trkpt lat="48.68887" lon="2.00342">
        <ele>164.7</ele>
        <time>2022-09-18T10:03:57Z</time>
      </trkpt>
      <trkpt lat="48.68879" lon="2.00354">
        <ele>164.2</ele>
        <time>2022-09-18T10:03:59Z</time>
      </trkpt>
      <trkpt lat="48.68873" lon="2.00368">
        <ele>163.6</ele>
        <time>2022-09-18T10:04:01Z</time>
      </trkpt>
      <trkpt lat="48.68868" lon="2.00385">
        <ele>162.5</ele>
        <time>2022-09-18T10:04:03Z</time>
      </trkpt>
      <trkpt lat="48.68867" lon="2.00399">
        <ele>161.8</ele>
        <time>2022-09-18T10:04:05Z</time>
      </trkpt>
      <trkpt lat="48.68863" lon="2.00411">
        <ele>161.2</ele>
        <time>2022-09-18T10:04:08Z</time>
      </trkpt>
      <trkpt lat="48.68856" lon="2.00427">
        <ele>160.5</ele>
        <time>2022-09-18T10:04:11Z</time>
      </trkpt>
      <trkpt lat="48.68851" lon="2.0044">
        <ele>160</ele>
        <time>2022-09-18T10:04:14Z</time>
      </trkpt>
      <trkpt lat="48.68849" lon="2.00457">
        <ele>158.9</ele>
        <time>2022-09-18T10:04:18Z</time>
      </trkpt>
      <trkpt lat="48.68847" lon="2.00472">
        <ele>158</ele>
        <time>2022-09-18T10:04:24Z</time>
      </trkpt>
      <trkpt lat="48.68842" lon="2.00486">
        <ele>157.4</ele>
        <time>2022-09-18T10:04:28Z</time>
      </trkpt>
      <trkpt lat="48.68835" lon="2.00496">
        <ele>157.2</ele>
        <time>2022-09-18T10:04:31Z</time>
      </trkpt>
      <trkpt lat="48.68829" lon="2.00507">
        <ele>156.9</ele>
        <time>2022-09-18T10:04:34Z</time>
      </trkpt>
      <trkpt lat="48.68822" lon="2.0052">
        <ele>156.6</ele>
        <time>2022-09-18T10:04:37Z</time>
      </trkpt>
      <trkpt lat="48.68818" lon="2.00537">
        <ele>156.2</ele>
        <time>2022-09-18T10:04:40Z</time>
      </trkpt>
      <trkpt lat="48.68817" lon="2.00555">
        <ele>155.5</ele>
        <time>2022-09-18T10:04:42Z</time>
      </trkpt>
      <trkpt lat="48.6881" lon="2.00567">
        <ele>155.9</ele>
        <time>2022-09-18T10:04:44Z</time>
      </trkpt>
      <trkpt lat="48.68808" lon="2.0058">
        <ele>155.8</ele>
        <time>2022-09-18T10:04:46Z</time>
      </trkpt>
      <trkpt lat="48.68802" lon="2.00595">
        <ele>155.6</ele>
        <time>2022-09-18T10:04:48Z</time>
      </trkpt>
      <trkpt lat="48.68799" lon="2.00612">
        <ele>154.9</ele>
        <time>2022-09-18T10:04:51Z</time>
      </trkpt>
      <trkpt lat="48.68796" lon="2.00626">
        <ele>154.8</ele>
        <time>2022-09-18T10:04:54Z</time>
      </trkpt>
      <trkpt lat="48.68791" lon="2.00638">
        <ele>155.2</ele>
        <time>2022-09-18T10:05:02Z</time>
      </trkpt>
      <trkpt lat="48.68784" lon="2.0065">
        <ele>155.1</ele>
        <time>2022-09-18T10:05:05Z</time>
      </trkpt>
      <trkpt lat="48.68779" lon="2.00668">
        <ele>154.7</ele>
        <time>2022-09-18T10:05:08Z</time>
      </trkpt>
      <trkpt lat="48.68776" lon="2.00686">
        <ele>154</ele>
        <time>2022-09-18T10:05:11Z</time>
      </trkpt>
      <trkpt lat="48.68771" lon="2.00704">
        <ele>153.8</ele>
        <time>2022-09-18T10:05:14Z</time>
      </trkpt>
      <trkpt lat="48.68762" lon="2.00724">
        <ele>154.1</ele>
        <time>2022-09-18T10:05:17Z</time>
      </trkpt>
      <trkpt lat="48.68757" lon="2.0074">
        <ele>154.2</ele>
        <time>2022-09-18T10:05:20Z</time>
      </trkpt>
      <trkpt lat="48.68752" lon="2.00754">
        <ele>154.4</ele>
        <time>2022-09-18T10:05:23Z</time>
      </trkpt>
      <trkpt lat="48.68745" lon="2.00767">
        <ele>153.9</ele>
        <time>2022-09-18T10:05:26Z</time>
      </trkpt>
      <trkpt lat="48.68742" lon="2.00781">
        <ele>152.7</ele>
        <time>2022-09-18T10:05:28Z</time>
      </trkpt>
      <trkpt lat="48.6875" lon="2.00793">
        <ele>151.3</ele>
        <time>2022-09-18T10:05:31Z</time>
      </trkpt>
      <trkpt lat="48.68756" lon="2.00806">
        <ele>149.6</ele>
        <time>2022-09-18T10:05:34Z</time>
      </trkpt>
      <trkpt lat="48.68763" lon="2.00823">
        <ele>147.4</ele>
        <time>2022-09-18T10:05:37Z</time>
      </trkpt>
      <trkpt lat="48.68772" lon="2.0084">
        <ele>145.8</ele>
        <time>2022-09-18T10:05:39Z</time>
      </trkpt>
      <trkpt lat="48.6878" lon="2.00855">
        <ele>143.6</ele>
        <time>2022-09-18T10:05:42Z</time>
      </trkpt>
      <trkpt lat="48.68787" lon="2.00872">
        <ele>141.1</ele>
        <time>2022-09-18T10:05:45Z</time>
      </trkpt>
      <trkpt lat="48.68795" lon="2.00884">
        <ele>139.6</ele>
        <time>2022-09-18T10:05:48Z</time>
      </trkpt>
      <trkpt lat="48.68802" lon="2.00895">
        <ele>138.7</ele>
        <time>2022-09-18T10:05:50Z</time>
      </trkpt>
      <trkpt lat="48.68807" lon="2.00913">
        <ele>137.1</ele>
        <time>2022-09-18T10:05:53Z</time>
      </trkpt>
      <trkpt lat="48.68813" lon="2.00928">
        <ele>135.5</ele>
        <time>2022-09-18T10:05:56Z</time>
      </trkpt>
      <trkpt lat="48.68816" lon="2.00943">
        <ele>134.4</ele>
        <time>2022-09-18T10:06:05Z</time>
      </trkpt>
      <trkpt lat="48.68822" lon="2.00954">
        <ele>133.1</ele>
        <time>2022-09-18T10:06:10Z</time>
      </trkpt>
      <trkpt lat="48.68828" lon="2.00966">
        <ele>131.9</ele>
        <time>2022-09-18T10:06:16Z</time>
      </trkpt>
      <trkpt lat="48.68833" lon="2.0098">
        <ele>130.5</ele>
        <time>2022-09-18T10:06:23Z</time>
      </trkpt>
      <trkpt lat="48.68836" lon="2.00996">
        <ele>129</ele>
        <time>2022-09-18T10:06:27Z</time>
      </trkpt>
      <trkpt lat="48.68838" lon="2.0101">
        <ele>128.3</ele>
        <time>2022-09-18T10:06:29Z</time>
      </trkpt>
      <trkpt lat="48.68844" lon="2.01025">
        <ele>127.3</ele>
        <time>2022-09-18T10:06:30Z</time>
      </trkpt>
      <trkpt lat="48.68851" lon="2.01042">
        <ele>126.3</ele>
        <time>2022-09-18T10:06:31Z</time>
      </trkpt>
      <trkpt lat="48.68859" lon="2.0106">
        <ele>125</ele>
        <time>2022-09-18T10:06:33Z</time>
      </trkpt>
      <trkpt lat="48.68863" lon="2.01076">
        <ele>124.1</ele>
        <time>2022-09-18T10:06:35Z</time>
      </trkpt>
      <trkpt lat="48.68867" lon="2.01089">
        <ele>123.4</ele>
        <time>2022-09-18T10:06:38Z</time>
      </trkpt>
      <trkpt lat="48.68873" lon="2.01107">
        <ele>122.8</ele>
        <time>2022-09-18T10:06:41Z</time>
      </trkpt>
      <trkpt lat="48.68878" lon="2.01122">
        <ele>122.1</ele>
        <time>2022-09-18T10:06:43Z</time>
      </trkpt>
      <trkpt lat="48.68884" lon="2.01138">
        <ele>121.6</ele>
        <time>2022-09-18T10:06:45Z</time>
      </trkpt>
      <trkpt lat="48.6889" lon="2.01153">
        <ele>120.9</ele>
        <time>2022-09-18T10:06:47Z</time>
      </trkpt>
      <trkpt lat="48.68896" lon="2.01169">
        <ele>120.5</ele>
        <time>2022-09-18T10:06:49Z</time>
      </trkpt>
      <trkpt lat="48.68901" lon="2.01185">
        <ele>120.1</ele>
        <time>2022-09-18T10:06:51Z</time>
      </trkpt>
      <trkpt lat="48.6891" lon="2.01204">
        <ele>119.5</ele>
        <time>2022-09-18T10:06:53Z</time>
      </trkpt>
      <trkpt lat="48.68915" lon="2.0122">
        <ele>119.1</ele>
        <time>2022-09-18T10:06:55Z</time>
      </trkpt>
      <trkpt lat="48.6892" lon="2.01238">
        <ele>118.7</ele>
        <time>2022-09-18T10:06:57Z</time>
      </trkpt>
      <trkpt lat="48.68927" lon="2.01254">
        <ele>118.2</ele>
        <time>2022-09-18T10:06:59Z</time>
      </trkpt>
      <trkpt lat="48.68935" lon="2.01271">
        <ele>117.7</ele>
        <time>2022-09-18T10:07:01Z</time>
      </trkpt>
      <trkpt lat="48.68942" lon="2.01287">
        <ele>117.1</ele>
        <time>2022-09-18T10:07:03Z</time>
      </trkpt>
      <trkpt lat="48.68951" lon="2.01302">
        <ele>116.3</ele>
        <time>2022-09-18T10:07:05Z</time>
      </trkpt>
      <trkpt lat="48.6896" lon="2.01321">
        <ele>115.1</ele>
        <time>2022-09-18T10:07:07Z</time>
      </trkpt>
      <trkpt lat="48.68972" lon="2.01339">
        <ele>114</ele>
        <time>2022-09-18T10:07:09Z</time>
      </trkpt>
      <trkpt lat="48.68977" lon="2.01356">
        <ele>113.7</ele>
        <time>2022-09-18T10:07:11Z</time>
      </trkpt>
      <trkpt lat="48.68983" lon="2.01372">
        <ele>113.2</ele>
        <time>2022-09-18T10:07:13Z</time>
      </trkpt>
      <trkpt lat="48.6899" lon="2.01391">
        <ele>112.8</ele>
        <time>2022-09-18T10:07:15Z</time>
      </trkpt>
      <trkpt lat="48.68998" lon="2.01413">
        <ele>112.1</ele>
        <time>2022-09-18T10:07:17Z</time>
      </trkpt>
      <trkpt lat="48.69002" lon="2.01426">
        <ele>112.1</ele>
        <time>2022-09-18T10:07:19Z</time>
      </trkpt>
      <trkpt lat="48.69006" lon="2.0144">
        <ele>112.3</ele>
        <time>2022-09-18T10:07:21Z</time>
      </trkpt>
      <trkpt lat="48.69012" lon="2.01456">
        <ele>112</ele>
        <time>2022-09-18T10:07:24Z</time>
      </trkpt>
      <trkpt lat="48.6902" lon="2.01461">
        <ele>112.1</ele>
        <time>2022-09-18T10:07:29Z</time>
      </trkpt>
      <trkpt lat="48.69027" lon="2.01471">
        <ele>112</ele>
        <time>2022-09-18T10:07:45Z</time>
      </trkpt>
      <trkpt lat="48.69034" lon="2.01481">
        <ele>111.6</ele>
        <time>2022-09-18T10:07:48Z</time>
      </trkpt>
      <trkpt lat="48.69045" lon="2.01493">
        <ele>111.1</ele>
        <time>2022-09-18T10:07:51Z</time>
      </trkpt>
      <trkpt lat="48.69053" lon="2.01502">
        <ele>110.8</ele>
        <time>2022-09-18T10:07:53Z</time>
      </trkpt>
      <trkpt lat="48.6906" lon="2.01511">
        <ele>110.8</ele>
        <time>2022-09-18T10:07:55Z</time>
      </trkpt>
      <trkpt lat="48.69065" lon="2.01524">
        <ele>110.5</ele>
        <time>2022-09-18T10:07:57Z</time>
      </trkpt>
      <trkpt lat="48.69064" lon="2.01541">
        <ele>110.5</ele>
        <time>2022-09-18T10:07:59Z</time>
      </trkpt>
      <trkpt lat="48.69057" lon="2.01554">
        <ele>110.1</ele>
        <time>2022-09-18T10:08:01Z</time>
      </trkpt>
      <trkpt lat="48.69047" lon="2.01565">
        <ele>109.6</ele>
        <time>2022-09-18T10:08:03Z</time>
      </trkpt>
      <trkpt lat="48.69036" lon="2.01575">
        <ele>108.8</ele>
        <time>2022-09-18T10:08:05Z</time>
      </trkpt>
      <trkpt lat="48.69023" lon="2.01584">
        <ele>107.8</ele>
        <time>2022-09-18T10:08:07Z</time>
      </trkpt>
      <trkpt lat="48.6901" lon="2.01596">
        <ele>107.1</ele>
        <time>2022-09-18T10:08:09Z</time>
      </trkpt>
      <trkpt lat="48.68998" lon="2.01607">
        <ele>106.2</ele>
        <time>2022-09-18T10:08:11Z</time>
      </trkpt>
      <trkpt lat="48.68985" lon="2.01618">
        <ele>105.7</ele>
        <time>2022-09-18T10:08:13Z</time>
      </trkpt>
      <trkpt lat="48.68972" lon="2.01629">
        <ele>105.4</ele>
        <time>2022-09-18T10:08:15Z</time>
      </trkpt>
      <trkpt lat="48.68959" lon="2.01639">
        <ele>105.5</ele>
        <time>2022-09-18T10:08:17Z</time>
      </trkpt>
      <trkpt lat="48.68947" lon="2.01647">
        <ele>105.6</ele>
        <time>2022-09-18T10:08:19Z</time>
      </trkpt>
      <trkpt lat="48.68934" lon="2.01656">
        <ele>105.8</ele>
        <time>2022-09-18T10:08:21Z</time>
      </trkpt>
      <trkpt lat="48.68921" lon="2.01662">
        <ele>106</ele>
        <time>2022-09-18T10:08:23Z</time>
      </trkpt>
      <trkpt lat="48.68909" lon="2.01667">
        <ele>106.2</ele>
        <time>2022-09-18T10:08:25Z</time>
      </trkpt>
      <trkpt lat="48.68897" lon="2.01671">
        <ele>106.5</ele>
        <time>2022-09-18T10:08:27Z</time>
      </trkpt>
      <trkpt lat="48.68885" lon="2.01676">
        <ele>106.9</ele>
        <time>2022-09-18T10:08:29Z</time>
      </trkpt>
      <trkpt lat="48.68874" lon="2.01681">
        <ele>107.3</ele>
        <time>2022-09-18T10:08:31Z</time>
      </trkpt>
      <trkpt lat="48.68864" lon="2.01687">
        <ele>107.8</ele>
        <time>2022-09-18T10:08:33Z</time>
      </trkpt>
      <trkpt lat="48.68854" lon="2.01696">
        <ele>108.2</ele>
        <time>2022-09-18T10:08:35Z</time>
      </trkpt>
      <trkpt lat="48.68846" lon="2.01707">
        <ele>108.3</ele>
        <time>2022-09-18T10:08:37Z</time>
      </trkpt>
      <trkpt lat="48.68838" lon="2.01717">
        <ele>108.7</ele>
        <time>2022-09-18T10:08:39Z</time>
      </trkpt>
      <trkpt lat="48.6883" lon="2.01729">
        <ele>109.2</ele>
        <time>2022-09-18T10:08:41Z</time>
      </trkpt>
      <trkpt lat="48.68823" lon="2.01739">
        <ele>109.7</ele>
        <time>2022-09-18T10:08:43Z</time>
      </trkpt>
      <trkpt lat="48.68813" lon="2.01752">
        <ele>110.5</ele>
        <time>2022-09-18T10:08:46Z</time>
      </trkpt>
      <trkpt lat="48.68804" lon="2.01767">
        <ele>111.8</ele>
        <time>2022-09-18T10:08:49Z</time>
      </trkpt>
      <trkpt lat="48.68794" lon="2.0178">
        <ele>112.7</ele>
        <time>2022-09-18T10:08:52Z</time>
      </trkpt>
      <trkpt lat="48.68784" lon="2.01793">
        <ele>113</ele>
        <time>2022-09-18T10:08:55Z</time>
      </trkpt>
      <trkpt lat="48.68773" lon="2.01805">
        <ele>113.4</ele>
        <time>2022-09-18T10:08:58Z</time>
      </trkpt>
      <trkpt lat="48.68765" lon="2.01815">
        <ele>113.6</ele>
        <time>2022-09-18T10:09:00Z</time>
      </trkpt>
      <trkpt lat="48.68757" lon="2.01824">
        <ele>113.8</ele>
        <time>2022-09-18T10:09:02Z</time>
      </trkpt>
      <trkpt lat="48.68748" lon="2.01831">
        <ele>114.1</ele>
        <time>2022-09-18T10:09:04Z</time>
      </trkpt>
      <trkpt lat="48.68739" lon="2.01844">
        <ele>113.5</ele>
        <time>2022-09-18T10:09:07Z</time>
      </trkpt>
      <trkpt lat="48.68742" lon="2.01861">
        <ele>112.6</ele>
        <time>2022-09-18T10:09:10Z</time>
      </trkpt>
      <trkpt lat="48.68748" lon="2.01873">
        <ele>111.7</ele>
        <time>2022-09-18T10:09:12Z</time>
      </trkpt>
      <trkpt lat="48.68756" lon="2.01892">
        <ele>110.7</ele>
        <time>2022-09-18T10:09:14Z</time>
      </trkpt>
      <trkpt lat="48.68766" lon="2.01912">
        <ele>109.1</ele>
        <time>2022-09-18T10:09:16Z</time>
      </trkpt>
      <trkpt lat="48.68776" lon="2.01934">
        <ele>107.5</ele>
        <time>2022-09-18T10:09:18Z</time>
      </trkpt>
      <trkpt lat="48.68781" lon="2.01946">
        <ele>106.8</ele>
        <time>2022-09-18T10:09:19Z</time>
      </trkpt>
      <trkpt lat="48.68786" lon="2.01958">
        <ele>106.2</ele>
        <time>2022-09-18T10:09:20Z</time>
      </trkpt>
      <trkpt lat="48.68793" lon="2.01981">
        <ele>105.5</ele>
        <time>2022-09-18T10:09:22Z</time>
      </trkpt>
      <trkpt lat="48.688" lon="2.02004">
        <ele>105.2</ele>
        <time>2022-09-18T10:09:24Z</time>
      </trkpt>
      <trkpt lat="48.68809" lon="2.02026">
        <ele>105.1</ele>
        <time>2022-09-18T10:09:26Z</time>
      </trkpt>
      <trkpt lat="48.68816" lon="2.02048">
        <ele>106.1</ele>
        <time>2022-09-18T10:09:28Z</time>
      </trkpt>
      <trkpt lat="48.68825" lon="2.02065">
        <ele>107</ele>
        <time>2022-09-18T10:09:30Z</time>
      </trkpt>
      <trkpt lat="48.68834" lon="2.02073">
        <ele>107.7</ele>
        <time>2022-09-18T10:09:32Z</time>
      </trkpt>
      <trkpt lat="48.68844" lon="2.02069">
        <ele>108.4</ele>
        <time>2022-09-18T10:09:34Z</time>
      </trkpt>
      <trkpt lat="48.68854" lon="2.0206">
        <ele>108.2</ele>
        <time>2022-09-18T10:09:37Z</time>
      </trkpt>
      <trkpt lat="48.68863" lon="2.02056">
        <ele>108.2</ele>
        <time>2022-09-18T10:09:39Z</time>
      </trkpt>
      <trkpt lat="48.68875" lon="2.02052">
        <ele>108.7</ele>
        <time>2022-09-18T10:09:41Z</time>
      </trkpt>
      <trkpt lat="48.68887" lon="2.02053">
        <ele>109.6</ele>
        <time>2022-09-18T10:09:43Z</time>
      </trkpt>
      <trkpt lat="48.68898" lon="2.02059">
        <ele>111.1</ele>
        <time>2022-09-18T10:09:45Z</time>
      </trkpt>
      <trkpt lat="48.68907" lon="2.02064">
        <ele>112.4</ele>
        <time>2022-09-18T10:09:47Z</time>
      </trkpt>
      <trkpt lat="48.68917" lon="2.02066">
        <ele>113.1</ele>
        <time>2022-09-18T10:09:49Z</time>
      </trkpt>
      <trkpt lat="48.68928" lon="2.0207">
        <ele>113.8</ele>
        <time>2022-09-18T10:09:52Z</time>
      </trkpt>
      <trkpt lat="48.68942" lon="2.02076">
        <ele>114.8</ele>
        <time>2022-09-18T10:09:55Z</time>
      </trkpt>
      <trkpt lat="48.68954" lon="2.02079">
        <ele>115.7</ele>
        <time>2022-09-18T10:09:58Z</time>
      </trkpt>
      <trkpt lat="48.68964" lon="2.02085">
        <ele>116.9</ele>
        <time>2022-09-18T10:10:00Z</time>
      </trkpt>
      <trkpt lat="48.68976" lon="2.02089">
        <ele>117.7</ele>
        <time>2022-09-18T10:10:03Z</time>
      </trkpt>
      <trkpt lat="48.68989" lon="2.02089">
        <ele>117.3</ele>
        <time>2022-09-18T10:10:06Z</time>
      </trkpt>
      <trkpt lat="48.68998" lon="2.02089">
        <ele>117</ele>
        <time>2022-09-18T10:10:08Z</time>
      </trkpt>
      <trkpt lat="48.69009" lon="2.02094">
        <ele>116.8</ele>
        <time>2022-09-18T10:10:10Z</time>
      </trkpt>
      <trkpt lat="48.69022" lon="2.02095">
        <ele>116.1</ele>
        <time>2022-09-18T10:10:12Z</time>
      </trkpt>
      <trkpt lat="48.69037" lon="2.02095">
        <ele>115.2</ele>
        <time>2022-09-18T10:10:14Z</time>
      </trkpt>
      <trkpt lat="48.69049" lon="2.02094">
        <ele>114.5</ele>
        <time>2022-09-18T10:10:16Z</time>
      </trkpt>
      <trkpt lat="48.69063" lon="2.02093">
        <ele>114.1</ele>
        <time>2022-09-18T10:10:18Z</time>
      </trkpt>
      <trkpt lat="48.69076" lon="2.02093">
        <ele>114</ele>
        <time>2022-09-18T10:10:20Z</time>
      </trkpt>
      <trkpt lat="48.6909" lon="2.02094">
        <ele>113.9</ele>
        <time>2022-09-18T10:10:22Z</time>
      </trkpt>
      <trkpt lat="48.69103" lon="2.021">
        <ele>114.1</ele>
        <time>2022-09-18T10:10:24Z</time>
      </trkpt>
      <trkpt lat="48.69118" lon="2.02104">
        <ele>114</ele>
        <time>2022-09-18T10:10:26Z</time>
      </trkpt>
      <trkpt lat="48.69132" lon="2.02111">
        <ele>114.3</ele>
        <time>2022-09-18T10:10:28Z</time>
      </trkpt>
      <trkpt lat="48.69145" lon="2.02116">
        <ele>114.5</ele>
        <time>2022-09-18T10:10:30Z</time>
      </trkpt>
      <trkpt lat="48.69158" lon="2.02123">
        <ele>115</ele>
        <time>2022-09-18T10:10:32Z</time>
      </trkpt>
      <trkpt lat="48.6917" lon="2.02128">
        <ele>115.1</ele>
        <time>2022-09-18T10:10:34Z</time>
      </trkpt>
      <trkpt lat="48.69182" lon="2.02133">
        <ele>114.6</ele>
        <time>2022-09-18T10:10:36Z</time>
      </trkpt>
      <trkpt lat="48.69192" lon="2.02143">
        <ele>114.6</ele>
        <time>2022-09-18T10:10:38Z</time>
      </trkpt>
      <trkpt lat="48.69202" lon="2.02149">
        <ele>114.4</ele>
        <time>2022-09-18T10:10:40Z</time>
      </trkpt>
      <trkpt lat="48.69211" lon="2.02157">
        <ele>114.6</ele>
        <time>2022-09-18T10:10:42Z</time>
      </trkpt>
      <trkpt lat="48.69221" lon="2.02164">
        <ele>114.8</ele>
        <time>2022-09-18T10:10:44Z</time>
      </trkpt>
      <trkpt lat="48.69229" lon="2.02172">
        <ele>115.1</ele>
        <time>2022-09-18T10:10:46Z</time>
      </trkpt>
      <trkpt lat="48.69239" lon="2.02182">
        <ele>115.4</ele>
        <time>2022-09-18T10:10:48Z</time>
      </trkpt>
      <trkpt lat="48.69246" lon="2.02194">
        <ele>116.2</ele>
        <time>2022-09-18T10:10:50Z</time>
      </trkpt>
      <trkpt lat="48.69254" lon="2.02204">
        <ele>116.2</ele>
        <time>2022-09-18T10:10:52Z</time>
      </trkpt>
      <trkpt lat="48.69262" lon="2.02214">
        <ele>116.1</ele>
        <time>2022-09-18T10:10:54Z</time>
      </trkpt>
      <trkpt lat="48.69269" lon="2.02226">
        <ele>116.3</ele>
        <time>2022-09-18T10:10:56Z</time>
      </trkpt>
      <trkpt lat="48.69275" lon="2.02239">
        <ele>116.6</ele>
        <time>2022-09-18T10:10:58Z</time>
      </trkpt>
      <trkpt lat="48.69283" lon="2.02251">
        <ele>116.5</ele>
        <time>2022-09-18T10:11:00Z</time>
      </trkpt>
      <trkpt lat="48.6929" lon="2.02263">
        <ele>116.4</ele>
        <time>2022-09-18T10:11:02Z</time>
      </trkpt>
      <trkpt lat="48.69296" lon="2.02277">
        <ele>116.3</ele>
        <time>2022-09-18T10:11:04Z</time>
      </trkpt>
      <trkpt lat="48.69302" lon="2.0229">
        <ele>116.4</ele>
        <time>2022-09-18T10:11:06Z</time>
      </trkpt>
      <trkpt lat="48.69307" lon="2.02303">
        <ele>116.7</ele>
        <time>2022-09-18T10:11:08Z</time>
      </trkpt>
      <trkpt lat="48.69313" lon="2.02315">
        <ele>116.9</ele>
        <time>2022-09-18T10:11:10Z</time>
      </trkpt>
      <trkpt lat="48.69318" lon="2.0233">
        <ele>117.4</ele>
        <time>2022-09-18T10:11:12Z</time>
      </trkpt>
      <trkpt lat="48.69318" lon="2.02344">
        <ele>117.9</ele>
        <time>2022-09-18T10:11:14Z</time>
      </trkpt>
      <trkpt lat="48.69324" lon="2.02364">
        <ele>117.5</ele>
        <time>2022-09-18T10:11:17Z</time>
      </trkpt>
      <trkpt lat="48.69328" lon="2.0238">
        <ele>117.7</ele>
        <time>2022-09-18T10:11:19Z</time>
      </trkpt>
      <trkpt lat="48.69331" lon="2.02399">
        <ele>117</ele>
        <time>2022-09-18T10:11:21Z</time>
      </trkpt>
      <trkpt lat="48.69334" lon="2.02419">
        <ele>115.8</ele>
        <time>2022-09-18T10:11:23Z</time>
      </trkpt>
      <trkpt lat="48.69339" lon="2.0244">
        <ele>115.1</ele>
        <time>2022-09-18T10:11:25Z</time>
      </trkpt>
      <trkpt lat="48.69346" lon="2.02459">
        <ele>113.9</ele>
        <time>2022-09-18T10:11:27Z</time>
      </trkpt>
      <trkpt lat="48.69352" lon="2.02475">
        <ele>113</ele>
        <time>2022-09-18T10:11:29Z</time>
      </trkpt>
      <trkpt lat="48.69358" lon="2.02491">
        <ele>112.3</ele>
        <time>2022-09-18T10:11:31Z</time>
      </trkpt>
      <trkpt lat="48.69369" lon="2.02507">
        <ele>111.5</ele>
        <time>2022-09-18T10:11:33Z</time>
      </trkpt>
      <trkpt lat="48.6938" lon="2.02523">
        <ele>110.8</ele>
        <time>2022-09-18T10:11:35Z</time>
      </trkpt>
      <trkpt lat="48.6939" lon="2.0254">
        <ele>109.9</ele>
        <time>2022-09-18T10:11:37Z</time>
      </trkpt>
      <trkpt lat="48.694" lon="2.02557">
        <ele>109.2</ele>
        <time>2022-09-18T10:11:39Z</time>
      </trkpt>
      <trkpt lat="48.69411" lon="2.02573">
        <ele>108.5</ele>
        <time>2022-09-18T10:11:41Z</time>
      </trkpt>
      <trkpt lat="48.69419" lon="2.02593">
        <ele>108.3</ele>
        <time>2022-09-18T10:11:43Z</time>
      </trkpt>
      <trkpt lat="48.69426" lon="2.02614">
        <ele>108.7</ele>
        <time>2022-09-18T10:11:45Z</time>
      </trkpt>
      <trkpt lat="48.69433" lon="2.02635">
        <ele>108.8</ele>
        <time>2022-09-18T10:11:47Z</time>
      </trkpt>
      <trkpt lat="48.69443" lon="2.02657">
        <ele>108.2</ele>
        <time>2022-09-18T10:11:49Z</time>
      </trkpt>
      <trkpt lat="48.69455" lon="2.02675">
        <ele>107.1</ele>
        <time>2022-09-18T10:11:51Z</time>
      </trkpt>
      <trkpt lat="48.6947" lon="2.02688">
        <ele>105.5</ele>
        <time>2022-09-18T10:11:53Z</time>
      </trkpt>
      <trkpt lat="48.69485" lon="2.02701">
        <ele>104.1</ele>
        <time>2022-09-18T10:11:55Z</time>
      </trkpt>
      <trkpt lat="48.69493" lon="2.02709">
        <ele>103.5</ele>
        <time>2022-09-18T10:11:56Z</time>
      </trkpt>
      <trkpt lat="48.69507" lon="2.02726">
        <ele>102.4</ele>
        <time>2022-09-18T10:11:58Z</time>
      </trkpt>
      <trkpt lat="48.6952" lon="2.02743">
        <ele>101.3</ele>
        <time>2022-09-18T10:12:00Z</time>
      </trkpt>
      <trkpt lat="48.69527" lon="2.02752">
        <ele>101</ele>
        <time>2022-09-18T10:12:01Z</time>
      </trkpt>
      <trkpt lat="48.69542" lon="2.02765">
        <ele>100</ele>
        <time>2022-09-18T10:12:03Z</time>
      </trkpt>
      <trkpt lat="48.69551" lon="2.02771">
        <ele>99.4</ele>
        <time>2022-09-18T10:12:04Z</time>
      </trkpt>
      <trkpt lat="48.69565" lon="2.02784">
        <ele>98.5</ele>
        <time>2022-09-18T10:12:06Z</time>
      </trkpt>
      <trkpt lat="48.69575" lon="2.02804">
        <ele>98.6</ele>
        <time>2022-09-18T10:12:08Z</time>
      </trkpt>
      <trkpt lat="48.69584" lon="2.02826">
        <ele>98</ele>
        <time>2022-09-18T10:12:10Z</time>
      </trkpt>
      <trkpt lat="48.69591" lon="2.02848">
        <ele>97.9</ele>
        <time>2022-09-18T10:12:12Z</time>
      </trkpt>
      <trkpt lat="48.696" lon="2.02867">
        <ele>97.8</ele>
        <time>2022-09-18T10:12:14Z</time>
      </trkpt>
      <trkpt lat="48.6961" lon="2.02885">
        <ele>97.1</ele>
        <time>2022-09-18T10:12:16Z</time>
      </trkpt>
      <trkpt lat="48.69621" lon="2.02902">
        <ele>96.8</ele>
        <time>2022-09-18T10:12:18Z</time>
      </trkpt>
      <trkpt lat="48.69631" lon="2.02919">
        <ele>96.5</ele>
        <time>2022-09-18T10:12:20Z</time>
      </trkpt>
      <trkpt lat="48.6964" lon="2.02937">
        <ele>95.9</ele>
        <time>2022-09-18T10:12:22Z</time>
      </trkpt>
      <trkpt lat="48.69647" lon="2.02959">
        <ele>95.9</ele>
        <time>2022-09-18T10:12:24Z</time>
      </trkpt>
      <trkpt lat="48.69654" lon="2.0298">
        <ele>96.1</ele>
        <time>2022-09-18T10:12:26Z</time>
      </trkpt>
      <trkpt lat="48.69661" lon="2.03">
        <ele>96.2</ele>
        <time>2022-09-18T10:12:28Z</time>
      </trkpt>
      <trkpt lat="48.69669" lon="2.03017">
        <ele>96.5</ele>
        <time>2022-09-18T10:12:30Z</time>
      </trkpt>
      <trkpt lat="48.6968" lon="2.03033">
        <ele>96.9</ele>
        <time>2022-09-18T10:12:32Z</time>
      </trkpt>
      <trkpt lat="48.69688" lon="2.03047">
        <ele>97.6</ele>
        <time>2022-09-18T10:12:34Z</time>
      </trkpt>
      <trkpt lat="48.69697" lon="2.03057">
        <ele>98.2</ele>
        <time>2022-09-18T10:12:36Z</time>
      </trkpt>
      <trkpt lat="48.69705" lon="2.03067">
        <ele>99.3</ele>
        <time>2022-09-18T10:12:38Z</time>
      </trkpt>
      <trkpt lat="48.69714" lon="2.03082">
        <ele>100.8</ele>
        <time>2022-09-18T10:12:41Z</time>
      </trkpt>
      <trkpt lat="48.69723" lon="2.03093">
        <ele>102</ele>
        <time>2022-09-18T10:12:44Z</time>
      </trkpt>
      <trkpt lat="48.6973" lon="2.03103">
        <ele>103.2</ele>
        <time>2022-09-18T10:12:47Z</time>
      </trkpt>
      <trkpt lat="48.69739" lon="2.03114">
        <ele>104.2</ele>
        <time>2022-09-18T10:12:51Z</time>
      </trkpt>
      <trkpt lat="48.69749" lon="2.03124">
        <ele>104.9</ele>
        <time>2022-09-18T10:12:55Z</time>
      </trkpt>
      <trkpt lat="48.69756" lon="2.03131">
        <ele>105.2</ele>
        <time>2022-09-18T10:12:58Z</time>
      </trkpt>
      <trkpt lat="48.69765" lon="2.03138">
        <ele>105.4</ele>
        <time>2022-09-18T10:13:01Z</time>
      </trkpt>
      <trkpt lat="48.69773" lon="2.03147">
        <ele>105.5</ele>
        <time>2022-09-18T10:13:04Z</time>
      </trkpt>
      <trkpt lat="48.69783" lon="2.03157">
        <ele>105.4</ele>
        <time>2022-09-18T10:13:07Z</time>
      </trkpt>
      <trkpt lat="48.69792" lon="2.03165">
        <ele>105.4</ele>
        <time>2022-09-18T10:13:10Z</time>
      </trkpt>
      <trkpt lat="48.698" lon="2.03173">
        <ele>105.5</ele>
        <time>2022-09-18T10:13:13Z</time>
      </trkpt>
      <trkpt lat="48.69812" lon="2.03182">
        <ele>105.1</ele>
        <time>2022-09-18T10:13:16Z</time>
      </trkpt>
      <trkpt lat="48.69822" lon="2.03184">
        <ele>104.4</ele>
        <time>2022-09-18T10:13:18Z</time>
      </trkpt>
      <trkpt lat="48.69832" lon="2.03183">
        <ele>103.7</ele>
        <time>2022-09-18T10:13:20Z</time>
      </trkpt>
      <trkpt lat="48.69843" lon="2.03185">
        <ele>103.3</ele>
        <time>2022-09-18T10:13:22Z</time>
      </trkpt>
      <trkpt lat="48.69854" lon="2.03187">
        <ele>103</ele>
        <time>2022-09-18T10:13:24Z</time>
      </trkpt>
      <trkpt lat="48.69867" lon="2.0319">
        <ele>102.6</ele>
        <time>2022-09-18T10:13:26Z</time>
      </trkpt>
      <trkpt lat="48.69879" lon="2.03196">
        <ele>102.5</ele>
        <time>2022-09-18T10:13:28Z</time>
      </trkpt>
      <trkpt lat="48.69892" lon="2.03204">
        <ele>102.6</ele>
        <time>2022-09-18T10:13:30Z</time>
      </trkpt>
      <trkpt lat="48.69902" lon="2.03214">
        <ele>102.9</ele>
        <time>2022-09-18T10:13:32Z</time>
      </trkpt>
      <trkpt lat="48.69912" lon="2.03225">
        <ele>103.3</ele>
        <time>2022-09-18T10:13:34Z</time>
      </trkpt>
      <trkpt lat="48.69921" lon="2.03237">
        <ele>103.3</ele>
        <time>2022-09-18T10:13:36Z</time>
      </trkpt>
      <trkpt lat="48.6993" lon="2.03249">
        <ele>103</ele>
        <time>2022-09-18T10:13:38Z</time>
      </trkpt>
      <trkpt lat="48.69937" lon="2.03261">
        <ele>103.2</ele>
        <time>2022-09-18T10:13:40Z</time>
      </trkpt>
      <trkpt lat="48.69945" lon="2.03273">
        <ele>103.6</ele>
        <time>2022-09-18T10:13:42Z</time>
      </trkpt>
      <trkpt lat="48.69954" lon="2.03285">
        <ele>103.1</ele>
        <time>2022-09-18T10:13:44Z</time>
      </trkpt>
      <trkpt lat="48.69961" lon="2.033">
        <ele>103.2</ele>
        <time>2022-09-18T10:13:46Z</time>
      </trkpt>
      <trkpt lat="48.69968" lon="2.03313">
        <ele>103.4</ele>
        <time>2022-09-18T10:13:48Z</time>
      </trkpt>
      <trkpt lat="48.69975" lon="2.03327">
        <ele>103.6</ele>
        <time>2022-09-18T10:13:50Z</time>
      </trkpt>
      <trkpt lat="48.69983" lon="2.03341">
        <ele>103.3</ele>
        <time>2022-09-18T10:13:52Z</time>
      </trkpt>
      <trkpt lat="48.69992" lon="2.03355">
        <ele>103.1</ele>
        <time>2022-09-18T10:13:54Z</time>
      </trkpt>
      <trkpt lat="48.7" lon="2.03369">
        <ele>103</ele>
        <time>2022-09-18T10:13:56Z</time>
      </trkpt>
      <trkpt lat="48.70008" lon="2.03384">
        <ele>102.4</ele>
        <time>2022-09-18T10:13:58Z</time>
      </trkpt>
      <trkpt lat="48.70016" lon="2.03397">
        <ele>102.2</ele>
        <time>2022-09-18T10:14:00Z</time>
      </trkpt>
      <trkpt lat="48.70025" lon="2.03411">
        <ele>102</ele>
        <time>2022-09-18T10:14:02Z</time>
      </trkpt>
      <trkpt lat="48.70033" lon="2.03425">
        <ele>102.2</ele>
        <time>2022-09-18T10:14:04Z</time>
      </trkpt>
      <trkpt lat="48.70041" lon="2.03437">
        <ele>102.1</ele>
        <time>2022-09-18T10:14:06Z</time>
      </trkpt>
      <trkpt lat="48.7005" lon="2.03451">
        <ele>101.6</ele>
        <time>2022-09-18T10:14:08Z</time>
      </trkpt>
      <trkpt lat="48.70059" lon="2.03464">
        <ele>100.7</ele>
        <time>2022-09-18T10:14:10Z</time>
      </trkpt>
      <trkpt lat="48.70065" lon="2.0348">
        <ele>100.6</ele>
        <time>2022-09-18T10:14:12Z</time>
      </trkpt>
      <trkpt lat="48.70072" lon="2.03495">
        <ele>100.6</ele>
        <time>2022-09-18T10:14:14Z</time>
      </trkpt>
      <trkpt lat="48.70082" lon="2.03509">
        <ele>100.4</ele>
        <time>2022-09-18T10:14:16Z</time>
      </trkpt>
      <trkpt lat="48.70092" lon="2.03523">
        <ele>99.8</ele>
        <time>2022-09-18T10:14:18Z</time>
      </trkpt>
      <trkpt lat="48.70102" lon="2.03536">
        <ele>99.5</ele>
        <time>2022-09-18T10:14:20Z</time>
      </trkpt>
      <trkpt lat="48.70108" lon="2.03549">
        <ele>99.8</ele>
        <time>2022-09-18T10:14:23Z</time>
      </trkpt>
      <trkpt lat="48.70117" lon="2.0356">
        <ele>99.8</ele>
        <time>2022-09-18T10:14:26Z</time>
      </trkpt>
      <trkpt lat="48.70124" lon="2.03568">
        <ele>99.7</ele>
        <time>2022-09-18T10:14:29Z</time>
      </trkpt>
      <trkpt lat="48.70133" lon="2.03577">
        <ele>99.8</ele>
        <time>2022-09-18T10:14:32Z</time>
      </trkpt>
      <trkpt lat="48.70143" lon="2.03589">
        <ele>99.9</ele>
        <time>2022-09-18T10:14:35Z</time>
      </trkpt>
      <trkpt lat="48.70152" lon="2.03596">
        <ele>99.5</ele>
        <time>2022-09-18T10:14:37Z</time>
      </trkpt>
      <trkpt lat="48.70159" lon="2.03608">
        <ele>99.4</ele>
        <time>2022-09-18T10:14:39Z</time>
      </trkpt>
      <trkpt lat="48.70166" lon="2.0362">
        <ele>99.4</ele>
        <time>2022-09-18T10:14:41Z</time>
      </trkpt>
      <trkpt lat="48.70173" lon="2.03637">
        <ele>99.5</ele>
        <time>2022-09-18T10:14:44Z</time>
      </trkpt>
      <trkpt lat="48.70179" lon="2.03655">
        <ele>99.4</ele>
        <time>2022-09-18T10:14:47Z</time>
      </trkpt>
      <trkpt lat="48.70182" lon="2.0367">
        <ele>99.6</ele>
        <time>2022-09-18T10:14:50Z</time>
      </trkpt>
      <trkpt lat="48.70185" lon="2.03687">
        <ele>100.1</ele>
        <time>2022-09-18T10:14:53Z</time>
      </trkpt>
      <trkpt lat="48.70189" lon="2.03704">
        <ele>100.2</ele>
        <time>2022-09-18T10:14:56Z</time>
      </trkpt>
      <trkpt lat="48.70193" lon="2.03717">
        <ele>100.1</ele>
        <time>2022-09-18T10:14:58Z</time>
      </trkpt>
      <trkpt lat="48.70196" lon="2.03732">
        <ele>100.3</ele>
        <time>2022-09-18T10:15:00Z</time>
      </trkpt>
      <trkpt lat="48.70198" lon="2.03747">
        <ele>100.6</ele>
        <time>2022-09-18T10:15:02Z</time>
      </trkpt>
      <trkpt lat="48.70201" lon="2.03761">
        <ele>100.5</ele>
        <time>2022-09-18T10:15:04Z</time>
      </trkpt>
      <trkpt lat="48.70203" lon="2.03777">
        <ele>100.4</ele>
        <time>2022-09-18T10:15:06Z</time>
      </trkpt>
      <trkpt lat="48.70206" lon="2.03791">
        <ele>100.1</ele>
        <time>2022-09-18T10:15:08Z</time>
      </trkpt>
      <trkpt lat="48.70211" lon="2.03806">
        <ele>99.8</ele>
        <time>2022-09-18T10:15:10Z</time>
      </trkpt>
      <trkpt lat="48.70215" lon="2.0382">
        <ele>100.1</ele>
        <time>2022-09-18T10:15:12Z</time>
      </trkpt>
      <trkpt lat="48.7022" lon="2.03835">
        <ele>100.2</ele>
        <time>2022-09-18T10:15:14Z</time>
      </trkpt>
      <trkpt lat="48.70225" lon="2.03848">
        <ele>99.8</ele>
        <time>2022-09-18T10:15:16Z</time>
      </trkpt>
      <trkpt lat="48.7023" lon="2.03862">
        <ele>99.4</ele>
        <time>2022-09-18T10:15:18Z</time>
      </trkpt>
      <trkpt lat="48.70235" lon="2.03878">
        <ele>99.1</ele>
        <time>2022-09-18T10:15:20Z</time>
      </trkpt>
      <trkpt lat="48.7024" lon="2.03894">
        <ele>98.7</ele>
        <time>2022-09-18T10:15:22Z</time>
      </trkpt>
      <trkpt lat="48.70245" lon="2.03909">
        <ele>98.4</ele>
        <time>2022-09-18T10:15:24Z</time>
      </trkpt>
      <trkpt lat="48.7025" lon="2.03924">
        <ele>98.3</ele>
        <time>2022-09-18T10:15:26Z</time>
      </trkpt>
      <trkpt lat="48.70254" lon="2.0394">
        <ele>98.4</ele>
        <time>2022-09-18T10:15:28Z</time>
      </trkpt>
      <trkpt lat="48.70258" lon="2.03955">
        <ele>98.3</ele>
        <time>2022-09-18T10:15:30Z</time>
      </trkpt>
      <trkpt lat="48.70262" lon="2.0397">
        <ele>98.1</ele>
        <time>2022-09-18T10:15:32Z</time>
      </trkpt>
      <trkpt lat="48.70265" lon="2.03988">
        <ele>97.6</ele>
        <time>2022-09-18T10:15:34Z</time>
      </trkpt>
      <trkpt lat="48.70269" lon="2.04006">
        <ele>96.8</ele>
        <time>2022-09-18T10:15:36Z</time>
      </trkpt>
      <trkpt lat="48.70274" lon="2.04027">
        <ele>96.3</ele>
        <time>2022-09-18T10:15:38Z</time>
      </trkpt>
      <trkpt lat="48.70277" lon="2.04047">
        <ele>96.1</ele>
        <time>2022-09-18T10:15:40Z</time>
      </trkpt>
      <trkpt lat="48.70281" lon="2.04067">
        <ele>95.4</ele>
        <time>2022-09-18T10:15:42Z</time>
      </trkpt>
      <trkpt lat="48.70285" lon="2.04088">
        <ele>94.3</ele>
        <time>2022-09-18T10:15:44Z</time>
      </trkpt>
      <trkpt lat="48.70288" lon="2.04111">
        <ele>93.3</ele>
        <time>2022-09-18T10:15:46Z</time>
      </trkpt>
      <trkpt lat="48.70292" lon="2.04134">
        <ele>92.6</ele>
        <time>2022-09-18T10:15:48Z</time>
      </trkpt>
      <trkpt lat="48.70295" lon="2.04157">
        <ele>92.4</ele>
        <time>2022-09-18T10:15:50Z</time>
      </trkpt>
      <trkpt lat="48.70298" lon="2.0418">
        <ele>92.1</ele>
        <time>2022-09-18T10:15:52Z</time>
      </trkpt>
      <trkpt lat="48.703" lon="2.042">
        <ele>92</ele>
        <time>2022-09-18T10:15:54Z</time>
      </trkpt>
      <trkpt lat="48.70302" lon="2.04221">
        <ele>92</ele>
        <time>2022-09-18T10:15:56Z</time>
      </trkpt>
      <trkpt lat="48.70306" lon="2.0424">
        <ele>92</ele>
        <time>2022-09-18T10:15:58Z</time>
      </trkpt>
      <trkpt lat="48.70308" lon="2.04258">
        <ele>91.7</ele>
        <time>2022-09-18T10:16:00Z</time>
      </trkpt>
      <trkpt lat="48.70311" lon="2.04275">
        <ele>91.3</ele>
        <time>2022-09-18T10:16:02Z</time>
      </trkpt>
      <trkpt lat="48.70314" lon="2.04292">
        <ele>91.4</ele>
        <time>2022-09-18T10:16:04Z</time>
      </trkpt>
      <trkpt lat="48.70316" lon="2.04308">
        <ele>91.5</ele>
        <time>2022-09-18T10:16:06Z</time>
      </trkpt>
      <trkpt lat="48.70319" lon="2.04323">
        <ele>90.7</ele>
        <time>2022-09-18T10:16:09Z</time>
      </trkpt>
      <trkpt lat="48.70325" lon="2.04337">
        <ele>89.9</ele>
        <time>2022-09-18T10:16:13Z</time>
      </trkpt>
      <trkpt lat="48.70331" lon="2.04349">
        <ele>89.3</ele>
        <time>2022-09-18T10:16:24Z</time>
      </trkpt>
      <trkpt lat="48.70333" lon="2.04366">
        <ele>89.1</ele>
        <time>2022-09-18T10:16:28Z</time>
      </trkpt>
      <trkpt lat="48.70332" lon="2.04382">
        <ele>89.1</ele>
        <time>2022-09-18T10:16:31Z</time>
      </trkpt>
      <trkpt lat="48.70332" lon="2.04399">
        <ele>89</ele>
        <time>2022-09-18T10:16:34Z</time>
      </trkpt>
      <trkpt lat="48.70332" lon="2.04414">
        <ele>89</ele>
        <time>2022-09-18T10:16:37Z</time>
      </trkpt>
      <trkpt lat="48.70338" lon="2.04424">
        <ele>88.6</ele>
        <time>2022-09-18T10:16:42Z</time>
      </trkpt>
      <trkpt lat="48.70349" lon="2.04422">
        <ele>88.2</ele>
        <time>2022-09-18T10:16:46Z</time>
      </trkpt>
      <trkpt lat="48.70362" lon="2.0442">
        <ele>87.9</ele>
        <time>2022-09-18T10:16:49Z</time>
      </trkpt>
      <trkpt lat="48.70374" lon="2.04418">
        <ele>87.5</ele>
        <time>2022-09-18T10:16:52Z</time>
      </trkpt>
      <trkpt lat="48.70388" lon="2.04418">
        <ele>87</ele>
        <time>2022-09-18T10:16:55Z</time>
      </trkpt>
      <trkpt lat="48.70401" lon="2.04417">
        <ele>86.1</ele>
        <time>2022-09-18T10:16:58Z</time>
      </trkpt>
      <trkpt lat="48.70411" lon="2.04422">
        <ele>85.2</ele>
        <time>2022-09-18T10:17:00Z</time>
      </trkpt>
      <trkpt lat="48.70421" lon="2.04433">
        <ele>84.1</ele>
        <time>2022-09-18T10:17:02Z</time>
      </trkpt>
      <trkpt lat="48.70433" lon="2.04443">
        <ele>82.9</ele>
        <time>2022-09-18T10:17:04Z</time>
      </trkpt>
      <trkpt lat="48.70447" lon="2.04447">
        <ele>82</ele>
        <time>2022-09-18T10:17:06Z</time>
      </trkpt>
      <trkpt lat="48.70459" lon="2.04449">
        <ele>82</ele>
        <time>2022-09-18T10:17:08Z</time>
      </trkpt>
      <trkpt lat="48.70466" lon="2.04457">
        <ele>82</ele>
        <time>2022-09-18T10:17:10Z</time>
      </trkpt>
      <trkpt lat="48.70479" lon="2.04464">
        <ele>81.6</ele>
        <time>2022-09-18T10:17:13Z</time>
      </trkpt>
      <trkpt lat="48.70488" lon="2.0447">
        <ele>80.9</ele>
        <time>2022-09-18T10:17:15Z</time>
      </trkpt>
      <trkpt lat="48.70497" lon="2.04476">
        <ele>79.9</ele>
        <time>2022-09-18T10:17:17Z</time>
      </trkpt>
      <trkpt lat="48.70507" lon="2.04485">
        <ele>78.8</ele>
        <time>2022-09-18T10:17:19Z</time>
      </trkpt>
      <trkpt lat="48.70516" lon="2.04497">
        <ele>78.1</ele>
        <time>2022-09-18T10:17:21Z</time>
      </trkpt>
      <trkpt lat="48.70528" lon="2.04502">
        <ele>78.1</ele>
        <time>2022-09-18T10:17:23Z</time>
      </trkpt>
      <trkpt lat="48.7054" lon="2.045">
        <ele>78</ele>
        <time>2022-09-18T10:17:25Z</time>
      </trkpt>
      <trkpt lat="48.70552" lon="2.04497">
        <ele>78</ele>
        <time>2022-09-18T10:17:27Z</time>
      </trkpt>
      <trkpt lat="48.70563" lon="2.04495">
        <ele>78</ele>
        <time>2022-09-18T10:17:29Z</time>
      </trkpt>
      <trkpt lat="48.70573" lon="2.04492">
        <ele>78</ele>
        <time>2022-09-18T10:17:31Z</time>
      </trkpt>
      <trkpt lat="48.70583" lon="2.04491">
        <ele>78</ele>
        <time>2022-09-18T10:17:33Z</time>
      </trkpt>
      <trkpt lat="48.70595" lon="2.04487">
        <ele>78</ele>
        <time>2022-09-18T10:17:36Z</time>
      </trkpt>
      <trkpt lat="48.70606" lon="2.04484">
        <ele>78</ele>
        <time>2022-09-18T10:17:39Z</time>
      </trkpt>
      <trkpt lat="48.70615" lon="2.04486">
        <ele>77.9</ele>
        <time>2022-09-18T10:17:45Z</time>
      </trkpt>
      <trkpt lat="48.70624" lon="2.04482">
        <ele>77.5</ele>
        <time>2022-09-18T10:17:52Z</time>
      </trkpt>
      <trkpt lat="48.7063" lon="2.0447">
        <ele>77.3</ele>
        <time>2022-09-18T10:17:56Z</time>
      </trkpt>
      <trkpt lat="48.70628" lon="2.04455">
        <ele>77.4</ele>
        <time>2022-09-18T10:17:59Z</time>
      </trkpt>
      <trkpt lat="48.70625" lon="2.04438">
        <ele>77.6</ele>
        <time>2022-09-18T10:18:02Z</time>
      </trkpt>
      <trkpt lat="48.70623" lon="2.04422">
        <ele>77.9</ele>
        <time>2022-09-18T10:18:05Z</time>
      </trkpt>
      <trkpt lat="48.70633" lon="2.04414">
        <ele>78</ele>
        <time>2022-09-18T10:18:09Z</time>
      </trkpt>
      <trkpt lat="48.70644" lon="2.04412">
        <ele>78</ele>
        <time>2022-09-18T10:18:12Z</time>
      </trkpt>
      <trkpt lat="48.70656" lon="2.04413">
        <ele>78</ele>
        <time>2022-09-18T10:18:15Z</time>
      </trkpt>
      <trkpt lat="48.70666" lon="2.04411">
        <ele>78</ele>
        <time>2022-09-18T10:18:19Z</time>
      </trkpt>
      <trkpt lat="48.70677" lon="2.04415">
        <ele>78.4</ele>
        <time>2022-09-18T10:18:24Z</time>
      </trkpt>
      <trkpt lat="48.70686" lon="2.04417">
        <ele>78.7</ele>
        <time>2022-09-18T10:18:27Z</time>
      </trkpt>
      <trkpt lat="48.70697" lon="2.0442">
        <ele>79.3</ele>
        <time>2022-09-18T10:18:31Z</time>
      </trkpt>
      <trkpt lat="48.70707" lon="2.04423">
        <ele>80.3</ele>
        <time>2022-09-18T10:18:35Z</time>
      </trkpt>
      <trkpt lat="48.70717" lon="2.04418">
        <ele>81.4</ele>
        <time>2022-09-18T10:18:39Z</time>
      </trkpt>
      <trkpt lat="48.70722" lon="2.04407">
        <ele>82</ele>
        <time>2022-09-18T10:18:50Z</time>
      </trkpt>
    </trkseg>
  </trk>
</gpx>